     2              OBSERVATION DATA    GPS                 RINEX VERSION / TYPE
teqc 2000Jul20 Karen Wendt 20030613 20:52:27UTC             PGM / RUN BY / DATE
                                                            COMMENT
L2: 1 -> 1; 150 -> 5; 250 -> 9                              COMMENT
L2: 1 -> 1; 150 -> 5; 250 -> 9                              COMMENT
L2: 1 -> 1; 150 -> 5; 250 -> 9                              COMMENT
L2: 1 -> 1; 150 -> 5; 250 -> 9                              COMMENT
L2: 1 -> 1; 150 -> 5; 250 -> 9                              COMMENT
L2: 1 -> 1; 150 -> 5; 250 -> 9                              COMMENT
L2: 1 -> 1; 150 -> 5; 250 -> 9                              COMMENT
L2: 1 -> 1; 150 -> 5; 250 -> 9                              COMMENT
L2: 1 -> 1; 150 -> 5; 250 -> 9                              COMMENT
L2: 1 -> 1; 150 -> 5; 250 -> 9                              COMMENT
L2: 1 -> 1; 150 -> 5; 250 -> 9                              COMMENT
L2: 1 -> 1; 150 -> 5; 250 -> 9                              COMMENT
L2: 1 -> 1; 150 -> 5; 250 -> 9                              COMMENT
L2: 1 -> 1; 150 -> 5; 250 -> 9                              COMMENT
Original Marker Name: hold Holde_1949_USC&GS                COMMENT
Campaign Name: USGS Death Valley 2003                       COMMENT
4-Character Station Name: HOLD                              COMMENT
6-Character Antenna Code: DMRCHT                            COMMENT
Vertical Measurement Point: BCR                             COMMENT
Vertical Offset to Rinex Ref. Point: 0.0348                 COMMENT
Radial Measurement Point: ECF                               COMMENT
Radial Offset to Rinex Ref. Point: 0.1897                   COMMENT
Antenna Height from Field Measurement: 1.2860 m             COMMENT
Additional Antenna Identification Info.:                    COMMENT
Turborogue and Ashtech Choke Ring                           COMMENT
Original XYZ: -2328442.9966 -4564512.1350 3785240.5407      COMMENT
New XYZ position is based on association with SCEC monument COMMENT
E1G0D0A7+0011. Position of that monument is believed to be  COMMENT
valid to within 1 m horizontally; vertical accuracy         COMMENT
should be no worse than 3-times this value.                 COMMENT
                                                            COMMENT
Revised Rinex header created by UCSD GPS archive for        COMMENT
GSAC on 20-Apr-2005 (2005:110) 16:32:54 GMT                 COMMENT
For assistance contact dagnew@ucsd.edu                      COMMENT
or anderson@python.ucsd.edu                                 COMMENT
                                                            COMMENT
HOLDE 1949                                                  MARKER NAME
CHS US GEOLOGICAL SURVEY                                    OBSERVER / AGENCY
04582 ASHTECH Z-XII3 CD00                                   REC # / TYPE / VERS
CR14329 DORNE-MARGOL. TYPE T                                ANT # / TYPE
 -2328462.0000 -4564489.0000  3785233.0000                  APPROX POSITION XYZ
        1.2371        0.0000        0.0000                  ANTENNA: DELTA H/E/N
     1     1     0                                          WAVELENGTH FACT L1/2
     5    C1    L1    L2    P1    P2                        # / TYPES OF OBSERV
    30                                                      INTERVAL
  2003     6    10    15    25   30.000000                  TIME OF FIRST OBS
  2003     6    10    22    30   30.000000                  TIME OF LAST OBS
                                                            END OF HEADER
 03  6 10 15 25 30.0000000  0  7G30G29G17G 6G24G21G10
  21332408.853      174851.28449    126365.59547  21332408.970
  21332414.412     -251818.28449   -180937.17644                  24125545.786
  21507796.411     -153914.62949   -113943.99547  21507795.793    21507802.325
  20944804.610     -176123.98049   -127699.24947  20944804.354    20944809.809
  24474327.179      219315.64449    158758.64745  24474327.836
  24474335.415     -228257.59749   -166550.05144
  21157342.784      126188.29549     84149.22647  21157341.497    21157347.767
 03  6 10 15 26  0.0000000  0  7G30G29G17G 6G24G21G10
  21273940.615     -132401.62649   -113052.30247  21273940.717    21273946.173
  24040873.011     -696708.21949   -527604.60445  24040876.508    24040884.344
  21428850.992     -568777.78149   -437213.97847  21428849.966    21428856.507
  20864695.640     -597098.90649   -455731.65447  20864695.512    20864700.963
  24418429.760      -74422.37349    -70128.17845  24418431.361
  24418439.139     -666684.39649   -330284.32146                  22355944.564
  21094878.626     -202062.55649   -171630.67447  21094877.430    21094883.714
 03  6 10 15 26 30.0000000  0  7G30G29G17G 6G24G21G10
  21286850.460      -64560.34749    -60189.01947  21286850.560    21286856.014
  24027542.199     -766772.07349   -582199.74145  24027544.238    24027552.109
  21421243.723     -608753.26949   -468363.71047  21421242.932    21421249.473
  20855928.405     -643171.01749   -491631.99947  20855928.291    20855933.764
  24433820.126        6449.43849     -7111.26345  24433820.758    24433828.629
  22343842.276     -730260.15549   -379823.84346  22343841.540    22343846.524
  21103811.200     -155120.76449   -135052.67147  21103810.186    21103816.451
 03  6 10 15 27  0.0000000  0  7G30G29G17G 6G24G21G10
  21299846.727        3735.51849     -6971.50847  21299846.863    21299852.361
  24014246.614     -836645.23249   -636646.27845  24014247.552    24014255.355
  21413684.015     -648479.58449   -499319.28047  21413683.305    21413689.829
  20847211.919     -688976.84949   -527324.85347  20847211.756    20847217.250
  24449204.461       87293.05949     55883.69245  24449204.928    24449212.748
  22331784.649     -793622.87049   -429197.35946  22331783.938    22331789.048
  21112849.254     -107625.60349    -98043.47447  21112848.279    21112854.537
 03  6 10 15 27 30.0000000  0  7G30G29G17G 6G24G21G10
  21312928.104       72478.51349     46594.42347  21312928.257    21312933.803
  24000986.531     -906329.57749   -690945.69845  24000987.352    24000995.036
  21406170.752     -687962.00249   -530084.79747  21406170.087    21406176.640
  20838545.405     -734519.58049   -562812.68947  20838545.245    20838550.754
  24464582.214      168103.33149    118852.64445  24464582.582    24464590.334
  22319766.574     -856777.87549   -478409.01346  22319765.938    22319771.032
  21121991.251      -59583.94549    -60608.42347  21121990.320    21121996.555
 03  6 10 15 28  0.0000000  0  7G30G29G17G 6G24G21G10
  21326094.717      141669.39949    100509.35547  21326094.872    21326100.464
  23987763.403     -975819.00749   -745093.21745  23987764.007    23987771.781
  21398704.501     -727197.47249   -560657.88147  21398703.855    21398710.424
  20829929.940     -779794.40049   -598091.77347  20829929.790    20829935.268
  24479954.186      248883.02449    181797.77645  24479954.520    24479962.353
  22307788.782     -919721.56449   -527456.01846  22307788.180    22307793.245
  21131237.457      -10995.00749    -22746.92747  21131236.539    21131242.739
 03  6 10 15 28 30.0000000  0  7G30G29G17G 6G24G21G10
  21339345.360      211301.90349    154768.40347  21339345.528    21339351.118
  23974577.063    -1045114.38149   -799089.53745  23974577.415    23974585.423
  21391284.405     -766190.39449   -591041.97447  21391283.792    21391290.328
  20821365.018     -824803.40149   -633163.72147  20821364.859    20821370.326
  24495319.540      329627.25449    244715.27245  24495319.773    24495327.609
  22295850.465     -982457.70349   -576341.29946  22295849.914    22295854.907
  21140586.673       38135.43749     15536.52347  21140585.777    21140591.995
 03  6 10 15 29  0.0000000  0  7G30G29G17G 6G24G21G10
  21352679.807      281374.80849    209370.62247  21352679.987    21352685.611
  23961428.518    -1114211.52549   -852931.35945  23961428.618    23961436.824
  21383910.637     -804939.95649   -621236.43547  21383910.027    21383916.545
  20812851.252     -869543.65949   -668026.25447  20812851.093    20812856.560
  24510678.174      410336.99949    307605.91545  24510678.320    24510686.193
  22283951.824    -1044985.15749   -625063.95846  22283951.282    22283956.317
  21150038.746       87806.57449     54241.29447  21150037.883    21150044.108
 03  6 10 15 29 30.0000000  0  7G30G29G17G 6G24G21G10
  21366097.696      351885.98649    264314.34947  21366097.898    21366103.509
  23948318.236    -1183106.99949   -906616.03645  23948318.284    23948326.386
  21376583.230     -843445.97349   -651241.11947  21376582.640    21376589.111
  20804389.007     -914013.26049   -702677.88947  20804388.861    20804394.333
  24526030.192      491012.08649    370469.55045  24526030.223    24526038.298
  22272092.993    -1107303.68949   -673623.82946  22272092.481    22272097.501
  21159593.424      138016.46949     93365.87847  21159592.579    21159598.789
 03  6 10 15 30  0.0000000  0  7G30G29G17G 6G24G21G10
  21379598.471      422832.65449    319597.42347  21379598.642    21379604.229
  23935246.732    -1251798.20049   -960141.54045  23935246.803    23935254.987
  21369302.040     -881709.01449   -681056.46647  21369301.450    21369307.917
  20795978.555     -958210.72049   -737117.46547  20795978.384    20795983.855
  24541375.510      571651.66649    433305.51045  24541375.559    24541383.543
  22260273.914    -1169413.43649   -722021.00146  22260273.393    22260278.400
  21169250.098      188762.42749    132908.17247  21169249.224    21169255.439
 03  6 10 15 30 30.0000000  0  7G30G29G17G 6G24G21G10
  21393181.557      494211.81349    375217.50847  21393181.738    21393187.316
  23922214.790    -1320282.72449  -1013506.00845  23922214.715    23922222.804
  21362066.924     -919729.76849   -710683.02747  21362066.339    21362072.824
  20787620.040    -1002135.07249   -771344.23047  20787619.850    20787625.349
  24556714.049      652254.55049    496112.87845  24556714.019    24556721.701
  22248494.401    -1231315.09849   -770256.03446  22248493.918    22248498.911
  21179008.304      240041.97849    172866.25047  21179007.468    21179013.660
 03  6 10 15 31  0.0000000  0  7G30G29G17G 6G24G21G10
  21406846.460      566021.11649    431172.77147  21406846.638    21406852.215
  23909222.502    -1388557.35249  -1066706.90045  23909222.400    23909230.551
  21354877.901     -957508.50749   -740121.00447  21354877.326    21354883.793
  20779313.865    -1045784.41349   -805356.70347  20779313.690    20779319.180
  24572045.423      732820.36449    558891.38945  24572045.388    24572052.960
  22236754.594    -1293008.16049   -818328.52246  22236754.105    22236759.092
  21188867.657      291852.83649    213238.33647  21188866.793    21188872.962
 03  6 10 15 31 30.0000000  0  7G30G29G17G 6G24G21G10
  21420592.859      638258.51049    487461.61847  21420593.022    21420598.616
  23896270.833    -1456618.68349  -1119741.58845  23896270.806    23896278.888
  21347734.849     -995045.67949   -769370.74647  21347734.271    21347740.708
  20771060.477    -1089156.45849   -839153.09947  20771060.294    20771065.771
  24587369.646      813349.35549    621641.24145  24587369.488    24587377.408
  22225054.566    -1354492.23349   -866238.17146  22225054.055    22225059.043
  21198827.814      344193.58449    254023.31847  21198826.977    21198833.095
 03  6 10 15 32  0.0000000  0  8G30G26G29G17G 6G24G21G10
  21434419.682      710918.70849    544079.91947  21434419.840    21434425.446
  24270227.044    -1753222.43449  -1342000.23745  24270227.211    24270236.648
  23883359.852    -1524466.51249  -1172609.91145  23883359.784    23883367.899
  21340637.239    -1032343.90649   -798434.29147  21340636.665    21340643.118
  20762859.637    -1132252.31949   -872734.28747  20762859.461    20762864.930
  24602686.226      893838.04749    684359.57445  24602686.045    24602694.012
  22213393.735    -1415770.20849   -913987.22446  22213393.238    22213398.198
  21208887.853      397059.17149    295217.26447  21208886.993    21208893.125
 03  6 10 15 32 30.0000000  0  8G30G26G29G17G 6G24G21G10
  21448327.102      784002.66149    601028.42347  21448327.302    21448332.907
  24252166.173    -1848133.46349  -1415956.77445  24252166.205    24252175.499
  23870490.621    -1592094.33749  -1225306.81245  23870490.553    23870498.724
  21333585.747    -1069399.93049   -827309.10947  21333585.156    21333591.619
  20754712.323    -1175066.85849   -906096.26547  20754712.152    20754717.583
  24617995.688      974289.45549    747048.97745  24617995.636    24618003.430
  22201772.914    -1476838.28349   -961572.71446  22201772.393    22201777.375
  21219047.928      450450.88149    336821.17747  21219047.139    21219053.284
 03  6 10 15 33  0.0000000  0  8G30G26G29G17G 6G24G21G10
  21462314.579      857507.14149    658304.60047  21462314.779    21462320.403
  24234107.072    -1943034.81849  -1489905.76645  24234107.087    24234116.299
  23857663.680    -1659499.74249  -1277830.40345  23857663.683    23857671.782
  21326580.203    -1106214.36549   -855995.68047  21326579.616    21326586.082
  20746618.770    -1217598.85249   -939238.07747  20746618.585    20746624.024
  24633297.948     1054702.71749    809708.57145  24633297.853    24633305.561
  22190191.893    -1537697.03549  -1008995.10046  22190191.370    22190196.385
  21229307.667      504365.73649    378832.72847  21229306.827    21229312.982
 03  6 10 15 33 30.0000000  0  8G30G26G29G17G 6G24G21G10
  21476381.620      931429.58149    715906.45347  21476381.810    21476387.448
  24216050.378    -2037923.26749  -1563844.71945  24216050.427    24216059.579
  23844879.632    -1726680.13549  -1330178.68145  23844879.574    23844887.663
  21319620.422    -1142788.22449   -884494.78047  21319619.854    21319626.313
  20738579.280    -1259846.86549   -972158.60547  20738579.100    20738584.550
  24648592.724     1135076.72349    872337.53445  24648592.614    24648600.340
  22178650.569    -1598346.95249  -1056254.75547  22178650.090    22178655.074
  21239666.428      558801.26149    421249.99447  21239665.605    21239671.764
 03  6 10 15 34  0.0000000  0  9G 5G30G26G29G17G 6G24G21G10
  23240901.037      180810.45049    121322.70346  23240900.459    23240908.358
  21490527.657     1005767.12349    773831.76447  21490527.847    21490533.478
  24197996.578    -2132795.79349  -1637771.26945  24197996.755    24198005.660
  23832138.873    -1793632.72649  -1382349.44745  23832138.734    23832146.927
  21312706.408    -1179121.70949   -912806.57747  21312705.851    21312712.295
  20730594.143    -1301809.28949  -1004856.59547  20730593.938    20730599.364
  24663880.015     1215411.53949    934936.05145  24663879.971    24663887.578
  22167149.063    -1658788.06149  -1103351.70847  22167148.562    22167153.527
  21250123.846      613755.03949    464071.08747  21250122.976    21250129.149
 03  6 10 15 34 30.0000000  0  9G 5G30G26G29G17G 6G24G21G10
  23260602.253      284337.46249    201993.02246  23260601.201    23260608.909
  21504752.273     1080517.37449    832078.66647  21504752.440    21504758.050
  24179946.590    -2227648.71749  -1711682.54445  24179946.691    24179955.711
  23819442.241    -1860353.91549  -1434339.90645  23819442.153    23819450.268
  21305838.119    -1215215.05749   -940931.25747  21305837.555    21305843.972
  20722663.679    -1343484.27949  -1037330.61847  20722663.479    20722668.917
  24679159.668     1295706.57949    997503.55645  24679159.663    24679167.394
  22155687.351    -1719020.10349  -1150285.75247  22155686.857    22155691.775
  21260679.445      669224.91149    507294.32947  21260678.588    21260684.746
 03  6 10 15 35  0.0000000  0  9G 5G30G26G29G17G 6G24G21G10
  23280326.615      387989.58449    282760.83846  23280325.706    23280333.166
  21519053.967     1155672.69449    890641.20647  21519054.119    21519059.723
  24161899.920    -2322483.99749  -1785580.11345  24161900.044    24161909.026
  23806789.082    -1926846.30649  -1486152.09145  23806789.023    23806797.091
  21299014.463    -1251073.83349   -968873.15247  21299013.899    21299020.297
  20714787.233    -1384875.23949  -1069583.31147  20714787.031    20714792.497
  24694430.790     1375956.25349   1060035.69345  24694430.781    24694438.495
  22144264.451    -1779048.03749  -1197060.74447  22144263.925    22144268.823
  21271331.842      725203.63849    550914.08547  21271331.024    21271337.184
 03  6 10 15 35 30.0000000  0  9G 5G30G26G29G17G 6G24G21G10
  23300076.350      491774.76949    363632.33446  23300075.413    23300082.899
  21533434.209     1231241.16549    949525.68247  21533434.393    21533439.989
  24143859.427    -2417287.42149  -1859452.85145  24143859.903    24143868.393
  23794182.148    -1993096.08849  -1537775.23045  23794182.050    23794190.051
  21292237.387    -1286687.65449   -996624.17947  21292236.801    21292243.192
  20706967.165    -1425969.73449  -1101604.99047  20706967.005    20706972.480
  24709695.203     1456170.94849   1122540.54745  24709695.104    24709703.033
  22132882.363    -1838861.40149  -1243668.53747  22132881.825    22132886.669
  21282082.803      781699.80549    594937.04547  21282081.931    21282088.079
 03  6 10 15 36  0.0000000  0  9G 5G30G26G29G17G 6G24G21G10
  23319849.682      595684.37949    444600.77446  23319848.824    23319856.351
  21547891.507     1307214.37749   1008725.53647  21547891.675    21547897.263
  24125824.357    -2512061.67449  -1933302.85245  24125824.799    24125833.171
  23781620.805    -2059106.08249  -1589211.53845  23781620.706    23781628.773
  21285505.790    -1322062.64549  -1024189.09847  21285505.201    21285511.598
  20699202.837    -1466771.80649  -1133398.80647  20699202.650    20699208.134
  24724951.750     1536344.37549   1185013.27145  24724951.631    24724959.677
  22121540.051    -1898465.63849  -1290113.37747  22121539.497    22121544.320
  21292930.499      838704.85649    639356.54347  21292929.671    21292935.821
 03  6 10 15 36 30.0000000  0  9G 5G30G26G29G17G 6G24G21G10
  23339645.985      699714.99549    525663.48846  23339645.210    23339652.800
  21562425.150     1383588.85349   1068238.06347  21562425.334    21562430.888
  24107795.451    -2606804.16449  -2007128.10844  24107795.641    24107804.018
  23769105.541    -2124874.22249  -1640459.39245  23769105.491    23769113.417
  21278819.342    -1357200.15449  -1051568.97047  21278818.750    21278825.144
  20691494.307    -1507280.78049  -1164964.23847  20691494.097    20691499.569
  24740200.207     1616475.18649   1247452.74045  24740200.025    24740208.104
  22110237.352    -1957861.77949  -1336396.06647  22110236.812    22110241.626
  21303874.507      896215.56349    684170.05347  21303873.635    21303879.783
 03  6 10 15 37  0.0000000  0  9G 5G30G26G29G17G 6G24G21G10
  23359464.808      803863.62849    606818.16945  23359464.089    23359471.695
  21577034.646     1460361.98449   1128061.23347  21577034.839    21577040.372
  24089773.191    -2701511.65049  -2080926.04744  24089773.556    24089781.833
  23756636.852    -2190397.65749  -1691516.56045  23756636.753    23756644.443
  21272178.160    -1392099.86649  -1078763.54647  21272177.588    21272183.966
  20683841.863    -1547494.88449  -1196299.89547  20683841.644    20683847.116
  24755440.425     1696562.93249   1309858.63045  24755440.275    24755448.272
  22098974.186    -2017049.96849  -1382516.70847  22098973.619    22098978.498
  21314914.239      954229.81849    729375.93847  21314913.402    21314919.578
 03  6 10 15 37 30.0000000  0  9G 5G30G26G29G17G 6G24G21G10
  23379305.788      908128.38549    688063.34245  23379305.084    23379312.689
  21591719.628     1537531.62849   1188193.36847  21591719.823    21591725.330
  24071758.350    -2796180.02549  -2154693.52445  24071758.848    24071767.146
  23744215.371    -2255672.69049  -1742380.19945  23744215.291    23744222.861
  21265582.210    -1426761.85949  -1105772.88547  21265581.614    21265587.987
  20676245.895    -1587411.70549  -1227403.90647  20676245.693    20676251.207
  24770672.416     1776607.89849   1372231.19944  24770672.459    24770680.594
  22087750.765    -2076029.36849  -1428474.66747  22087750.259    22087755.103
  21326049.492     1012745.76949    774972.75447  21326048.634    21326054.881
 03  6 10 15 38  0.0000000  0  9G 5G30G26G29G17G 6G24G21G10
  23399168.287     1012505.98549    769396.44745  23399167.543    23399175.120
  21606479.440     1615094.56049   1248631.96847  21606479.605    21606485.132
  24053751.494    -2890806.67049  -2228428.51045  24053751.834    24053760.425
  23731841.704    -2320697.09049  -1793048.51345  23731841.588    23731849.109
  21259031.325    -1461187.12749  -1132597.75947  21259030.749    21259037.115
  20668706.730    -1627030.29249  -1258275.53047  20668706.552    20668712.055
  24785896.286     1856609.45349   1434569.98044  24785896.451    24785904.330
  22076566.963    -2134800.61849  -1474270.42647  22076566.421    22076571.283
  21337279.699     1071760.51349    820958.24347  21337278.839    21337285.095
 03  6 10 15 38 30.0000000  0  9G 5G30G26G29G17G 6G24G21G10
  23419051.774     1116993.89849    850815.51445  23419051.058    23419058.646
  21621313.612     1693048.59249   1309375.31747  21621313.796    21621319.370
  24035753.210    -2985387.82949  -2302127.99244  24035753.364    24035762.031
  23719516.288    -2385467.41449  -1843518.87945  23719516.241    23719523.682
  21252525.432    -1495375.83649  -1159238.30747  21252524.843    21252531.232
  20661224.720    -1666348.59849  -1288913.16847  20661224.542    20661230.079
  24801111.784     1936567.23849   1496874.70645  24801111.968    24801120.049
  22065422.843    -2193363.40449  -1519903.75147  22065422.336    22065427.147
  21348604.355     1131271.72349    867330.58847  21348603.509    21348609.733
 03  6 10 15 39  0.0000000  0  9G 5G30G26G29G17G 6G24G21G10
  23438955.795     1221589.89349    932318.78745  23438955.149    23438962.751
  21636221.756     1771391.20349   1370421.45847  21636221.925    21636227.563
  24017764.377    -3079919.74349  -2375789.14045  24017764.478    24017773.234
  23707239.729    -2449980.82249  -1893789.02045  23707239.689    23707247.192
  21246064.598    -1529327.71849  -1185694.30947  21246064.006    21246070.410
  20653800.248    -1705364.61649  -1319315.26147  20653800.072    20653805.565
  24816318.978     2016480.92149   1559145.10945  24816319.129    24816327.407
  22054318.416    -2251717.82249  -1565374.71247  22054317.893    22054322.674
  21360023.216     1191277.51849    914088.32447  21360022.314    21360028.510
 03  6 10 15 39 30.0000000  0 10G 5G30G26G29G17G 6G24G21G10G18
  23458878.938     1326286.22849   1013900.25845  23458878.306    23458885.968
  21651202.354     1850114.82549   1431764.48547  21651202.544    21651208.234
  23999784.621    -3174404.00949  -2449413.14745  23999784.585    23999793.353
  23695011.787    -2514238.91549  -1943860.22545  23695011.774    23695019.275
  21239647.714    -1563048.69949  -1211970.39147  21239647.128    21239653.547
  20646432.745    -1744081.44749  -1349484.22047  20646432.562    20646437.993
  24831516.781     2096345.51049   1621377.23445  24831517.088    24831525.047
  22043252.755    -2309868.30249  -1610686.75847  22043252.204    22043256.985
  21371534.617     1251770.62649    961225.78747  21371533.785    21371540.018
  24771311.930    -3582073.59249  -2768280.21245  24771311.598    24771319.361
 03  6 10 15 40  0.0000000  0 10G 5G30G26G29G17G 6G24G21G10G18
  23478821.610     1431085.11449   1095561.63145  23478820.970    23478828.668
  21666255.927     1929221.64749   1493406.11247  21666256.123    21666261.823
  23981815.519    -3268832.32649  -2522993.57445  23981815.515    23981824.324
  23682834.016    -2578234.08149  -1993726.55545  23682833.965    23682841.426
  21233275.799    -1596533.62749  -1238062.53847  21233275.199    21233281.584
  20639123.381    -1782492.58749  -1379414.97947  20639123.192    20639128.603
  24846706.202     2176165.63449   1683574.71545  24846706.194    24846714.336
  22032226.867    -2367810.01449  -1655836.13147  22032226.317    22032231.092
  21383139.349     1312753.39649   1008744.79847  21383138.451    21383144.677
  24750177.841    -3693133.18349  -2854820.12544  24750177.258    24750185.447
 03  6 10 15 40 30.0000000  0 10G 5G30G26G29G17G 6G24G21G10G18
  23498783.631     1535986.01349   1177302.48645  23498783.021    23498790.759
  21681382.386     2008711.30149   1555346.06247  21681382.571    21681388.259
  23963857.956    -3363199.08549  -2596526.01745  23963857.916    23963866.929
  23670707.139    -2641961.12049  -2043383.95845  23670707.071    23670714.658
  21226949.091    -1629780.69949  -1263969.34747  21226948.479    21226954.863
  20631872.928    -1820594.02349  -1409104.40947  20631872.742    20631878.155
  24861887.408     2255943.10649   1745738.91845  24861887.464    24861895.515
  22021241.029    -2425540.73549  -1700821.08047  22021240.492    22021245.280
  21394837.175     1374225.65749   1056645.24547  21394836.293    21394842.489
  24729054.923    -3804134.90749  -2941314.92744  24729054.193    24729062.517
 03  6 10 15 41  0.0000000  0 10G 5G30G26G29G17G 6G24G21G10G18
  23518764.295     1640985.04749   1259119.80645  23518763.719    23518771.529
  21696580.865     2088579.57449   1617581.02347  21696581.040    21696586.769
  23945912.646    -3457502.25649  -2670008.93745  23945912.710    23945921.461
  23658631.608    -2705418.50449  -2092831.25345  23658631.530    23658639.038
  21220667.263    -1662792.00349  -1289692.44147  21220666.638    21220673.045
  20624681.471    -1858385.42649  -1438552.26447  20624681.300    20624686.727
  24877060.112     2335676.03249   1807868.39445  24877060.219    24877068.435
  22010295.121    -2483061.89849  -1745642.75347  22010294.550    22010299.374
  21406627.396     1436183.24349   1104923.85847  21406626.501    21406632.688
  24707943.145    -3915078.06249  -3027764.08944  24707942.516    24707950.687
 03  6 10 15 41 30.0000000  0  9G 5G30G26G29G17G 6G21G10G18
  23538762.947     1746077.89549   1341010.21645  23538762.314    23538770.150
  21711850.620     2168822.38849   1680107.83947  21711850.808    21711856.550
  23927979.758    -3551739.90449  -2743440.79245  23927979.914    23927988.612
  23646607.694    -2768604.66549  -2142067.18945  23646607.564    23646614.982
  21214430.037    -1695568.80049  -1315232.80047  21214429.426    21214435.870
  20617549.062    -1895866.44349  -1467758.25547  20617548.888    20617554.311
  21999388.719    -2540375.10049  -1790302.37347  21999388.141    21999393.019
  21418509.188     1498622.56749   1153577.85047  21418508.295    21418514.544
  24686842.754    -4025961.77849  -3114166.89745  24686842.016    24686850.149
 03  6 10 15 42  0.0000000  0  9G 5G30G26G29G17G 6G21G10G18
  23558779.239     1851263.45749   1422972.88845  23558778.627    23558786.342
  21727191.459     2249438.51849   1742925.55047  21727191.638    21727197.361
  23910060.311    -3645907.08349  -2816817.74745  23910060.399    23910069.020
  23634636.207    -2831515.41449  -2191088.52345  23634636.142    23634643.499
  21208237.643    -1728109.86649  -1340589.47147  21208237.063    21208243.523
  20610476.397    -1933033.83549  -1496719.86747  20610476.204    20610481.627
  21988522.247    -2597478.66349  -1834798.63347  21988521.683    21988526.574
  21430482.494     1561542.76449   1202606.54647  21430481.646    21430487.894
  24665754.249    -4136782.39949  -3200520.53945  24665753.394    24665761.527
 03  6 10 15 42 30.0000000  0  9G 5G30G26G29G17G 6G21G10G18
  23578812.620     1956538.78149   1505005.49645  23578811.967    23578819.629
  21742602.687     2330424.83549   1806031.71247  21742602.879    21742608.602
  23892154.851    -3740000.59649  -2890137.29545  23892154.975    23892163.518
  23622717.554    -2894148.02949  -2239893.12745  23622717.533    23622724.887
  21202089.952    -1760416.38749  -1365763.38247  21202089.359    21202095.821
  20603463.656    -1969886.21549  -1525436.01847  20603463.459    20603468.845
  21977695.641    -2654372.80549  -1879131.72047  21977695.088    21977700.010
  21442546.819     1624940.92349   1252007.67847  21442545.934    21442552.183
  24644678.122    -4247538.02349  -3286823.55345  24644677.474    24644685.450
 03  6 10 15 43  0.0000000  0  9G 5G30G26G29G17G 6G21G10G18
  23598862.420     2061900.61249   1587105.51045  23598861.808    23598869.446
  21758083.760     2411778.25849   1869423.94347  21758083.952    21758089.713
  23874264.040    -3834017.51249  -2963397.15845  23874264.071    23874272.593
  23610852.397    -2956500.09649  -2288479.11645  23610852.337    23610859.707
  21195986.774    -1792489.03049  -1390755.05147  21195986.174    21195992.628
  20596511.085    -2006422.27749  -1553905.68447  20596510.892    20596516.282
  21966908.784    -2711058.29649  -1923302.21647  21966908.246    21966913.121
  21454701.422     1688813.94749   1301778.84447  21454700.590    21454706.844
  24623614.730    -4358226.76049  -3373074.42445  24623614.186    24623622.108
 03  6 10 15 43 30.0000000  0  9G 5G30G26G29G17G 6G21G10G18
  23618928.001     2167345.71649   1669270.40845  23618927.367    23618935.131
  21773633.999     2493495.35649   1933099.54747  21773634.207    21773640.003
  23856388.305    -3927955.01349  -3036595.14845  23856388.446    23856396.925
  23599041.033    -3018569.31349  -2336844.69345  23599040.943    23599048.325
  21189927.958    -1824328.46449  -1415564.99647  21189927.368    21189933.820
  20589618.900    -2042641.03749  -1582128.09847  20589618.703    20589624.075
  21956161.539    -2767535.68849  -1967310.55447  21956160.986    21956165.831
  21466945.926     1753158.77949   1351917.65047  21466945.053    21466951.299
  24602564.312    -4468847.30249  -3459272.16245  24602563.730    24602571.717
 03  6 10 15 44  0.0000000  0  9G 5G30G26G29G17G 6G21G10G18
  23639009.063     2272872.16549   1751498.68145  23639008.435    23639016.310
  21789253.104     2575574.05849   1997056.92247  21789253.294    21789259.139
  23838528.429    -4021808.93449  -3109728.01545  23838528.540    23838537.177
  23587284.103    -3080352.12449  -2384987.09245  23587284.033    23587291.395
  21183913.582    -1855934.23149  -1440192.86947  21183913.012    21183919.448
  20582787.573    -2078539.98849  -1610101.30947  20582787.383    20582792.772
  21945453.957    -2823804.38549  -2011156.27347  21945453.419    21945458.292
  21479279.829     1817973.73949   1402422.79047  21479278.974    21479285.227
  24581527.345    -4579396.79349  -3545414.52945  24581526.793    24581534.770
 03  6 10 15 44 30.0000000  0  9G 5G30G26G29G17G 6G21G10G18
  23659105.066     2378477.20849   1833788.20145  23659104.432    23659112.410
  21804940.465     2658011.64649   2061293.94647  21804940.654    21804946.560
  23820685.078    -4115575.90049  -3182793.14745  23820685.313    23820693.815
  23575582.231    -3141845.84649  -2432904.23045  23575582.074    23575589.466
  21177943.505    -1887307.31149  -1464639.42547  21177942.925    21177949.349
  20576017.401    -2114117.52649  -1637824.07147  20576017.220    20576022.605
  21934786.110    -2879864.11749  -2054839.16447  21934785.604    21934790.464
  21491702.679     1883256.13149   1453292.15947  21491701.854    21491708.090
  24560504.370    -4689872.83949  -3631499.69245  24560503.787    24560511.900
 03  6 10 15 45  0.0000000  0  9G 5G30G26G29G17G 6G21G10G18
  23679215.420     2484157.54549   1916136.40145  23679214.791    23679222.795
  21820695.476     2740804.77449   2125808.02647  21820695.697    21820701.608
  23802858.864    -4209252.97449  -3255788.21245  23802858.993    23802867.557
  23563935.864    -3203047.93549  -2480594.09145  23563935.696    23563943.088
  21172017.645    -1918448.08749  -1488904.94947  21172017.068    21172023.438
  20569308.631    -2149372.61349  -1665295.55447  20569308.434    20569313.831
  21924157.939    -2935715.68249  -2098359.83547  21924157.382    21924162.239
  21504213.937     1949002.69749   1504523.22847  21504213.043    21504219.284
  24539495.671    -4800273.86249  -3717526.34745  24539495.032    24539503.180
 03  6 10 15 45 30.0000000  0  9G 5G30G26G29G17G 6G21G10G18
  23699339.772     2589910.98949   1998541.57445  23699339.228    23699347.120
  21836517.740     2823950.97349   2190597.20247  21836517.953    21836523.873
  23785050.597    -4302836.18049  -3328710.16345  23785050.703    23785059.253
  23552345.463    -3263955.35249  -2528054.35145  23552345.351    23552352.849
  21166135.867    -1949357.16649  -1512989.95147  21166135.289    21166141.649
  20562661.636    -2184302.84449  -1692513.92447  20562661.446    20562666.837
  21913569.424    -2991358.51649  -2141717.87547  21913568.882    21913573.737
  21516813.056     2015211.72649   1556114.64847  21516812.251    21516818.483
  24518501.631    -4910597.40249  -3803492.67245  24518501.015    24518509.304
 03  6 10 15 46  0.0000000  0  9G 5G30G26G29G17G 6G21G10G18
  23719477.606     2695735.04449   2081001.76045  23719477.037    23719484.913
  21852406.709     2907447.83749   2255659.63347  21852406.943    21852412.872
  23767260.853    -4396322.02449  -3401556.23045  23767260.907    23767269.484
  23540811.839    -3324564.71149  -2575282.33945  23540811.705    23540819.303
  21160298.261    -1980034.03849  -1536894.00847  21160297.711    21160304.047
  20556076.832    -2218906.37849  -1719477.72147  20556076.634    20556081.999
  21903020.628    -3046792.68549  -2184913.32347  21903020.095    21903024.931
  21529499.771     2081880.56949   1608064.36447  21529498.938    21529505.158
  24497522.893    -5020841.02549  -3889396.72445  24497522.268    24497530.552
 03  6 10 15 46 30.0000000  0  9G 5G30G26G29G17G 6G21G10G18
  23739628.137     2801626.08049   2163514.14345  23739627.588    23739635.444
  21868361.634     2991291.25249   2320992.10147  21868361.868    21868367.806
  23749490.095    -4489707.91649  -3474324.39545  23749490.260    23749498.759
  23529335.249    -3384874.55849  -2622276.93945  23529335.080    23529342.636
  21154504.513    -2010480.67549  -1560618.66447  21154503.952    21154510.259
  20549554.275    -2253182.78249  -1746186.61247  20549554.060    20549559.442
  21892511.404    -3102019.15749  -2227946.92847  21892510.860    21892515.702
  21542273.265     2149005.48449   1660369.46547  21542272.425    21542278.656
  24476559.666    -5131003.50449  -3975237.54845  24476559.130    24476567.299
 03  6 10 15 47  0.0000000  0  9G 5G30G26G29G17G 6G21G10G18
  23759791.008     2907582.31549   2246077.31445  23759790.429    23759798.256
  21884382.230     3075479.47049   2386593.24747  21884382.457    21884388.399
  23731739.128    -4582989.51849  -3547011.29745  23731739.309    23731747.800
  23517916.392    -3444881.05749  -2669035.17645  23517916.265    23517923.745
  21148754.725    -2040696.03949  -1584163.10747  21148754.152    21148760.461
  20543094.427    -2287129.30949  -1772638.45947  20543094.242    20543099.641
  21882041.838    -3157037.16649  -2270818.08947  21882041.308    21882046.110
  21555133.199     2216584.88249   1713028.69947  21555132.412    21555138.652
  24455612.519    -5241081.63649  -4061012.66945  24455612.072    24455620.053
 03  6 10 15 47 30.0000000  0  9G 5G30G26G29G17G 6G21G10G18
  23779965.756     3013600.56149   2328688.81645  23779965.223    23779972.950
  21900467.785     3160009.24649   2452460.54547  21900468.001    21900473.948
  23714008.557    -4676163.88449  -3619614.62345  23714008.763    23714017.395
  23506555.595    -3504581.93849  -2715555.25845  23506555.411    23506563.060
  21143048.699    -2070681.31549  -1607528.26347  21143048.152    21143054.471
  20536697.604    -2320744.81249  -1798832.36847  20536697.420    20536702.831
  21871611.870    -3211847.08149  -2313527.10747  21871611.338    21871616.092
  21568079.163     2284615.94849   1766039.87947  21568078.320    21568084.605
  24434681.692    -5351073.80949  -4146720.82445  24434681.291    24434689.143
 03  6 10 15 48  0.0000000  0  9G 5G30G26G29G17G 6G21G10G18
  23800151.699     3119677.76049   2411346.23845  23800151.019    23800158.950
  21916617.660     3244877.29649   2518591.40847  21916617.911    21916623.842
  23696299.177    -4769227.82449  -3692131.92845  23696299.203    23696307.742
  23495253.422    -3563974.75149  -2761835.30545  23495253.284    23495260.907
  21137386.452    -2100436.80549  -1630714.38147  21137385.892    21137392.202
  20530364.065    -2354027.97349  -1824767.32047  20530363.895    20530369.305
  21861221.505    -3266449.18849  -2356074.20347  21861220.972    21861225.646
  21581110.418     2353095.54349   1819400.55347  21581109.589    21581115.869
  24413767.546    -5460978.22549  -4232360.62745  24413767.101    24413774.901
 03  6 10 15 48 30.0000000  0  9G 5G30G26G29G17G 6G21G10G18
  23820348.393     3225811.61149   2494047.81645  23820347.766    23820355.617
  21932831.502     3330081.22549   2584984.02447  21932831.737    21932837.680
  23678611.384    -4862177.46849  -3764560.14245  23678611.419    23678619.934
  23484010.540    -3623056.19849  -2807872.70945  23484010.418    23484017.961
  21131767.888    -2129962.75649  -1653721.61847  21131767.332    21131773.635
  20524094.114    -2386976.84249  -1850441.77447  20524093.945    20524099.364
  21850870.638    -3320843.32349  -2398459.23047  21850870.107    21850874.773
  21594226.629     2422021.39349   1873108.97547  21594225.819    21594232.083
  24392870.437    -5570792.34749  -4317930.02145  24392870.028    24392877.923
 03  6 10 15 49  0.0000000  0  9G 5G30G26G29G17G 6G21G10G18
  23840555.339     3331999.35049   2576791.38645  23840554.637    23840562.524
  21949108.671     3415617.93249   2651635.93047  21949108.898    21949114.907
  23660945.981    -4955009.56949  -3836896.77645  23660946.098    23660954.619
  23472827.401    -3681823.73849  -2853665.52445  23472827.240    23472834.752
  21126192.933    -2159259.36849  -1676550.15047  21126192.401    21126198.662
  20517888.088    -2419589.65249  -1875854.36847  20517887.922    20517893.338
  21840559.329    -3375029.75749  -2440682.41947  21840558.826    21840563.451
  21607427.223     2491390.65049   1927162.91147  21607426.390    21607432.668
  24371991.034    -5680513.85549  -4403427.28445  24371990.753    24371998.516
 03  6 10 15 49 30.0000000  0  9G 5G30G26G29G17G 6G21G10G18
  23860772.213     3438239.38249   2659575.67545  23860771.571    23860779.423
  21965448.808     3501485.65349   2718545.77047  21965449.046    21965455.097
  23643303.926    -5047719.59449  -3909138.30045  23643304.021    23643312.415
  23461704.647    -3740273.52449  -2899210.73845  23461704.520    23461712.161
  21120661.703    -2188326.40249  -1699199.78647  21120661.151    21120667.420
  20511746.530    -2451863.83449  -1901003.09547  20511746.383    20511751.791
  21830287.740    -3429007.48249  -2482742.98647  21830287.207    21830291.814
  21620711.858     2561201.69449   1981561.09947  21620711.043    21620717.326
  24351129.738    -5790139.86349  -4488850.10245  24351129.405    24351137.243
 03  6 10 15 50  0.0000000  0  9G 5G30G26G29G17G 6G21G10G18
  23880998.381     3544528.19149   2742397.98445  23880997.839    23881005.762
  21981851.274     3587680.71049   2785710.68647  21981851.501    21981857.515
  23625685.578    -5140304.81149  -3981282.59845  23625685.618    23625693.953
  23450642.659    -3798403.81149  -2944506.99145  23450642.548    23450650.275
  21115173.852    -2217165.20049  -1721671.57847  21115173.300    21115179.595
  20505669.588    -2483798.51449  -1925887.27247  20505669.440    20505674.845
  21820055.732    -3482777.17349  -2524641.43947  21820055.210    21820059.784
  21634079.890     2631451.25549   2036300.98647  21634079.089    21634085.389
  24330286.908    -5899668.85149  -4574197.30045  24330286.513    24330294.749
 03  6 10 15 50 30.0000000  0  9G 5G30G26G29G17G 6G21G10G18
  23901233.334     3650862.62949   2825255.85145  23901232.761    23901240.828
  21998315.381     3674199.95249   2853128.20547  21998315.623    21998321.616
  23608091.536    -5232762.15249  -4053327.26645  23608091.559    23608099.791
  23439642.051    -3856212.10649  -2989552.34745  23439641.934    23439649.677
  21109729.360    -2245776.17949  -1743965.84647  21109728.799    21109735.142
  20499657.463    -2515392.42149  -1950505.91447  20499657.302    20499662.730
  21809863.207    -3536339.63849  -2566378.42247  21809862.646    21809867.190
  21647530.879     2702136.26649   2091380.19147  21647530.057    21647536.343
  24309463.018    -6009099.13449  -4659467.60745  24309462.610    24309470.758
 03  6 10 15 51  0.0000000  0  9G 5G30G26G29G17G 6G21G10G18
  23921476.456     3757240.23349   2908147.34945  23921475.896    23921484.010
  22014840.663     3761040.40149   2920796.01647  22014840.892    22014846.918
  23590522.438    -5325088.03449  -4125269.48945  23590522.471    23590530.680
  23428703.344    -3913695.47549  -3034344.51145  23428703.286    23428710.914
  21104328.133    -2274159.87749  -1766083.01647  21104327.578    21104333.919
  20493710.517    -2546643.86249  -1974857.69847  20493710.379    20493715.799
  21799710.045    -3589694.79549  -2607953.86347  21799709.485    21799714.040
  21661064.136     2773253.99849   2146796.58347  21661063.368    21661069.646
  24288658.414    -6118428.53749  -4744659.30345  24288657.963    24288666.091
 03  6 10 15 51 30.0000000  0  9G 5G30G26G29G17G 6G21G10G18
  23941727.254     3863658.79649   2991070.76145  23941726.707    23941734.934
  22031426.612     3848199.63549   2988712.23547  22031426.841    22031432.851
  23572979.238    -5417278.35149  -4197106.06945  23572979.266    23572987.450
  23417827.013    -3970850.85649  -3078881.11345  23417826.946    23417834.486
  21098970.170    -2302316.19749  -1788023.00147  21098969.617    21098975.944
  20487829.161    -2577550.67349  -1998940.93647  20487829.041    20487834.434
  21789596.470    -3642841.82049  -2649367.12347  21789595.917    21789600.523
  21674679.421     2844802.37949   2202548.55547  21674678.612    21674684.818
  24267873.516    -6227654.24549  -4829770.20245  24267873.131    24267881.178
 03  6 10 15 52  0.0000000  0  9G 5G30G26G29G17G 6G21G10G18
  23961985.351     3970115.47949   3074023.88345  23961984.803    23961993.001
  22048072.621     3935674.72449   3056874.56747  22048072.807    22048078.869
  23555462.370    -5509329.94749  -4268834.56545  23555462.463    23555470.578
  23407013.683    -4027675.64449  -3123160.11445  23407013.542    23407020.989
  21093655.412    -2330245.44049  -1809786.04847  21093654.867    21093661.216
  20482013.729    -2608111.35749  -2022754.47147  20482013.587    20482018.959
  21779522.420    -3695781.17749  -2690618.56747  21779521.891    21779526.476
  21688376.024     2916778.34649   2258633.70447  21688375.220    21688381.414
  24247108.706    -6336774.49149  -4914798.93945  24247108.166    24247116.182
 03  6 10 15 52 30.0000000  0  9G 5G30G26G29G17G 6G21G10G18
  23982250.199     4076607.57549   3157004.59345  23982249.614    23982257.895
  22064778.181     4023462.66149   3125280.67147  22064778.401    22064784.468
  23537972.579    -5601239.32149  -4340452.23645  23537972.651    23537980.790
  23396263.720    -4084167.02949  -3167179.31745  23396263.564    23396270.938
  21088383.728    -2357948.49349  -1831372.84847  21088383.176    21088389.521
  20476264.419    -2638324.34749  -2046297.07447  20476264.267    20476269.651
  21769487.860    -3748513.16349  -2731708.42647  21769487.337    21769491.925
  21702153.491     2989179.38949   2315050.07847  21702152.712    21702158.891
  24226364.396    -6445787.05649  -4999743.76645  24226363.797    24226371.686
 03  6 10 15 53  0.0000000  0  9G 5G30G26G29G17G 6G21G10G18
  24002521.401     4183132.58449   3240010.95845  24002520.740    24002529.111
  22081542.714     4111560.41649   3193928.20947  22081542.936    22081548.970
  23520510.456    -5693002.91049  -4411956.29345  23520510.540    23520518.727
  23385577.646    -4140322.68249  -3210936.93145  23385577.491    23385584.750
  21083155.077    -2385425.37749  -1852783.41047  21083154.526    21083160.859
  20470581.581    -2668188.06849  -2069567.51847  20470581.441    20470586.806
  21759492.803    -3801037.92549  -2772636.81047  21759492.267    21759496.777
  21716011.369     3062002.65949   2371795.46147  21716010.539    21716016.735
  24205640.887    -6554689.87949  -5084603.05045  24205640.424    24205648.098
 03  6 10 15 53 30.0000000  0  9G 5G30G26G29G17G 6G21G10G18
  24022798.313     4289687.86849   3323040.91045  24022797.633    24022806.018
  22098365.685     4199965.50949   3262815.22147  22098365.920    22098372.004
  23503076.919    -5784616.83349  -4483343.73345  23503076.908    23503085.314
  23374956.071    -4196139.36949  -3254430.40645  23374955.934    23374963.167
  21077969.450    -2412676.00649  -1874017.66547  21077968.906    21077975.226
  20464965.602    -2697700.31149  -2092564.07447  20464965.439    20464970.799
  21749537.237    -3853354.83349  -2813403.22047  21749536.709    21749541.208
  21729949.049     3135245.55149   2428867.82247  21729948.260    21729954.464
  24184938.631    -6663480.44749  -5169374.86445  24184938.116    24184946.001
 03  6 10 15 54  0.0000000  0  9G 5G30G26G29G17G 6G21G10G18
  24043080.589     4396271.20749   3406092.73745  24043079.892    24043088.350
  22115246.603     4288675.24549   3331939.61847  22115246.853    22115252.923
  23485672.374    -5876077.55749  -4554611.78745  23485672.457    23485680.876
  23364399.601    -4251614.17349  -3297657.50445  23364399.433    23364406.594
  21072826.790    -2439701.10449  -1895076.19147  21072826.236    21072832.543
  20459416.879    -2726859.21849  -2115285.31147  20459416.720    20459422.063
  21739621.171    -3905464.09849  -2854007.83747  21739620.634    21739625.143
  21743966.224     3208905.82849   2486265.40347  21743965.416    21743971.604
  24164258.273    -6772156.25149  -5254057.25145  24164257.852    24164265.545
 03  6 10 15 54 30.0000000  0  9G 5G30G26G29G17G 6G21G10G18
  24063367.658     4502879.66749   3489164.12745  24063367.007    24063375.414
  22132184.970     4377686.31449   3401298.81947  22132185.197    22132191.209
  23468297.804    -5967381.61249  -4625757.76545  23468297.806    23468306.363
  23353908.541    -4306744.65449  -3340616.28345  23353908.326    23353915.579
  21067726.926    -2466501.26849  -1915959.44347  21067726.386    21067732.644
  20453935.640    -2755663.65649  -2137730.34047  20453935.475    20453940.811
  21729744.536    -3957366.08249  -2894450.93447  21729744.021    21729748.549
  21758062.280     3282980.54449   2543985.93547  21758061.407    21758067.594
  24143599.988    -6880715.81049  -5338649.06345  24143599.554    24143607.306
 03  6 10 15 55  0.0000000  0  9G 5G30G26G29G17G 6G21G10G18
  24083659.102     4609511.02349   3572253.36845  24083658.450    24083666.973
  22149180.178     4466996.36749   3470890.99246  22149180.431    22149186.367
  23450953.720    -6058525.19549  -4696778.73645  23450953.733    23450962.336
  23343483.566    -4361528.00749  -3383304.57645  23343483.333    23343490.612
  21062669.978    -2493075.98649  -1936667.02347  21062669.427    21062675.661
  20448522.240    -2784111.52649  -2159897.53047  20448522.043    20448527.409
  21719907.516    -4009059.99249  -2934731.90247  21719906.991    21719911.537
  21772236.567     3357467.20549   2602027.45247  21772235.755    21772241.970
  24122964.385    -6989156.13849  -5423147.95045  24122964.020    24122971.740
 03  6 10 15 55 30.0000000  0  9G 5G30G26G29G17G 6G21G10G18
  24103954.266     4716162.17549   3655358.02145  24103953.730    24103962.206
  22166231.589     4556602.01749   3540713.49346  22166231.837    22166237.860
  23433640.807    -6149505.28649  -4767672.27745  23433640.808    23433649.314
  23333125.125    -4415961.82449  -3425720.49745  23333125.003    23333132.246
  21057655.700    -2519426.28649  -1957199.73247  21057655.149    21057661.377
  20443176.862    -2812201.63749  -2181785.94248  20443176.693    20443182.048
  21710109.916    -4060546.71949  -2974851.42147  21710109.394    21710113.971
  21786488.728     3432362.65149   2660387.49547  21786487.898    21786494.142
  24102351.767    -7097475.54749  -5507552.61845  24102351.419    24102359.155
 03  6 10 15 56  0.0000000  0  9G 5G30G26G29G17G 6G21G10G18
  24124252.714     4822830.55749   3738476.06445  24124252.168    24124260.719
  22183338.684     4646500.20449   3610763.95246  22183338.924    22183344.958
  23416359.584    -6240318.13849  -4838435.49145  23416359.661    23416368.090
  23322833.746    -4470043.63149  -3467862.12945  23322833.639    23322840.789
  21052684.018    -2545552.72549  -1977558.00447  21052683.460    21052689.687
  20437899.901    -2839932.49249  -2203394.41148  20437899.746    20437905.088
  21700351.686    -4111826.30049  -3014809.53247  21700351.179    21700355.772
  21800818.176     3507664.35249   2719064.10047  21800817.328    21800823.609
  24081762.629    -7205672.20249  -5591861.67145  24081762.293    24081769.902
 03  6 10 15 56 30.0000000  0  9G 5G30G26G29G17G 6G21G10G18
  24144553.868     4929513.52149   3821605.48245  24144553.373    24144561.877
  22200500.918     4736687.95449   3681040.04046  22200501.163    22200507.197
  23399110.922    -6330960.28549  -4909065.70845  23399111.092    23399119.533
  23312609.804    -4523770.61749  -3509727.27545  23312609.716    23312616.802
  21047754.881    -2571455.62049  -1997742.08147  21047754.333    21047760.555
  20432691.577    -2867302.44549  -2224721.65948  20432691.422    20432696.774
  21690632.927    -4162898.83049  -3054606.30447  21690632.428    21690636.989
  21815224.298     3583369.48049   2778055.04047  21815223.535    21815229.860
  24061197.338    -7313743.78449  -5676073.25545  24061197.000    24061204.664
 03  6 10 15 57  0.0000000  0  9G 5G30G26G29G17G 6G21G10G18
  24164857.112     5036207.97449   3904743.87745  24164856.778    24164865.217
  22217717.628     4827161.89849   3751539.13646  22217717.864    22217723.920
  23381895.362    -6421428.69049  -4979560.52345  23381895.441    23381903.821
  23302453.840    -4577140.61449  -3551314.24745  23302453.637    23302460.802
  21042868.173    -2597135.53749  -2017752.40847  21042867.636    21042873.866
  20427552.180    -2894310.38749  -2245766.82548  20427552.020    20427557.359
  21680953.446    -4213764.96849  -3094242.25247  21680952.948    21680957.521
  21829706.684     3659474.72849   2837357.77347  21829705.879    21829712.271
  24040656.122    -7421688.62749  -5760186.07645  24040655.820    24040663.369
 03  6 10 15 57 30.0000000  0 10G 5G30G26G29G17G 6G15G21G10G18
  24185161.294     5142906.38449   3987885.37945  24185160.791    24185169.257
  22234987.282     4917914.13949   3822255.08246  22234987.458    22234993.618
  23364712.539    -6511724.70549  -5049921.00745  23364712.627    23364721.140
  23292365.291    -4630156.07949  -3592624.94745  23292365.161    23292372.198
  21038022.794    -2622598.12649  -2037593.39047  21038022.260    21038028.523
  20422481.059    -2920959.56949  -2266532.42048  20422480.901    20422486.224
  24744047.888    -4245459.09349  -3283288.12445  24744047.352    24744056.858
  21671312.313    -4264429.55449  -3133721.14447  21671311.783    21671316.358
  21844263.682     3735972.36349   2896966.29147  21844262.901    21844269.398
  24020138.470    -7529509.56149  -5844202.35045  24020138.155    24020145.710
 03  6 10 15 58  0.0000000  0 10G 5G30G26G29G17G 6G15G21G10G18
  24205465.754     5249606.00149   4071027.80745  24205465.275    24205473.504
  22252309.343     5008941.73249   3893185.58846  22252309.546    22252315.725
  23347563.197    -6601844.98549  -5120144.53745  23347563.368    23347571.684
  23282344.745    -4682814.39549  -3633657.37445  23282344.618    23282351.582
  21033218.620    -2647844.11049  -2057265.58647  21033218.086    21033224.363
  20417478.449    -2947248.53049  -2287017.33848  20417478.274    20417483.573
  24728149.237    -4329007.35549  -3348390.63745  24728148.708    24728158.096
  21661709.488    -4314892.74949  -3173043.10747  21661708.961    21661713.495
  21858894.838     3812859.45149   2956878.22947  21858894.062    21858900.601
  23999644.768    -7637204.29349  -5928120.28045  23999644.392    23999652.133
 03  6 10 15 58 30.0000000  0 10G 5G30G26G29G17G 6G15G21G10G18
  24225771.985     5356315.12049   4154177.59145  24225771.428    24225779.734
  22269685.347     5100252.46549   3964336.72046  22269685.517    22269691.677
  23330450.108    -6691775.08649  -5190219.87545  23330450.206    23330458.396
  23272394.729    -4735102.26949  -3674401.13545  23272394.587    23272401.463
  21028457.748    -2672862.68249  -2076760.57547  21028457.222    21028463.493
  20412546.783    -2973164.74849  -2307211.80448  20412546.588    20412551.905
  24712267.864    -4412464.19549  -3413421.89945  24712267.254    24712276.625
  21652147.016    -4365143.87749  -3212199.82947  21652146.511    21652151.033
  21873601.746     3890144.32649   3017100.11947  21873600.931    21873607.473
  23979177.525    -7744760.03149  -6011929.87945  23979177.192    23979184.928
 03  6 10 15 59  0.0000000  0 10G 5G30G26G29G17G 6G15G21G10G18
  24246079.082     5463028.60549   4237330.79845  24246078.429    24246086.800
  22287114.157     5191840.97649   4035704.31146  22287114.332    22287120.483
  23313373.385    -6781513.82649  -5260146.10145  23313373.437    23313381.523
  23262515.184    -4787019.48549  -3714856.06845  23262515.017    23262521.914
  21023739.560    -2697656.75149  -2096080.62847  21023739.058    21023745.329
  20407685.855    -2998709.10449  -2327116.51248  20407685.663    20407690.997
  24696403.453    -4495831.84449  -3478383.66545  24696402.866    24696412.433
  21642624.453    -4415185.50249  -3251193.30547  21642623.933    21642628.459
  21888383.282     3967821.81749   3077628.05247  21888382.498    21888389.069
  23958736.751    -7852177.08649  -6095631.45145  23958736.412    23958744.065
 03  6 10 15 59 30.0000000  0 11G 5G30G26G29G17G 6G15G21G10G18G16
  24266386.659     5569745.05549   4320486.31445  24266386.150    24266394.417
  22304595.385     5283705.23249   4107286.77446  22304595.599    22304601.748
  23296333.899    -6871056.84449  -5329919.81145  23296333.994    23296342.031
  23252706.833    -4838562.55649  -3755019.46545  23252706.636    23252713.627
  21019064.240    -2722225.61249  -2115225.20147  21019063.735    21019069.986
  20402896.211    -3023878.91149  -2346729.37847  20402896.039    20402901.378
  24680556.261    -4579109.09349  -3543274.99045  24680555.747    24680564.979
  21633141.955    -4465016.46549  -3290022.62647  21633141.448    21633145.967
  21903239.103     4045889.77449   3138460.22047  21903238.353    21903244.930
  23938322.880    -7959452.37449  -6179222.54345  23938322.614    23938330.193
  24741843.550    -2189866.92849  -1371178.64845  24741843.488    24741849.875
 03  6 10 16  0  0.0000000  0 11G 5G30G26G29G17G 6G15G21G10G18G16
  24286693.603     5676458.24049   4403639.27945  24286693.013    24286701.501
  22322127.866     5375838.85149   4179079.12246  22322128.102    22322134.299
  23279331.743    -6960403.75449  -5399540.68445  23279331.734    23279339.749
  23242969.499    -4889732.42149  -3794892.03746  23242969.327    23242976.286
  21014431.044    -2746573.44649  -2134197.54447  21014430.512    21014436.767
  20398177.451    -3048676.27049  -2366052.00147  20398177.286    20398182.624
  24664725.570    -4662299.36349  -3608098.53245  24664724.975    24664734.300
  21623698.693    -4514641.11649  -3328691.18147  21623698.185    21623702.710
  21918168.232     4124342.17749   3199591.92447  21918167.388    21918173.954
  23917935.736    -8066587.39649  -6262704.31945  23917935.448    23917943.096
  24726021.637    -2273011.76449  -1435966.81645  24726021.402    24726027.840
 03  6 10 16  0 30.0000000  0 11G 5G30G26G29G17G 6G15G21G10G18G16
  24306999.242     5783164.49949   4486786.85545  24306998.815    24307007.291
  22339710.879     5468237.71149   4251078.15646  22339711.100    22339717.376
  23262367.317    -7049552.34649  -5469007.02745  23262367.249    23262375.234
  23233303.486    -4940527.68449  -3834472.72946  23233303.269    23233310.340
  21009839.686    -2770701.20449  -2152998.39447  21009839.171    21009845.422
  20393529.641    -3073100.68149  -2385083.99748  20393529.453    20393534.835
  24648911.489    -4745403.40449  -3672854.89345  24648911.134    24648920.119
  21614294.655    -4564059.62949  -3367199.11547  21614294.155    21614298.678
  21933169.675     4203175.25649   3261020.27847  21933168.833    21933175.369
  23897575.536    -8173580.97849  -6346075.87945  23897575.203    23897582.860
  24710263.265    -2355822.73649  -1500494.82645  24710262.741    24710269.382
 03  6 10 16  1  0.0000000  0 11G 5G30G26G29G17G 6G15G21G10G18G16
  24327303.301     5889862.49349   4569927.98345  24327302.958    24327311.410
  22357343.944     5560900.07549   4323282.50846  22357344.203    22357350.535
  23245441.500    -7138497.93249  -5538315.15945  23245441.376    23245449.462
  23223709.352    -4990944.56149  -3873758.58046  23223709.191    23223716.342
  21005290.287    -2794608.48649  -2171627.45647  21005289.800    21005296.033
  20388953.350    -3097149.26249  -2403823.15648  20388953.191    20388958.588
  24633114.026    -4828419.86849  -3737542.99045  24633113.430    24633122.415
  21604929.995    -4613271.16649  -3405545.75947  21604929.478    21604934.037
  21948243.277     4282387.42149   3322744.01547  21948242.438    21948248.964
  23877242.867    -8280429.86249  -6429334.68245  23877242.439    23877250.143
  24694569.101    -2438296.28749  -1564759.93845  24694568.676    24694575.234
 03  6 10 16  1 30.0000000  0 11G 5G30G26G29G17G 6G15G21G10G18G16
  24347605.021     5996547.95949   4653059.37845  24347604.693    24347613.011
  22375026.270     5653821.27749   4395688.55646  22375026.512    22375032.894
  23228554.602    -7227238.54349  -5607463.58045  23228554.586    23228562.633
  23214187.551    -5040982.13549  -3912748.86546  23214187.362    23214194.484
  21000782.464    -2818297.47649  -2190086.41347  21000781.981    21000788.202
  20384448.550    -3120822.20649  -2422269.60748  20384448.400    20384453.761
  24617332.713    -4911350.29249  -3802164.06244  24617332.296    24617341.186
  21595604.361    -4662277.72249  -3443732.68147  21595603.855    21595608.442
  21963388.181     4361974.07049   3384759.55347  21963387.343    21963393.875
  23856937.779    -8387133.54449  -6512480.34845  23856937.436    23856945.094
  24678939.284    -2520431.36849  -1628761.29545  24678938.936    24678945.278
 03  6 10 16  2  0.0000000  0 11G 5G30G26G29G17G 6G15G21G10G18G16
  24367904.356     6103220.86949   4736180.98945  24367904.081    24367912.392
  22392757.764     5747000.78749   4468295.87446  22392758.026    22392764.495
  23211707.948    -7315768.01449  -5676447.46745  23211707.989    23211716.013
  23204738.807    -5090635.51349  -3951439.76246  23204738.595    23204745.776
  20996316.624    -2841765.72849  -2208373.36847  20996316.133    20996322.383
  20380016.019    -3144115.57949  -2440420.31048  20380015.859    20380021.202
  24601568.408    -4994192.09349  -3866716.06444  24601568.069    24601576.896
  21586318.158    -4711076.78449  -3481757.92147  21586317.673    21586322.280
  21978604.222     4441934.78149   3447066.56547  21978603.439    21978609.919
  23836661.253    -8493687.38549  -6595509.28345  23836660.843    23836668.544
  24663374.802    -2602223.24649  -1692495.21245  24663374.461    24663380.631
 03  6 10 16  2 30.0000000  0 11G 5G30G26G29G17G 6G15G21G10G18G16
  24388200.543     6209877.30049   4819289.74745  24388200.170    24388208.630
  22410537.672     5840434.44549   4541101.24446  22410537.927    22410544.394
  23194901.849    -7404084.11149  -5745265.09745  23194901.934    23194909.995
  23195363.350    -5139903.45649  -3989830.33346  23195363.214    23195370.367
  20991892.456    -2865015.00049  -2226489.69047  20991891.956    20991898.220
  20375655.757    -3167028.89949  -2458274.84648  20375655.597    20375660.938
  24585820.781    -5076946.45049  -3931199.94644  24585820.322    24585829.369
  21577071.196    -4759669.89149  -3519622.66647  21577070.705    21577075.340
  21993890.764     4522265.82849   3509662.14347  21993890.007    21993896.450
  23816413.381    -8600090.59049  -6678420.83645  23816412.960    23816420.519
  24647875.756    -2683670.80749  -1755960.85544  24647875.591    24647881.514
 03  6 10 16  3  0.0000000  0 11G 5G30G26G29G17G 6G15G21G10G18G16
  24408493.067     6316514.83249   4902383.75345  24408492.642    24408501.337
  22428365.359     5934119.12449   4614102.19846  22428365.645    22428372.148
  23178137.110    -7492183.25549  -5813913.67745  23178137.180    23178145.356
  23186061.825    -5188783.42149  -4027918.60446  23186061.713    23186068.830
  20987509.909    -2888045.40549  -2244435.47047  20987509.430    20987515.704
  20371368.140    -3189560.70149  -2475832.09648  20371367.975    20371373.339
  24570089.749    -5159613.36149  -3995615.65545  24570088.973    24570098.359
  21567863.446    -4808056.97949  -3557326.88647  21567862.949    21567867.591
  22009247.222     4602964.29549   3572544.00947  22009246.436    22009252.887
  23796194.568    -8706341.14449  -6761213.42645  23796194.098    23796201.610
  24632442.773    -2764771.44849  -1819156.16944  24632442.605    24632448.296
 03  6 10 16  3 30.0000000  0 11G 5G30G26G29G17G 6G15G21G10G18G16
  24428781.500     6423130.61949   4985460.79445  24428780.927    24428789.802
  22446240.219     6028051.70549   4687296.33046  22446240.491    22446247.032
  23161414.191    -7580062.19449  -5882390.67445  23161414.257    23161422.525
  23176834.551    -5237273.33449  -4065702.93846  23176834.431    23176841.501
  20983168.853    -2910857.93549  -2262211.47447  20983168.345    20983174.615
  20367153.347    -3211709.78649  -2493091.12548  20367153.183    20367158.515
  24554375.391    -5242192.91349  -4059963.29445  24554374.381    24554384.001
  21558694.846    -4856238.22949  -3594870.70047  21558694.356    21558699.005
  22024672.941     4684026.89949   3635709.61347  22024672.137    22024678.638
  23776005.106    -8812437.10349  -6843885.55345  23776004.694    23776012.181
  24617076.303    -2845523.16149  -1882079.55244  24617076.033    24617081.847
 03  6 10 16  4  0.0000000  0 11G 5G30G26G29G17G 6G15G21G10G18G16
  24449065.426     6529722.72949   5068519.41045  24449064.844    24449073.791
  22464161.811     6122229.86149   4760681.81946  22464162.114    22464168.650
  23144734.101    -7667716.60749  -5950692.72945  23144734.065    23144742.315
  23167682.077    -5285370.04549  -4103180.86146  23167681.927    23167689.033
  20978869.339    -2933452.07349  -2279817.30547  20978868.831    20978875.117
  20363011.795    -3233473.80049  -2510050.10548  20363011.610    20363016.951
  24538677.804    -5324683.96549  -4124241.95745  24538677.058    24538686.257
  21549565.491    -4904213.32749  -3632253.88147  21549565.027    21549569.634
  22040167.614     4765451.76349   3699157.51447  22040166.820    22040173.367
  23755845.691    -8918375.71349  -6926435.07745  23755845.251    23755852.665
  24601776.731    -2925922.91249  -1944728.71245  24601776.425    24601782.486
 03  6 10 16  4 30.0000000  0 11G 5G30G26G29G17G 6G15G21G10G18G16
  24469344.366     6636288.59949   5151557.57045  24469343.895    24469352.801
  22482129.625     6216650.68449   4834256.40646  22482129.875    22482136.422
  23128097.298    -7755143.06749  -6018817.15445  23128097.292    23128105.484
  23158604.875    -5333070.85949  -4140350.29546  23158604.732    23158611.827
  20974611.283    -2955828.43549  -2297253.43347  20974610.769    20974617.045
  20358943.789    -3254851.31549  -2526707.92148  20358943.617    20358948.976
  24522996.995    -5407086.42149  -4188451.58845  24522996.444    24523005.626
  21540475.350    -4951982.24149  -3669476.39847  21540474.870    21540479.530
  22055730.719     4847236.19349   3762885.61646  22055729.916    22055736.471
  23735716.529    -9024154.77349  -7008860.25045  23735716.016    23735723.438
  24586544.564    -3005968.26949  -2007101.71745  24586544.269    24586550.435
 03  6 10 16  5  0.0000000  0 11G 5G30G26G29G17G 6G15G21G10G18G16
  24489617.748     6742825.17149   5234572.90345  24489617.350    24489626.215
  22500142.899     6311310.52949   4908017.23146  22500143.145    22500149.703
  23111504.553    -7842338.42249  -6086761.50745  23111504.528    23111512.596
  23149603.358    -5380374.04749  -4177209.90146  23149603.233    23149610.245
  20970394.492    -2977987.84049  -2314520.49647  20970393.998    20970400.283
  20354949.523    -3275841.40149  -2543063.84548  20354949.342    20354954.727
  24507332.974    -5489400.73749  -4252592.54545  24507332.276    24507341.766
  21531424.391    -4999545.23149  -3706538.45747  21531423.935    21531428.597
  22071361.631     4929376.74149   3826891.22647  22071360.815    22071367.357
  23715618.001    -9129772.95549  -7091160.11245  23715617.510    23715624.934
  24571380.259    -3085657.36149  -2069197.09245  24571380.068    24571386.218
 03  6 10 16  5 30.0000000  0 11G 5G30G26G29G17G 6G15G21G10G18G16
  24509885.130     6849329.94049   5317563.44445  24509884.679    24509893.589
  22518201.113     6406206.35949   4981961.93646  22518201.334    22518207.868
  23094956.341    -7929299.27749  -6154523.13345  23094956.424    23094964.393
  23140677.968    -5427277.34049  -4213757.91146  23140677.792    23140684.756
  20966218.954    -2999930.47449  -2331618.66647  20966218.449    20966224.709
  20351029.304    -3296442.48349  -2559116.64948  20351029.106    20351034.496
  24491685.984    -5571626.82649  -4316664.76045  24491685.239    24491694.662
  21522412.518    -5046902.98549  -3743440.59647  21522412.044    21522416.707
  22087059.749     5011870.61849   3891172.15047  22087058.967    22087065.479
  23695550.552    -9235228.02549  -7173332.84345  23695550.082    23695557.450
  24556284.291    -3164987.90749  -2131013.09345  24556283.969    24556290.373
 03  6 10 16  6  0.0000000  0 11G 5G30G26G29G17G 6G15G21G10G18G16
  24530146.137     6955800.96749   5400527.69845  24530145.563    24530154.642
  22536303.696     6501335.67549   5056088.58246  22536303.921    22536310.423
  23078453.635    -8016021.42449  -6222098.77645  23078453.649    23078461.660
  23131829.120    -5473777.85849  -4249992.05245  23131828.978    23131835.946
  20962084.653    -3021656.59549  -2348548.12447  20962084.121    20962090.411
  20347183.463    -3316652.48149  -2574864.71548  20347183.258    20347188.642
  24476055.912    -5653763.92049  -4380667.63545  24476055.109    24476064.351
  21513439.829    -5094054.68849  -3780182.17347  21513439.366    21513444.084
  22102824.632     5094715.19549   3955726.30446  22102823.833    22102830.322
  23675514.717    -9340517.18249  -7255376.30845  23675514.143    23675521.525
  24541256.929    -3243957.06649  -2192547.47745  24541256.521    24541263.000
 03  6 10 16  6 30.0000000  0 11G 5G30G26G29G17G 6G15G21G10G18G16
  24550400.017     7062235.27049   5483463.39545  24550399.392    24550408.432
  22554450.107     6596695.16749   5130394.59046  22554450.328    22554456.850
  23061996.940    -8102501.80449  -6289486.03345  23061997.002    23062005.008
  23123057.402    -5519873.40849  -4285910.62246  23123057.221    23123064.261
  20957991.452    -3043166.57249  -2365309.13147  20957990.925    20957997.202
  20343412.284    -3336470.19249  -2590307.10148  20343412.099    20343417.503
  24460442.595    -5735812.19349  -4444601.28045  24460441.879    24460451.045
  21504506.308    -5141000.83349  -3816763.57347  21504505.840    21504510.552
  22118655.606     5177907.33249   4020551.26446  22118654.804    22118661.303
  23655510.578    -9445638.97549  -7337289.34645  23655510.071    23655517.463
  24526298.792    -3322562.68749  -2253798.59645  24526298.396    24526304.894
 03  6 10 16  7  0.0000000  0 11G 5G30G26G29G17G 6G15G21G10G18G16
  24570646.469     7168630.89949   5566368.92745  24570646.174    24570655.207
  22572639.850     6692282.37749   5204878.02846  22572640.086    22572646.607
  23045587.023    -8188736.20449  -6356681.63545  23045587.062    23045595.064
  23114363.256    -5565561.22949  -4321511.49346  23114363.109    23114370.152
  20953939.372    -3064460.39949  -2381901.72947  20953938.850    20953945.106
  20339716.081    -3355893.78049  -2605442.37148  20339715.908    20339721.303
  24444846.259    -5817771.03349  -4508465.26345  24444845.566    24444854.996
  21495611.962    -5187741.09349  -3853184.54747  21495611.508    21495616.209
  22134552.321     5261445.02249   4085645.54946  22134551.549    22134558.068
  23635538.849    -9550590.85049  -7419069.95745  23635538.367    23635545.739
  24511410.389    -3400802.18649  -2314764.41445  24511409.974    24511416.334
 03  6 10 16  7 30.0000000  0 11G 5G30G26G29G17G 6G15G21G10G18G16
  24590885.021     7274985.16749   5649242.19144  24590884.726    24590893.570
  22590872.264     6788094.05749   5279536.38546  22590872.524    22590878.983
  23029224.498    -8274721.37049  -6423683.02445  23029224.550    23029232.572
  23105747.113    -5610839.14649  -4356792.96246  23105747.014    23105754.051
  20949928.293    -3085538.60449  -2398326.29247  20949927.777    20949934.074
  20336095.182    -3374921.93449  -2620269.51548  20336095.014    20336100.391
  24429266.866    -5899640.54549  -4572259.62445  24429266.241    24429275.649
  21486756.601    -5234276.33749  -3889445.77247  21486756.148    21486760.837
  22150514.274     5345325.37249   4151006.85946  22150513.478    22150520.024
  23615599.869    -9655370.87749  -7500716.67345  23615599.441    23615606.778
  24496592.134    -3478673.14049  -2375443.06045  24496591.413    24496598.044
 03  6 10 16  8  0.0000000  0 11G 5G30G26G29G17G 6G15G21G10G18G16
  24611115.237     7381295.17049   5732080.97644  24611114.910    24611124.090
  22609146.733     6884126.95149   5354367.11346  22609147.013    22609153.447
  23012910.036    -8360453.96749  -6490487.61845  23012910.164    23012918.133
  23097209.378    -5655705.19949  -4391753.47746  23097209.245    23097216.311
  20945958.137    -3106401.66049  -2414583.19447  20945957.635    20945963.960
  20332549.715    -3393553.54149  -2634787.66548  20332549.559    20332554.928
  24413704.623    -5981420.92549  -4635984.54445  24413704.005    24413713.332
  21477940.325    -5280606.01049  -3925546.80947  21477939.852    21477944.579
  22166540.823     5429544.99449   4216632.49746  22166539.994    22166546.530
  23595693.925    -9759976.99449  -7582227.85645  23595693.492    23595700.822
  24481844.151    -3556173.88149  -2435833.18845  24481843.502    24481850.008
 03  6 10 16  8 30.0000000  0 11G 5G30G26G29G17G 6G15G21G10G18G16
  24631336.617     7487558.94349   5814883.73244  24631336.310    24631345.898
  22627462.891     6980378.66049   5429368.36346  22627463.173    22627469.663
  22996644.422    -8445929.92849  -6557092.23545  22996644.595    22996652.648
  23088750.536    -5700156.28949  -4426390.66346  23088750.471    23088757.520
  20942028.934    -3127049.76349  -2430672.62347  20942028.435    20942034.773
  20329080.112    -3411786.44849  -2648995.13248  20329079.981    20329085.355
  24398159.458    -6063111.42049  -4699639.43145  24398158.886    24398168.110
  21469163.152    -5326730.04549  -3961487.60847  21469162.698    21469167.463
  22182631.459     5514101.82149   4282520.89046  22182630.684    22182637.188
  23575821.577    -9864406.87849  -7663601.73545  23575821.129    23575828.500
  24467167.352    -3633301.20449  -2495932.37345  24467166.683    24467173.205
 03  6 10 16  9  0.0000000  0 11G 5G30G26G29G17G 6G15G21G10G18G16
  24651548.728     7593773.17849   5897647.89145  24651548.328    24651557.745
  22645819.880     7076845.08249   5504536.92046  22645820.194    22645826.720
  22980428.157    -8531146.53649  -6623494.76745  22980428.301    22980436.399
  23080371.056    -5744191.13649  -4460703.50146  23080370.981    23080378.015
  20938140.413    -3147484.07049  -2446595.47347  20938139.937    20938146.262
  20325686.503    -3429620.16549  -2662891.54648  20325686.370    20325691.738
  24382631.235    -6144712.85949  -4763224.89945  24382630.565    24382639.919
  21460424.943    -5372649.46349  -3997268.96747  21460424.497    21460429.277
  22198785.557     5598991.80649   4348668.82146  22198784.771    22198791.270
  23555982.962    -9968659.49449  -7744837.45345  23555982.483    23555989.927
  24452561.800    -3710053.73949  -2555739.54045  24452561.314    24452567.800
 03  6 10 16  9 30.0000000  0 11G 5G30G26G29G17G 6G15G21G10G18G16
  24671751.149     7699936.35249   5980372.28945  24671750.632    24671760.119
  22664217.394     7173524.54049   5579871.47446  22664217.718    22664224.302
  22964262.287    -8616099.17149  -6689691.61545  22964262.402    22964270.359
  23072071.308    -5787806.47949  -4494689.44546  23072071.238    23072078.267
  20934292.752    -3167703.66149  -2462350.97747  20934292.281    20934298.593
  20322369.372    -3447052.13949  -2676474.91348  20322369.217    20322374.577
  24367120.167    -6226223.97849  -4826740.01545  24367119.514    24367128.824
  21451725.923    -5418363.19849  -4032890.05347  21451725.469    21451730.222
  22215002.734     5684213.30149   4415075.07746  22215001.894    22215008.426
  23536178.733   -10072731.27149  -7825932.26845  23536178.193    23536185.699
  24438028.217    -3786428.17349  -2615252.09245  24438027.746    24438034.213
 03  6 10 16 10  0.0000000  0 11G 5G30G26G29G17G 6G15G21G10G18G16
  24691943.788     7806048.35549   6063056.78845  24691943.203    24691952.752
  22682655.251     7270415.98249   5655371.19946  22682655.554    22682662.244
  22948147.636    -8700782.03549  -6755678.24645  22948147.837    22948155.594
  23063852.283    -5830997.83849  -4528345.02946  23063852.187    23063859.221
  20930486.283    -3187707.10349  -2477938.06347  20930485.786    20930492.069
  20319129.311    -3464078.83649  -2689742.47848  20319129.169    20319134.512
  24351626.724    -6307642.39349  -4890182.88145  24351626.080    24351635.413
  21443066.575    -5463868.92549  -4068349.05147  21443066.094    21443070.798
  22231282.893     5769765.96549   4481739.48846  22231282.083    22231288.604
  23516409.701   -10176618.34949  -7906883.15045  23516409.059    23516416.497
  24423567.384    -3862419.98949  -2674466.49145  24423566.777    24423573.373
 03  6 10 16 10 30.0000000  0 11G 5G30G26G29G17G 6G15G21G10G18G16
  24712125.613     7912103.14949   6145696.72645  24712124.922    24712134.554
  22701132.197     7367512.94349   5731031.06846  22701132.553    22701139.320
  22932084.372    -8785195.26049  -6821454.77045  22932084.588    22932092.149
  23055713.681    -5873766.30549  -4561671.07846  23055713.622    23055720.588
  20926720.236    -3207497.89549  -2493359.46047  20926719.743    20926725.982
  20315966.024    -3480702.12349  -2702695.70248  20315965.870    20315971.206
  24336150.286    -6388971.72649  -4953556.32645  24336149.564    24336158.857
  21434445.963    -5509170.56449  -4103649.03047  21434445.492    21434450.139
  22247624.815     5855643.41349   4548656.96146  22247623.990    22247630.561
  23496675.438   -10280322.02249  -7987691.09745  23496674.901    23496682.309
  24409179.125    -3938030.56249  -2733383.80545  24409178.507    24409185.059
 03  6 10 16 11  0.0000000  0 11G 5G30G26G29G17G 6G15G21G10G18G16
  24732295.784     8018097.56849   6228289.59445  24732295.059    24732304.821
  22719647.610     7464811.81349   5806848.28546  22719647.975    22719654.737
  22916073.038    -8869335.74149  -6887018.76445  22916073.183    22916080.696
  23047655.931    -5916110.40849  -4594666.44046  23047655.860    23047662.797
  20922994.492    -3227076.86149  -2508615.78947  20922993.993    20923000.216
  20312879.636    -3496921.22949  -2715333.98248  20312879.496    20312884.851
  24320690.531    -6470212.52449  -5016860.77845  24320689.847    24320699.211
  21425864.035    -5554269.07349  -4138790.71547  21425863.553    21425868.185
  22264027.928     5941842.13649   4615824.75046  22264027.115    22264033.673
  23476976.429   -10383840.81149  -8068354.97445  23476975.948    23476983.303
  24394863.930    -4013257.99149  -2792002.59945  24394863.367    24394869.828
 03  6 10 16 11 30.0000000  0 11G 5G30G26G29G17G 6G15G21G10G18G16
  24752454.233     8124030.81949   6310834.79445  24752453.552    24752463.385
  22738201.194     7562311.24349   5882821.76246  22738201.571    22738208.371
  22900114.501    -8953198.39549  -6952366.24345  22900114.621    22900122.177
  23039679.648    -5958026.12149  -4627328.00246  23039679.552    23039686.458
  20919309.244    -3246442.99049  -2523706.28847  20919308.744    20919314.977
  20309870.747    -3512733.23949  -2727655.04148  20309870.599    20309875.970
  24305248.088    -6551362.90449  -5080094.81245  24305247.557    24305256.717
  21417321.143    -5599162.24449  -4173772.39847  21417320.667    21417325.293
  22280491.962     6028361.00549   4683242.05246  22280491.137    22280497.711
  23457313.261   -10487171.17049  -8148872.02945  23457312.790    23457320.105
  24380622.303    -4088098.53349  -2850319.94745  24380621.856    24380628.121
 03  6 10 16 12  0.0000000  0 11G 5G30G26G29G17G 6G15G21G10G18G16
  24772600.559     8229899.97749   6393330.06645  24772599.995    24772609.744
  22756792.284     7660007.66749   5958948.74146  22756792.650    22756799.484
  22884209.403    -9036780.09349  -7017494.78845  22884209.532    22884217.040
  23031785.130    -5999511.94249  -4659654.57146  23031785.047    23031792.026
  20915664.253    -3265597.47149  -2538631.85747  20915663.777    20915670.012
  20306939.471    -3528137.13649  -2739658.09348  20306939.358    20306944.740
  24289822.778    -6632423.37149  -5143258.76245  24289822.266    24289831.298
  21408817.093    -5643851.38349  -4208595.10147  21408816.625    21408821.254
  22297016.232     6115196.59949   4750906.12246  22297015.417    22297021.982
  23437686.229   -10590311.64549  -8229241.13045  23437685.778    23437693.089
  24366454.594    -4162550.39849  -2908334.40045  24366454.195    24366460.372
 03  6 10 16 12 30.0000000  0 11G 5G30G26G29G17G 6G15G21G10G18G16
  24792734.565     8335703.78549   6475774.39144  24792733.937    24792743.559
  22775420.612     7757899.24349   6035227.80446  22775420.924    22775427.721
  22868358.693    -9120076.11649  -7082400.74245  22868358.825    22868366.337
  23023973.084    -6040564.27449  -4691643.35546  23023972.966    23023979.960
  20912059.798    -3284539.18249  -2553391.65847  20912059.323    20912065.530
  20304086.358    -3543130.51549  -2751341.25248  20304086.224    20304091.620
  24274414.916    -6713392.56549  -5206351.59745  24274414.283    24274423.255
  21400352.185    -5688334.67849  -4243257.41047  21400351.715    21400356.357
  22313600.468     6202347.01649   4818815.45946  22313599.666    22313606.225
  23418095.932   -10693258.83049  -8309459.58245  23418095.530    23418102.825
  24352361.523    -4236610.11649  -2966043.26845  24352361.121    24352367.458
 03  6 10 16 13  0.0000000  0 11G 5G30G26G29G17G 6G15G21G10G18G16
  24812855.206     8441437.80548   6558164.34844  24812854.916    24812863.937
  22794085.081     7855981.14849   6111655.16646  22794085.393    22794092.187
  22852562.740    -9203084.82549  -7147082.79645  22852562.850    22852570.307
  23016243.453    -6081183.11249  -4723294.35646  23016243.406    23016250.439
  20908495.458    -3303270.00349  -2567987.09847  20908494.970    20908501.194
  20301311.272    -3557713.80949  -2762704.87148  20301311.135    20301316.523
  24259024.041    -6794272.14649  -5269374.59945  24259023.388    24259032.273
  21391926.174    -5732613.99349  -4277760.77447  21391925.698    21391930.297
  22330243.778     6289807.93449   4886966.78946  22330242.944    22330249.518
  23398542.494   -10796012.51649  -8389527.28445  23398542.166    23398549.343
  24338342.986    -4310277.44449  -3023446.34345  24338342.736    24338349.000
 03  6 10 16 13 30.0000000  0 10G30G26G29G17G 6G15G21G10G18G16
  22812785.599     7954252.29349   6188229.98646  22812785.897    22812792.701
  22836822.333    -9285800.83949  -7211536.76945  22836822.417    22836829.950
  23008597.310    -6121364.14849  -4754604.22846  23008597.199    23008604.156
  20904971.493    -3321788.66149  -2582417.22447  20904970.990    20904977.239
  20298614.863    -3571883.62649  -2773746.30048  20298614.721    20298620.128
  24243650.536    -6875060.09549  -5332326.20245  24243649.851    24243658.911
  21383539.247    -5776687.85449  -4312104.03347  21383538.774    21383543.334
  22346945.987     6377578.65649   4955359.54346  22346945.202    22346951.709
  23379026.616   -10898569.01349  -8469441.32545  23379026.277    23379033.367
  24324400.001    -4383548.09549  -3080540.34145  24324399.828    24324406.181
 03  6 10 16 14  0.0000000  0 10G30G26G29G17G 6G15G21G10G18G16
  22831521.463     8052709.61249   6264949.87046  22831521.786    22831528.575
  22821138.377    -9368220.49849  -7275759.82245  22821138.485    22821145.895
  23001034.808    -6161105.18849  -4785571.22846  23001034.715    23001041.617
  20901487.760    -3340095.71649  -2596682.46347  20901487.281    20901493.524
  20295997.389    -3585638.60249  -2784464.47848  20295997.273    20296002.672
  24228294.491    -6955756.40449  -5395206.40845  24228293.871    24228302.784
  21375191.263    -5820556.89549  -4346287.70847  21375190.793    21375195.348
  22363706.608     6465655.99349   5023991.19446  22363705.799    22363712.317
  23359548.662   -11000926.29849  -8549200.16646  23359548.271    23359555.301
  24310532.920    -4456419.83049  -3137323.51445  24310532.738    24310539.118
 03  6 10 16 14 30.0000000  0 10G30G26G29G17G 6G15G21G10G18G16
  22850292.034     8151349.24749   6341811.84346  22850292.352    22850299.193
  22805511.225    -9450341.28649  -7339749.99245  22805511.363    22805518.713
  22993556.281    -6200405.09449  -4816194.48546  22993556.233    22993563.104
  20898044.123    -3358192.23049  -2610783.63747  20898043.645    20898049.865
  20293458.916    -3598978.43349  -2794859.17048  20293458.791    20293464.211
  24212955.773    -7036361.75649  -5458015.73545  24212955.180    24212964.015
  21366882.174    -5864221.47749  -4380312.06347  21366881.696    21366886.263
  22380524.854     6554036.14449   5092858.82746  22380524.055    22380530.576
  23340108.740   -11103083.05449  -8628802.71746  23340108.429    23340115.438
  24296742.103    -4528891.43849  -3193794.87945  24296741.835    24296748.145
 03  6 10 16 15  0.0000000  0 10G30G26G29G17G 6G15G21G10G18G16
  22869096.581     8250167.23249   6418812.76046  22869096.903    22869103.777
  22789941.585    -9532160.58249  -7403505.21545  22789941.732    22789949.023
  22986161.953    -6239262.65049  -4846473.07246  22986161.891    22986168.717
  20894640.374    -3376079.16049  -2624721.50947  20894639.902    20894646.099
  20290999.553    -3611902.52149  -2804929.90548  20290999.423    20291004.838
  24197634.260    -7116876.80449  -5520754.69145  24197633.658    24197642.403
  21358611.855    -5907682.41049  -4414177.74947  21358611.381    21358615.914
  22397399.975     6642715.36949   5161959.49446  22397399.243    22397405.723
  23320707.229   -11205038.25249  -8708248.22146  23320706.891    23320713.909
  24283027.588    -4600961.60849  -3249953.42645  24283027.290    24283033.551
 03  6 10 16 15 30.0000000  0 10G30G26G29G17G 6G15G21G10G18G16
  22887934.687     8349162.16449   6495951.59246  22887935.032    22887941.939
  22774430.166    -9613673.29949  -7467021.54245  22774430.370    22774437.697
  22978852.386    -6277674.18849  -4876404.11046  22978852.402    22978859.210
  20891276.665    -3393755.65249  -2638495.39347  20891276.190    20891282.385
  20288619.872    -3624408.00349  -2814674.45648  20288619.731    20288625.150
  24182330.042    -7197300.26249  -5583422.26945  24182329.502    24182338.339
  21350380.495    -5950938.51949  -4447883.78047  21350379.990    21350384.554
  22414331.882     6731692.69549   5231292.46346  22414331.121    22414337.626
  23301344.721   -11306788.48649  -8787534.03446  23301344.435    23301351.382
  24269390.143    -4672626.64449  -3305796.25645  24269389.781    24269396.243
 03  6 10 16 16  0.0000000  0 10G30G26G29G17G 6G15G21G10G18G16
  22906806.043     8448330.89449   6573225.82846  22906806.328    22906813.248
  22758977.843    -9694875.95849  -7530296.26945  22758977.978    22758985.259
  22971628.109    -6315637.86549  -4905986.15446  22971628.143    22971634.883
  20887952.963    -3411221.90749  -2652105.46747  20887952.491    20887958.697
  20286320.061    -3636493.67749  -2824091.88348  20286319.913    20286325.351
  24167043.405    -7277631.96749  -5646018.37145  24167042.805    24167051.736
  21342187.933    -5993990.54849  -4481430.83847  21342187.461    21342191.996
  22431319.872     6820965.03149   5300855.28146  22431319.061    22431325.650
  23282021.691   -11408331.67849  -8866658.51645  23282021.392    23282028.205
  24255830.176    -4743884.49649  -3361321.83245  24255829.799    24255836.303
 03  6 10 16 16 30.0000000  0 10G30G26G29G17G 6G15G21G10G18G16
  22925709.594     8547669.44449   6650632.39346  22925709.881    22925716.802
  22743584.857    -9775766.06649  -7593327.43545  22743584.993    22743592.402
  22964489.363    -6353152.51949  -4935218.32946  22964489.385    22964496.033
  20884668.995    -3428479.37649  -2665552.84547  20884668.515    20884674.703
  20284100.181    -3648159.20249  -2833181.91648  20284100.040    20284105.488
  24151774.044    -7357872.90849  -5708543.74245  24151773.514    24151782.235
  21334034.227    -6036838.42549  -4514818.78647  21334033.756    21334038.301
  22448363.291     6910528.79549   5370645.19746  22448362.512    22448369.140
  23262738.253   -11509666.86249  -8945620.91246  23262737.892    23262744.665
  24242347.851    -4814733.90749  -3416529.12945  24242347.572    24242353.975
 03  6 10 16 17  0.0000000  0 10G30G26G29G17G 6G15G21G10G18G16
  22944645.127     8647175.69749   6728169.62946  22944645.373    22944652.372
  22728252.280    -9856339.12849  -7656111.56145  22728252.448    22728259.836
  22957436.554    -6390215.14049  -4964098.28146  22957436.528    22957443.164
  20881424.813    -3445527.74849  -2678837.29747  20881424.331    20881430.512
  20281960.694    -3659402.32449  -2841942.80948  20281960.531    20281966.017
  24136522.187    -7438021.89049  -5770997.44345  24136521.753    24136530.391
  21325919.441    -6079482.01449  -4548047.54447  21325918.984    21325923.524
  22465461.864     7000382.26049   5440660.85346  22465461.115    22465467.758
  23243494.891   -11610791.11449  -9024418.95346  23243494.523    23243501.292
  24228943.939    -4885171.90649  -3471415.85545  24228943.771    24228949.981
 03  6 10 16 17 30.0000000  0 10G30G26G29G17G 6G15G21G10G18G16
  22963611.940     8746846.48149   6805835.07646  22963612.152    22963619.128
  22712980.550    -9936591.97649  -7718646.14745  22712980.740    22712988.244
  22950470.100    -6426824.02349  -4992624.65446  22950470.040    22950476.637
  20878220.368    -3462367.33249  -2691959.05547  20878219.879    20878226.052
  20279901.776    -3670222.12949  -2850373.84448  20279901.616    20279907.073
  24121287.889    -7518078.95949  -5833379.53145  24121287.440    24121296.232
  21317843.452    -6121921.51649  -4581117.28347  21317843.014    21317847.540
  22482614.991     7090522.06349   5510899.59746  22482614.180    22482620.839
  23224291.973   -11711702.86949  -9103051.41146  23224291.608    23224298.369
  24215618.764    -4955196.40249  -3525980.37745  24215618.566    24215624.702
 03  6 10 16 18  0.0000000  0 10G30G26G29G17G 6G15G21G10G18G16
  22982609.285     8846678.05849   6883625.80946  22982609.540    22982616.486
  22697770.461   -10016521.75249  -7780929.01546  22697770.590    22697777.962
  22943590.224    -6462977.66149  -5020796.29746  22943590.153    22943596.839
  20875055.452    -3478999.03449  -2704918.83147  20875054.970    20875061.118
  20277923.546    -3680617.92249  -2858474.48248  20277923.416    20277928.855
  24106070.844    -7598044.82349  -5895690.54645  24106070.325    24106078.954
  21309806.210    -6164157.73549  -4614028.62247  21309805.758    21309810.266
  22499821.842     7180944.78449   5581358.81146  22499821.088    22499827.752
  23205129.790   -11812400.61049  -9181517.11746  23205129.424    23205136.173
  24202372.635    -5024806.09849  -3580221.68645  24202372.427    24202378.480
 03  6 10 16 18 30.0000000  0 10G30G26G29G17G 6G15G21G10G18G16
  23001636.928     8946668.54749   6961540.38546  23001637.218    23001644.182
  22682622.526   -10096123.91749  -7842956.60846  22682622.717    22682630.107
  22936797.661    -6498673.03649  -5048610.86746  22936797.516    22936804.203
  20871930.254    -3495422.36049  -2717716.23247  20871929.764    20871935.904
  20276026.469    -3690587.23249  -2866242.79448  20276026.339    20276031.773
  24090871.347    -7677918.08049  -5957929.40045  24090870.779    24090879.589
  21301807.828    -6206189.42849  -4646780.57947  21301807.366    21301811.885
  22517082.179     7271648.56549   5652037.05546  22517081.469    22517088.137
  23186008.909   -11912881.31449  -9259813.70446  23186008.570    23186015.201
  24189205.808    -5093997.95749  -3634137.41445  24189205.632    24189211.758
 03  6 10 16 19  0.0000000  0 10G30G26G29G17G 6G15G21G10G18G16
  23020694.233     9046815.06749   7039576.52346  23020694.514    23020701.539
  22667537.657   -10175394.80649  -7904726.05045  22667537.850    22667545.296
  22930092.695    -6533908.13449  -5076066.77546  22930092.577    22930099.169
  20868844.708    -3511636.97449  -2730351.00347  20868844.200    20868850.379
  20274210.863    -3700128.51749  -2873677.57948  20274210.716    20274216.156
  24075689.415    -7757698.68449  -6020096.05445  24075689.107    24075697.851
  21293848.352    -6248016.72749  -4679373.26947  21293847.906    21293852.429
  22534395.593     7362630.85149   5722932.30746  22534394.863    22534401.536
  23166929.732   -12013142.83249  -9337939.51146  23166929.399    23166936.007
  24176118.972    -5162769.40149  -3687725.54945  24176118.802    24176124.971
 03  6 10 16 19 30.0000000  0 10G30G26G29G17G 6G15G21G10G18G16
  23039780.451     9147113.16449   7117730.77946  23039780.741    23039787.768
  22652516.239   -10254332.37249  -7966235.78645  22652516.420    22652523.864
  22923475.354    -6568682.33949  -5103163.54346  22923475.199    22923481.838
  20865798.462    -3527644.90949  -2742824.73047  20865797.969    20865804.184
  20272476.616    -3709242.12049  -2880779.10248  20272476.476    20272481.911
  24060525.004    -7837388.11149  -6082191.66545  24060524.576    24060533.525
  21285927.506    -6289640.97649  -4711807.73647  21285927.059    21285931.592
  22551761.192     7453887.39149   5794041.26446  22551760.402    22551767.143
  23147892.349   -12113184.79549  -9415894.22446  23147892.038    23147898.646
  24163112.275    -5231119.86049  -3740985.65145  24163112.176    24163118.212
 03  6 10 16 20  0.0000000  0 10G30G26G29G17G 6G15G21G10G18G16
  23058895.277     9247561.76649   7196002.31546  23058895.558    23058902.642
  22637559.189   -10332931.33049  -8027481.65645  22637559.374    22637566.904
  22916946.454    -6602991.88449  -5129898.24446  22916946.268    22916952.920
  20862791.819    -3543444.78149  -2755136.32247  20862791.330    20862797.570
  20270824.392    -3717924.91649  -2887544.93448  20270824.250    20270829.687
  24045378.473    -7916983.98349  -6144214.38045  24045378.041    24045386.956
  21278045.709    -6331060.04049  -4744082.31547  21278045.266    21278049.814
  22569178.743     7545417.47749   5865363.37146  22569178.003    22569184.768
  23128897.510   -12213003.22849  -9493674.75546  23128897.187    23128903.822
  24150186.366    -5299045.58849  -3793914.76745  24150186.314    24150192.460
 03  6 10 16 20 30.0000000  0 10G30G26G29G17G 6G15G21G10G18G16
  23078038.037     9348156.97149   7274388.08746  23078038.326    23078045.397
  22622667.149   -10411189.01349  -8088461.59845  22622667.413    22622674.982
  22910506.173    -6636835.78949  -5156270.12046  22910506.016    22910512.572
  20859824.651    -3559037.43249  -2767286.44047  20859824.154    20859830.408
  20269254.205    -3726176.56349  -2893974.80848  20269254.037    20269259.477
  24030249.442    -7996487.26949  -6206164.93545  24030249.046    24030257.931
  21270202.733    -6372275.33149  -4776198.11747  21270202.285    21270206.828
  22586647.702     7637217.30749   5936895.69046  22586646.950    22586653.758
  23109945.327   -12312597.04549  -9571280.25546  23109944.998    23109951.753
  24137341.806    -5366545.02549  -3846511.73645  24137341.666    24137347.698
 03  6 10 16 21  0.0000000  0 10G30G26G29G17G 6G15G21G10G18G16
  23097208.003     9448895.32549   7352885.40746  23097208.346    23097215.344
  22607840.718   -10489102.43949  -8149173.31245  22607840.947    22607848.482
  22904154.854    -6670212.53049  -5182277.97346  22904154.694    22904161.222
  20856896.736    -3574423.84749  -2779275.85747  20856896.241    20856902.507
  20267766.184    -3733996.21849  -2900068.06448  20267766.037    20267771.475
  24015138.052    -8075898.37149  -6268043.67645  24015137.466    24015146.467
  21262398.382    -6413287.47249  -4808155.62347  21262397.908    21262402.478
  22604167.386     7729283.55049   6008635.52846  22604166.521    22604173.364
  23091036.194   -12411964.88049  -9648709.67846  23091035.859    23091042.712
  24124578.463    -5433616.70849  -3898775.38845  24124578.302    24124584.288
 03  6 10 16 21 30.0000000  0 10G30G26G29G17G 6G15G21G10G18G16
  23116404.497     9549772.90949   7431491.20946  23116404.766    23116411.815
  22593080.306   -10566668.96449  -8209614.71246  22593080.505    22593088.056
  22897892.524    -6703121.03749  -5207920.96146  22897892.419    22897898.945
  20854007.800    -3589605.24249  -2791105.52347  20854007.321    20854013.568
  20266360.488    -3741383.36549  -2905824.29448  20266360.331    20266365.770
  24000044.064    -8155218.06249  -6329851.20845  24000043.436    24000052.322
  21254632.519    -6454097.28049  -4839955.46047  21254632.064    21254636.617
  22621737.064     7821612.52049   6080580.12246  22621736.198    22621743.045
  23072170.257   -12511105.46149  -9725962.03346  23072169.959    23072176.773
  24111896.790    -5500259.34849  -3950704.73645  24111896.751    24111902.741
 03  6 10 16 22  0.0000000  0 10G30G26G29G17G 6G15G21G10G18G16
  23135627.493     9650789.98449   7510205.69146  23135627.768    23135634.933
  22578387.236   -10643882.01449  -8269780.70246  22578387.408    22578394.906
  22891720.385    -6735556.30649  -5233195.21446  22891720.232    22891726.732
  20851158.503    -3604578.58249  -2802773.07247  20851158.014    20851164.253
  20265037.915    -3748333.75449  -2911240.19848  20265037.746    20265043.175
  23984968.019    -8234443.21549  -6391585.03645  23984967.493    23984976.245
  21246905.851    -6494701.54549  -4871595.16547  21246905.383    21246909.881
  22639356.803     7914204.83749   6152729.97346  22639355.970    22639362.810
  23053348.548   -12610014.05049  -9803033.60946  23053348.219    23053355.043
  24099297.701    -5566467.89949  -4002295.82845  24099297.583    24099303.630
 03  6 10 16 22 30.0000000  0 10G30G26G29G17G 6G15G21G10G18G16
  23154876.033     9751941.47949   7589024.91546  23154876.293    23154883.442
  22563761.644   -10720740.14849  -8329670.14146  22563761.833    22563769.315
  22885638.140    -6767518.45349  -5258100.79846  22885638.032    22885644.547
  20848348.275    -3619346.40649  -2814280.48347  20848347.789    20848354.043
  20263798.259    -3754848.27849  -2916316.48148  20263798.085    20263803.520
  23969909.671    -8313575.74649  -6453246.71345  23969909.077    23969917.789
  21239217.839    -6535102.31849  -4903076.29347  21239217.366    21239221.859
  22657025.722     8007055.70249   6225081.26946  22657024.918    22657031.723
  23034571.010   -12708690.51449  -9879924.31646  23034570.738    23034577.455
  24086781.096    -5632242.37949  -4053548.67645  24086781.058    24086787.070
 03  6 10 16 23  0.0000000  0 10G30G26G29G17G 6G15G21G10G18G16
  23174149.421     9853223.70449   7667946.01546  23174149.719    23174156.915
  22549204.117   -10797240.71749  -8389280.95046  22549204.261    22549211.743
  22879646.126    -6799006.64649  -5282637.04546  22879645.961    22879652.596
  20845576.985    -3633909.77949  -2825628.57147  20845576.498    20845582.761
  20262641.578    -3760926.50849  -2921052.78248  20262641.425    20262646.864
  23954868.733    -8392616.32049  -6514836.72045  23954868.090    23954876.774
  21231568.359    -6575300.59549  -4934399.61447  21231567.902    21231572.414
  22674743.220     8100161.27549   6297631.03446  22674742.412    22674749.166
  23015837.863   -12807133.84149  -9956633.36446  23015837.576    23015844.244
  24074347.542    -5697581.53249  -4104462.31345  24074347.426    24074353.598
 03  6 10 16 23 30.0000000  0 10G30G26G29G17G 6G15G21G10G18G16
  23193447.175     9954633.75449   7746966.72746  23193447.471    23193454.732
  22534715.182   -10873380.32249  -8448610.48946  22534715.321    22534722.908
  22873744.654    -6830018.76749  -5306802.32346  22873744.486    22873751.175
  20842844.591    -3648268.74349  -2836817.37647  20842844.109    20842850.343
  20261568.210    -3766567.17049  -2925448.12348  20261568.078    20261573.503
  23939845.326    -8471564.71949  -6576354.90445  23939844.700    23939853.448
  21223957.344    -6615296.60549  -4965565.32947  21223956.900    21223961.425
  22692508.703     8193518.99149   6370377.28646  22692507.884    22692514.560
  22997149.381   -12905341.88149 -10033159.03046  22997149.085    22997155.816
  24061997.156    -5762483.23249  -4155035.06945  24061997.067    24062003.142
 03  6 10 16 24  0.0000000  0 10G30G26G29G17G 6G15G21G10G18G16
  23212769.256    10056171.42849   7826086.88446  23212769.544    23212776.844
  22520296.214   -10949152.33649  -8507653.59246  22520296.383    22520303.924
  22867934.695    -6860550.26849  -5330593.09046  22867934.579    22867941.285
  20840151.537    -3662420.85749  -2847845.00647  20840151.074    20840157.303
  20260578.858    -3771766.17349  -2929499.31348  20260578.733    20260584.176
  23924839.995    -8550418.09049  -6637799.03345  23924839.319    23924848.042
  21216385.526    -6655086.81749  -4996570.69247  21216385.102    21216389.594
  22710322.185     8287129.26649   6443320.31146  22710321.362    22710328.007
  22978506.688   -13003309.77249 -10109497.59746  22978506.421    22978513.086
  24049730.890    -5826942.79049  -4205263.30945  24049730.797    24049736.854
 03  6 10 16 24 30.0000000  0 10G30G26G29G17G 6G15G21G10G18G16
  23232114.503    10157830.75049   7905301.82746  23232114.781    23232122.086
  22505947.323   -11024556.60049  -8566410.15246  22505947.417    22505954.954
  22862216.005    -6890602.33149  -5354010.26446  22862215.867    22862222.550
  20837497.282    -3676369.35549  -2858713.96347  20837496.801    20837503.015
  20259673.193    -3776525.59049  -2933207.96948  20259673.070    20259678.529
  23909852.241    -8629179.35549  -6699171.37445  23909851.614    23909860.285
  21208852.271    -6694674.52849  -5027418.25047  21208851.827    21208856.332
  22728182.558     8380985.97849   6516455.37846  22728181.757    22728188.315
  22959909.456   -13101038.92049 -10185650.10746  22959909.176    22959915.808
  24037548.700    -5890961.08049  -4255147.70445  24037548.492    24037554.450
 03  6 10 16 25  0.0000000  0 10G30G26G29G17G 6G15G21G10G18G16
  23251482.473    10259610.05549   7984610.25546  23251482.823    23251490.081
  22491669.135   -11099588.36349  -8624876.44746  22491669.241    22491676.830
  22856589.052    -6920171.83749  -5377051.39946  22856588.943    22856595.680
  20834881.887    -3690113.42249  -2869423.62847  20834881.402    20834887.609
  20258851.666    -3780842.68449  -2936571.95548  20258851.549    20258857.028
  23894882.294    -8707846.97949  -6760470.76245  23894881.627    23894890.248
  21201357.633    -6734058.91449  -5058107.34447  21201357.196    21201361.725
  22746089.545     8475087.70449   6589781.35946  22746088.731    22746095.302
  22941358.280   -13198526.02149 -10261614.01946  22941357.929    22941364.551
  24025451.134    -5954534.74549  -4304685.59945  24025450.847    24025456.932
 03  6 10 16 25 30.0000000  0 10G30G26G29G17G 6G15G21G10G18G16
  23270872.895    10361506.59849   8064010.05646  23270873.249    23270880.520
  22477462.624   -11174244.06349  -8683049.69346  22477462.696    22477470.312
  22851054.290    -6949257.08249  -5399715.17346  22851054.184    22851060.941
  20832305.458    -3703652.82449  -2879973.80947  20832304.975    20832311.178
  20258114.613    -3784716.38449  -2939590.43148  20258114.469    20258119.905
  23879930.132    -8786420.80049  -6821697.03845  23879929.439    23879938.126
  21193901.829    -6773239.57549  -5088637.70647  21193901.377    21193905.921
  22764042.667     8569431.76849   6663296.16446  22764041.852    22764048.430
  22922853.547   -13295768.82849 -10337387.55146  22922853.180    22922859.754
  24013438.466    -6017661.98249  -4353875.62345  24013438.122    24013444.205
 03  6 10 16 26  0.0000000  0 10G30G26G29G17G 6G15G21G10G18G16
  23290285.057    10463517.32849   8143498.82646  23290285.350    23290292.561
  22463328.324   -11248520.21749  -8740927.19746  22463328.401    22463336.062
  22845612.062    -6977856.11549  -5422000.09346  22845611.962    22845618.743
  20829767.948    -3716987.57349  -2890364.52647  20829767.452    20829773.635
  20257462.133    -3788145.47949  -2942262.46948  20257461.961    20257467.401
  23864995.814    -8864900.49249  -6882849.97745  23864995.218    23865003.917
  21186484.738    -6812216.65149  -5119009.43947  21186484.272    21186488.824
  22782041.429     8664015.76549   6736997.93846  22782040.662    22782047.238
  22904395.680   -13392765.45549 -10412969.26846  22904395.258    22904401.825
  24001511.130    -6080340.58249  -4402716.05045  24001510.780    24001516.903
 03  6 10 16 26 30.0000000  0 10G30G26G29G17G 6G15G21G10G18G16
  23309718.410    10565639.83349   8223074.71546  23309718.777    23309725.982
  22449266.958   -11322413.19149  -8798506.12746  22449267.036    22449274.659
  22840262.703    -7005967.04449  -5443904.66246  22840262.576    22840269.356
  20827269.267    -3730118.12749  -2900596.12647  20827268.792    20827274.966
  20256894.511    -3791128.51949  -2944586.93348  20256894.354    20256899.781
  23850079.522    -8943285.80349  -6943929.35645  23850078.894    23850087.603
  21179106.514    -6850989.58049  -5149222.10147  21179106.040    21179110.583
  22800085.326     8758837.09149   6810884.62446  22800084.630    22800091.195
  22885984.994   -13489513.88249 -10488357.59146  22885984.583    22885991.120
  23989669.556    -6142568.30649  -4451205.12245  23989669.257    23989675.366
 03  6 10 16 27  0.0000000  0 10G30G26G29G17G 6G15G21G10G18G16
  23329172.156    10667869.27949   8302733.92346  23329172.499    23329179.736
  22435278.801   -11395921.20049  -8855785.09146  22435278.979    22435286.423
  22835006.288    -7033589.89349  -5465428.90046  22835006.115    22835012.873
  20824809.085    -3743046.52649  -2910670.20747  20824808.605    20824814.767
  20256411.640    -3793666.06949  -2946564.25548  20256411.488    20256416.939
  23835180.910    -9021578.34249  -7004936.44645  23835180.199    23835189.012
  21171766.768    -6889560.08649  -5179277.02447  21171766.311    21171770.845
  22818173.600     8853891.36249   6884952.84346  22818172.838    22818179.459
  22867621.635   -13586013.72849 -10563552.21846  22867621.215    22867627.748
  23977913.890    -6204344.96149  -4499342.73745  23977913.645    23977919.559
 03  6 10 16 27 30.0000000  0 10G30G26G29G17G 6G15G21G10G18G16
  23348645.809    10770203.38249   8382474.65946  23348646.118    23348653.448
  22421364.689   -11469040.32549  -8912761.02746  22421364.862    22421372.261
  22829843.108    -7060722.29049  -5486570.95646  22829842.968    22829849.727
  20822387.423    -3755772.38149  -2920586.45747  20822386.961    20822393.156
  20256013.799    -3795756.54849  -2948193.20948  20256013.683    20256019.132
  23820299.934    -9099777.36649  -7065870.66245  23820299.271    23820308.198
  21164465.669    -6927927.80249  -5209173.93047  21164465.206    21164469.721
  22836305.853     8949176.52549   6959200.98946  22836305.055    22836311.627
  22849306.003   -13682262.80449 -10638551.43346  22849305.625    22849312.080
  23966244.491    -6265668.22349  -4547127.07545  23966244.215    23966250.094
 03  6 10 16 28  0.0000000  0 10G30G26G29G17G 6G15G21G10G18G16
  23368138.966    10872640.00549   8462295.28446  23368139.264    23368146.555
  22407525.366   -11541766.40849  -8969430.69646  22407525.493    22407532.900
  22824773.705    -7087361.82049  -5507328.96846  22824773.608    22824780.316
  20820004.465    -3768294.80849  -2930344.19147  20820004.001    20820010.204
  20255701.503    -3797397.88949  -2949472.19148  20255701.390    20255706.818
  23805437.054    -9177881.90849  -7126731.26445  23805436.489    23805445.303
  21157203.278    -6966091.80749  -5238912.10047  21157202.803    21157207.342
  22854481.607     9044690.62449   7033627.53846  22854480.853    22854487.427
  22831038.660   -13778258.30049 -10713353.06346  22831038.271    22831044.745
  23954661.810    -6326535.35749  -4594555.97645  23954661.493    23954667.512
 03  6 10 16 28 30.0000000  0 10G30G26G29G17G 6G15G21G10G18G16
  23387651.082    10975176.60949   8542193.82346  23387651.446    23387658.723
  22393761.557   -11614095.45649  -9025790.99646  22393761.761    22393769.106
  22819798.580    -7113506.37349  -5527701.27746  22819798.482    22819805.121
  20817660.325    -3780613.47649  -2939943.15547  20817659.854    20817666.068
  20255474.936    -3798588.58949  -2950400.02748  20255474.827    20255480.265
  23790592.310    -9255891.26049  -7187517.67945  23790591.786    23790600.540
  21149979.783    -7004051.44549  -5268491.01947  21149979.324    21149983.867
  22872700.462     9140431.31749   7108230.63946  22872699.740    22872706.293
  22812819.977   -13873997.76849 -10787955.19446  22812819.584    22812826.033
  23943166.416    -6386943.86549  -4641627.51045  23943166.051    23943172.104
 03  6 10 16 29  0.0000000  0 10G30G26G29G17G 6G15G21G10G18G16
  23407181.272    11077807.73749   8622166.00946  23407181.645    23407188.921
  22380073.486   -11686026.86149  -9081841.43246  22380073.677    22380081.012
  22814917.417    -7139156.98749  -5547688.71846  22814917.302    22814923.972
  20815354.322    -3792731.65949  -2949385.90047  20815353.850    20815360.049
  20255333.783    -3799330.34449  -2950978.04048  20255333.674    20255339.107
  23775765.259    -9333807.98149  -7248231.94245  23775764.740    23775773.422
  21142794.634    -7041809.65849  -5297912.98447  21142794.158    21142798.690
  22890961.539     9236393.34049   7183006.21246  22890960.778    22890967.341
  22794649.840   -13969482.03049 -10862358.46246  22794649.433    22794655.955
  23931758.244    -6446894.69349  -4688342.45845  23931757.819    23931763.817
 03  6 10 16 29 30.0000000  0 10G30G26G29G17G 6G15G21G10G18G16
  23426729.403    11180533.21549   8702211.67545  23426729.753    23426737.032
  22366462.278   -11757554.50649  -9137577.29046  22366462.419    22366469.767
  22810130.980    -7164309.30549  -5567287.90146  22810130.915    22810137.534
  20813086.985    -3804646.61549  -2958670.31247  20813086.530    20813092.701
  20255278.839    -3799619.27349  -2951203.22548  20255278.732    20255284.172
  23760956.254    -9411629.40549  -7308871.97745  23760955.733    23760964.438
  21135648.310    -7079363.79449  -5327175.96047  21135647.855    21135652.375
  22909264.740     9332576.72649   7257954.22246  22909263.936    22909270.468
  22776529.114   -14064706.38049 -10936559.25546  22776528.767    22776535.294
  23920437.915    -6506383.34849  -4734697.28045  23920437.515    23920443.558
 03  6 10 16 30  0.0000000  0 10G30G26G29G17G 6G15G21G10G18G16
  23446294.606    11283349.09949   8782327.71745  23446294.998    23446302.390
  22352928.311   -11828675.79249  -9192996.52146  22352928.490    22352935.826
  22805439.576    -7188962.65149  -5586498.30846  22805439.473    22805446.058
  20810858.133    -3816359.33749  -2967797.14347  20810857.683    20810863.836
  20255310.110    -3799455.20649  -2951075.43648  20255310.001    20255315.430
  23746165.346    -9489356.38849  -7369438.47345  23746164.862    23746173.330
  21128540.658    -7116714.59549  -5356280.50847  21128540.206    21128544.751
  22927609.361     9428978.24249   7333072.19846  22927608.547    22927615.120
  22758458.127   -14159670.00349 -11010556.88446  22758457.777    22758464.300
  23909205.894    -6565408.37949  -4780690.90445  23909205.612    23909211.597
 03  6 10 16 30 30.0000000  0 10G30G26G29G17G 6G15G21G10G18G16
  23465876.385    11386251.80849   8862511.47545  23465876.751    23465884.260
  22339472.209   -11899388.44049  -9248097.32746  22339472.385    22339479.642
  22800843.263    -7213116.31749  -5605319.33146  22800843.174    22800849.776
  20808667.472    -3827871.26749  -2976767.50347  20808667.030    20808673.195
  20255427.623    -3798837.96549  -2950594.50948  20255427.479    20255432.903
  23731392.213    -9566989.48449  -7429931.76845  23731391.730    23731400.181
  21121471.540    -7153863.09849  -5385227.40447  21121471.100    21121475.628
  22945994.819     9525594.20049   7408357.26446  22945993.999    22946000.580
  22740436.931   -14254372.01249 -11084350.65546  22740436.623    22740443.109
  23898062.192    -6623969.03149  -4826322.61545  23898061.817    23898067.978
 03  6 10 16 31  0.0000000  0 10G30G26G29G17G 6G15G21G10G18G16
  23485474.362    11489239.04649   8942761.13445  23485474.745    23485482.278
  22326094.671   -11969688.26949  -9302876.39446  22326094.856    22326102.078
  22796342.554    -7236768.12349  -5623749.29346  22796342.461    22796348.988
  20806515.183    -3839181.68849  -2985580.82647  20806514.750    20806520.929
  20255631.648    -3797766.00349  -2949759.23648  20255631.508    20255636.941
  23716637.087    -9644527.89249  -7490351.24945  23716636.634    23716645.024
  21114441.117    -7190808.33349  -5414015.89747  21114440.677    21114445.178
  22964420.713     9622422.42949   7483807.75946  22964419.873    22964426.553
  22722465.933   -14348809.84749 -11157938.53846  22722465.625    22722472.197
  23887007.181    -6682062.89649  -4871590.57945  23887006.870    23887013.217
 03  6 10 16 31 30.0000000  0 10G30G26G29G17G 6G15G21G10G18G16
  23505087.862    11592308.26449   9023074.65445  23505088.255    23505095.895
  22312796.309   -12039571.64849  -9357330.94446  22312796.463    22312803.802
  22791937.672    -7259916.08349  -5641786.61046  22791937.530    22791944.040
  20804401.376    -3850289.97149  -2994236.63447  20804400.933    20804407.156
  20255922.504    -3796237.68749  -2948568.35948  20255922.347    20255927.798
  23701900.102    -9721971.14149  -7550696.56545  23701899.666    23701908.022
  21107449.457    -7227549.78149  -5442645.56747  21107449.017    21107453.519
  22982886.571     9719460.93649   7559422.11646  22982885.689    22982892.452
  22704545.760   -14442981.04549 -11231318.65946  22704545.470    22704551.996
  23876041.525    -6739687.81249  -4916493.12045  23876041.281    23876047.596
 03  6 10 16 32  0.0000000  0 10G30G26G29G17G 6G15G21G10G18G16
  23524716.423    11695456.48149   9103449.74645  23524716.817    23524724.593
  22299577.727   -12109035.49449  -9411458.55046  22299577.914    22299585.292
  22787628.864    -7282558.98049  -5659430.37546  22787628.772    22787635.222
  20802325.742    -3861197.48449  -3002735.98747  20802325.290    20802331.540
  20256300.319    -3794252.23049  -2947021.25548  20256300.175    20256305.644
  23687181.212    -9799319.28549  -7610967.76045  23687180.716    23687189.190
  21100496.456    -7264088.03749  -5471116.90747  21100496.021    21100500.531
  23001391.832     9816706.64949   7635197.94846  23001390.959    23001397.795
  22686676.663   -14536883.94549 -11304489.70146  22686676.331    22686682.834
  23865165.445    -6796842.24549  -4961029.00145  23865165.160    23865171.596
 03  6 10 16 32 30.0000000  0 10G30G26G29G17G 6G15G21G10G18G16
  23544359.474    11798680.56149   9183883.98745  23544359.788    23544367.607
  22286439.656   -12178076.63249  -9465256.77446  22286439.828    22286447.208
  22783416.486    -7304695.31249  -5676679.41346  22783416.399    22783422.772
  20800288.352    -3871904.25949  -3011078.92047  20800287.900    20800294.116
  20256765.258    -3791808.95549  -2945117.41848  20256765.143    20256770.611
  23672480.394    -9876572.34249  -7671164.86145  23672479.863    23672488.376
  21093582.142    -7300423.07749  -5499429.90947  21093581.687    21093586.179
  23019936.008     9914156.77949   7711133.07446  23019935.150    23019942.012
  22668858.820   -14630517.21449 -11377450.62646  22668858.486    22668864.961
  23854379.295    -6853524.41849  -5005196.90245  23854379.007    23854385.475
 03  6 10 16 33  0.0000000  0 10G30G26G29G17G 6G15G21G10G18G16
  23564016.157    11901976.33249   9264374.08645  23564016.491    23564024.260
  22273382.452   -12246692.95749  -9518723.95946  22273382.589    22273390.014
  22779300.442    -7326325.05149  -5693533.71746  22779300.329    22779306.770
  20798288.842    -3882411.86649  -3019266.65547  20798288.375    20798294.620
  20257317.309    -3788908.04249  -2942856.97548  20257317.171    20257322.684
  23657797.505    -9953731.56649  -7731288.84245  23657796.889    23657805.482
  21086706.229    -7336556.17149  -5527585.53747  21086705.777    21086710.271
  23038518.339    10011807.27549   7787224.34346  23038517.506    23038524.409
  22651092.437   -14723880.08749 -11450200.84646  22651092.135    22651098.585
  23843682.960    -6909733.86149  -5048996.44045  23843682.613    23843689.127
 03  6 10 16 33 30.0000000  0 10G30G26G29G17G 6G15G21G10G18G16
  23583686.051    12005341.77249   9344918.49245  23583686.393    23583694.145
  22260406.684   -12314880.40349  -9571856.93646  22260406.881    22260414.322
  22775281.278    -7347445.87249  -5709991.44046  22775281.141    22775287.533
  20796327.416    -3892719.18249  -3027298.31847  20796326.942    20796333.229
  20257956.797    -3785547.67349  -2940238.50948  20257956.638    20257962.169
  23643132.589   -10030795.88149  -7791338.85945  23643131.960    23643140.628
  21079868.863    -7372486.51249  -5555583.18347  21079868.411    21079872.904
  23057138.442    10109656.56849   7863470.49746  23057137.595    23057144.610
  22633378.035   -14816969.96849 -11522738.36046  22633377.688    22633384.141
  23833076.941    -6965468.02149  -5092425.60245  23833076.675    23833083.285
 03  6 10 16 34  0.0000000  0 10G30G26G29G17G 6G15G21G10G18G16
  23603368.963    12108775.42949   9425516.04545  23603369.317    23603377.023
  22247513.430   -12382634.40749  -9624652.15646  22247513.667    22247521.110
  22771359.517    -7368054.95649  -5726050.43546  22771359.366    22771365.647
  20794404.348    -3902825.04749  -3035173.00747  20794403.864    20794410.151
  20258684.120    -3781725.71149  -2937260.36248  20258683.965    20258689.483
  23628486.069   -10107763.93249  -7851313.87645  23628485.360    23628493.972
  21073070.417    -7408212.65449  -5583421.71847  21073069.977    21073074.435
  23075796.114    10207703.33949   7939870.54246  23075795.340    23075802.300
  22615716.157   -14909783.73649 -11595060.72546  22615715.806    22615722.267
  23822562.016    -7020723.74749  -5135481.97845  23822561.694    23822568.418
 03  6 10 16 34 30.0000000  0 10G30G26G29G17G 6G15G21G10G18G16
  23623064.175    12212273.69749   9506163.93145  23623064.472    23623072.242
  22234703.321   -12449952.29249  -9677107.52846  22234703.495    22234710.827
  22767535.187    -7388151.75449  -5741710.24646  22767535.033    22767541.332
  20792519.410    -3912730.51249  -3042891.53347  20792518.939    20792525.189
  20259499.324    -3777441.87449  -2933922.31248  20259499.190    20259504.698
  23613857.671   -10184636.29149  -7911214.31445  23613856.997    23613865.530
  21066310.679    -7443735.29649  -5611101.66247  21066310.237    21066314.707
  23094490.755    10305944.23049   8016421.84746  23094489.957    23094496.900
  22598107.031   -15002320.11249 -11667166.92746  22598106.686    22598113.146
  23812138.425    -7075500.15149  -5178164.86345  23812138.050    23812144.689
 03  6 10 16 35  0.0000000  0 10G30G26G29G17G 6G15G21G10G18G16
  23642770.774    12315832.78449   9586859.19145  23642771.061    23642778.992
  22221976.487   -12516831.83749  -9729221.33646  22221976.646    22221984.003
  22763808.386    -7407735.82149  -5756970.54146  22763808.234    22763814.574
  20790672.304    -3922437.03549  -3050455.04547  20790671.837    20790678.069
  20260402.420    -3772696.23049  -2930224.42048  20260402.275    20260407.801
  23599247.374   -10261413.64049  -7971040.74545  23599246.672    23599255.191
  21059589.480    -7479055.23449  -5638623.67147  21059589.050    21059593.517
  23113221.840    10404375.85749   8093121.77046  23113221.020    23113227.892
  22580550.866   -15094578.40449 -11739056.45246  22580550.530    22580556.969
  23801806.220    -7129796.48649  -5220473.67345  23801805.873    23801812.392
 03  6 10 16 35 30.0000000  0 10G30G26G29G17G 6G15G21G10G18G16
  23662488.364    12419448.78249   9667598.81245  23662488.680    23662496.623
  22209333.480   -12583270.78249  -9780991.81546  22209333.638    22209340.992
  22760179.227    -7426806.66249  -5771830.92646  22760179.076    22760185.482
  20788862.877    -3931945.49849  -3057864.22547  20788862.410    20788868.634
  20261393.362    -3767488.75449  -2926166.66048  20261393.239    20261398.757
  23584654.983   -10338096.82249  -8030793.78745  23584654.343    23584662.754
  21052906.706    -7514173.51449  -5665988.54247  21052906.266    21052910.684
  23131988.446    10502994.60049   8169967.50446  23131987.578    23131994.470
  22563047.748   -15186557.71349 -11810728.58446  22563047.467    22563053.813
  23791565.395    -7183612.26149  -5262408.03145  23791565.172    23791571.490
 03  6 10 16 36  0.0000000  0 10G30G26G29G17G 6G15G21G10G18G16
  23682216.902    12523122.00549   9748383.00545  23682217.172    23682225.063
  22196775.654   -12649262.82949  -9832414.05346  22196775.762    22196783.063
  22756648.622    -7445359.79349  -5786287.90246  22756648.540    22756655.010
  20787091.812    -3941252.49349  -3065116.42147  20787091.356    20787097.575
  20262472.959    -3761815.45249  -2921745.92748  20262472.822    20262478.330
  23570081.134   -10414682.55849  -8090470.91045  23570080.552    23570088.866
  21046262.903    -7549086.98849  -5693193.83047  21046262.446    21046266.864
  23150790.589    10601800.87249   8246959.36446  23150789.812    23150796.743
  22545598.650   -15278253.28849 -11882179.62946  22545598.377    22545604.704
  23781417.020    -7236942.37749  -5303963.97245  23781416.698    23781423.095
 03  6 10 16 36 30.0000000  0 10G30G26G29G17G 6G15G21G10G18G16
  23701954.651    12626844.55149   9829205.63945  23701954.957    23701963.048
  22184302.420   -12714809.74649  -9883489.46046  22184302.568    22184309.802
  22753215.868    -7463398.99549  -5800344.42846  22753215.846    22753222.263
  20785358.006    -3950363.83049  -3072216.16047  20785357.546    20785363.734
  20263640.443    -3755680.49849  -2916965.45948  20263640.304    20263645.815
  23555524.938   -10491175.76549  -8150075.92945  23555524.339    23555532.584
  21039657.113    -7583800.40249  -5720243.22547  21039656.659    21039661.092
  23169627.116    10700786.82049   8324091.22846  23169626.302    23169633.198
  22528202.895   -15369668.40449 -11953412.12746  22528202.580    22528208.946
  23771360.459    -7289790.34649  -5345144.17645  23771360.130    23771366.420
 03  6 10 16 37  0.0000000  0 10G30G26G29G17G 6G15G21G10G18G16
  23721701.948    12730617.01849   9910067.16645  23721702.307    23721710.391
  22171915.175   -12779904.91349  -9934212.86146  22171915.303    22171922.478
  22749881.818    -7480919.67349  -5813996.89646  22749881.705    22749888.185
  20783662.126    -3959275.80049  -3079160.54747  20783661.661    20783667.834
  20264896.535    -3749079.59349  -2911821.91448  20264896.414    20264901.914
  23540987.028   -10567572.99649  -8209606.17645  23540986.374    23540994.583
  21033090.067    -7618310.35549  -5747134.08447  21033089.655    21033094.094
  23188498.039    10799953.43049   8401363.86446  23188497.147    23188504.017
  22510861.413   -15460797.97549 -12024422.12646  22510861.145    22510867.511
  23761396.594    -7342151.13249  -5385944.79845  23761396.247    23761402.411
 03  6 10 16 37 30.0000000  0 10G30G26G29G17G 6G15G21G10G18G16
  23741458.840    12834439.10249   9990967.33945  23741459.150    23741467.264
  22159614.895   -12844542.62149  -9984579.79846  22159614.998    22159622.185
  22746647.135    -7497917.78249  -5827242.18846  22746647.044    22746653.547
  20782004.610    -3967986.20049  -3085947.87347  20782004.138    20782010.290
  20266241.960    -3742009.40249  -2906312.69148  20266241.843    20266247.342
  23526467.917   -10643871.39649  -8269059.38845  23526467.246    23526475.459
  21026562.213    -7652614.61849  -5773864.66247  21026561.784    21026566.198
  23207403.227    10899300.96649   8478777.49346  23207402.319    23207409.254
  22493575.217   -15551637.55349 -12095206.15846  22493574.902    22493581.222
  23751526.040    -7394020.58049  -5426362.52145  23751525.821    23751531.885
 03  6 10 16 38  0.0000000  0 11G30G26G29G17G 6G15G23G21G10G18G16
  23761223.305    12938301.71349  10071899.10645  23761223.617    23761231.671
  22147401.098   -12908726.00549 -10034592.72146  22147401.254    22147408.412
  22743510.960    -7514398.42649  -5840084.25746  22743510.915    22743517.381
  20780384.176    -3976501.81249  -3092583.41547  20780383.710    20780389.843
  20267675.632    -3734475.33249  -2900442.00148  20267675.530    20267681.057
  23511966.286   -10720077.25549  -8328440.51445  23511965.665    23511973.828
  24528487.030    -1821073.78749  -1395508.94044  24528486.653    24528497.285
  21020072.356    -7686719.12449  -5800439.58547  21020071.917    21020076.316
  23226341.123    10998820.56649   8556325.18846  23226340.309    23226347.221
  22476343.256   -15642191.45949 -12165767.58646  22476342.962    22476349.306
  23741748.202    -7445403.25249  -5466400.97045  23741747.980    23741754.001
 03  6 10 16 38 30.0000000  0 11G30G26G29G17G 6G15G23G21G10G18G16
  23780995.537    13042205.47249  10152862.92345  23780995.929    23781004.007
  22135275.015   -12972448.51449 -10084246.54446  22135275.157    22135282.300
  22740474.198    -7530356.87549  -5852519.42246  22740474.107    22740480.581
  20778801.500    -3984818.77649  -3099064.16647  20778801.025    20778807.164
  20269198.392    -3726473.25549  -2894206.63648  20269198.296    20269203.832
  23497482.953   -10796187.10949  -8387746.82345  23497482.302    23497490.525
  24509175.632    -1922555.49349  -1474585.57744  24509175.071    24509186.096
  21013621.146    -7720620.40049  -5826856.15347  21013620.723    21013625.146
  23245311.946    11098512.99949   8634007.55946  23245311.116    23245318.046
  22459166.638   -15732454.88949 -12236102.66346  22459166.383    22459172.734
  23732064.025    -7496294.21049  -5506056.26245  23732063.764    23732069.717
 03  6 10 16 39  0.0000000  0 11G30G26G29G17G 6G15G23G21G10G18G16
  23800775.423    13146148.46449  10233857.32645  23800775.735    23800783.788
  22123237.465   -13035705.84349 -10133537.88246  22123237.631    22123244.627
  22737537.259    -7545790.99249  -5864546.01046  22737537.171    22737543.580
  20777256.724    -3992936.65549  -3105389.78447  20777256.265    20777262.407
  20270810.580    -3718001.26749  -2887605.10248  20270810.480    20270816.002
  23483018.151   -10872199.82249  -8446977.45545  23483017.545    23483025.724
  24489894.014    -2023880.63349  -1553540.18944  24489893.479    24489904.638
  21007208.830    -7754317.24949  -5853113.42347  21007208.392    21007212.827
  23264315.351    11198376.44649   8711823.18545  23264314.490    23264321.566
  22442045.914   -15822424.85149 -12306209.06446  22442045.615    22442051.942
  23722473.899    -7546690.89149  -5545326.38545  23722473.623    23722479.562
 03  6 10 16 39 30.0000000  0 11G30G26G29G17G 6G15G23G21G10G18G16
  23820562.324    13250128.13149  10314880.28645  23820562.547    23820570.571
  22111289.079   -13098494.85649 -10182464.30446  22111289.253    22111296.187
  22734700.299    -7560699.51849  -5876163.04946  22734700.184    22734706.579
  20775749.802    -4000855.39649  -3111560.23347  20775749.348    20775755.523
  20272512.401    -3709058.33849  -2880636.60548  20272512.282    20272517.819
  23468571.952   -10948114.92649  -8506132.02045  23468571.296    23468579.497
  24470642.745    -2125047.06149  -1632371.06145  24470642.407    24470653.470
  21000835.470    -7787809.61049  -5879211.35847  21000835.054    21000839.473
  23283350.891    11298408.88949   8789770.48545  23283350.022    23283357.212
  22424981.293   -15912099.52349 -12376085.35546  22424981.009    22424987.401
  23712978.227    -7596591.69249  -5584210.12245  23712977.907    23712983.672
 03  6 10 16 40  0.0000000  0 11G30G26G29G17G 6G15G23G21G10G18G16
  23840355.267    13354140.30749  10395928.58545  23840355.525    23840363.671
  22099430.141   -13160813.84449 -10231024.48146  22099430.273    22099437.209
  22731963.330    -7575082.49349  -5887370.56546  22731963.210    22731969.559
  20774280.616    -4008576.15349  -3117576.40447  20774280.145    20774286.335
  20274303.651    -3699645.16949  -2873301.68148  20274303.532    20274309.074
  23454144.146   -11023933.65349  -8565211.47745  23454143.525    23454151.643
  24451421.825    -2226054.31049  -1711077.87945  24451421.194    24451432.377
  20994500.687    -7821099.06649  -5905151.18347  20994500.250    20994504.663
  23302417.720    11398606.36749   8867846.40945  23302416.912    23302424.266
  22407972.970   -16001478.60349 -12445731.32346  22407972.663    22407979.068
  23703576.702    -7645996.36249  -5622707.26345  23703576.456    23703582.242
 03  6 10 16 40 30.0000000  0 11G30G26G29G17G 6G15G23G21G10G18G16
  23860153.786    13458181.56149  10476999.53745  23860153.949    23860162.268
  22087661.059   -13222660.20249 -10279216.38246  22087661.210    22087668.211
  22729326.387    -7588939.66749  -5898168.36846  22729326.314    22729332.650
  20772848.863    -4016100.14449  -3123439.26447  20772848.386    20772854.572
  20276184.447    -3689761.70149  -2865600.29748  20276184.320    20276189.871
  23439734.517   -11099656.54849  -8624216.27745  23439733.939    23439741.999
  24432231.247    -2326901.40549  -1789659.89145  24432230.528    24432242.006
  20988204.446    -7854185.91449  -5930933.13347  20988204.009    20988208.434
  23321515.452    11498965.49849   8946048.26345  23321514.711    23321522.062
  22391021.156   -16090561.07749 -12515146.18546  22391020.839    22391027.223
  23694269.725    -7694904.29949  -5660817.32745  23694269.468    23694275.344
 03  6 10 16 41  0.0000000  0 11G30G26G29G17G 6G15G23G21G10G18G16
  23879957.196    13562248.45449  10558090.47445  23879957.369    23879965.658
  22075982.409   -13284031.38249 -10327038.02246  22075982.595    22075989.619
  22726789.745    -7602270.12249  -5908555.72546  22726789.671    22726796.025
  20771454.407    -4023427.95549  -3129149.24147  20771453.942    20771460.135
  20278154.777    -3679407.66149  -2857532.22948  20278154.656    20278160.204
  23425343.010   -11175283.96949  -8683146.68745  23425342.443    23425350.428
  24413071.332    -2427586.81249  -1868115.89245  24413070.723    24413082.090
  20981946.844    -7887069.78949  -5956556.91747  20981946.411    20981950.821
  23340643.495    11599483.65449   9024374.05945  23340642.710    23340649.975
  22374125.971   -16179345.59249 -12584328.86246  22374125.655    22374131.969
  23685057.651    -7743314.08749  -5698539.24045  23685057.356    23685063.256
 03  6 10 16 41 30.0000000  0 11G30G26G29G17G 6G15G23G21G10G18G16
  23899766.178    13666344.47949  10639204.09645  23899766.296    23899774.580
  22064395.982   -13344918.22349 -10374482.25846  22064396.166    22064403.134
  22724354.664    -7615066.79949  -5918527.15946  22724354.567    22724360.911
  20770098.668    -4030552.64049  -3134700.94547  20770098.190    20770104.383
  20280215.990    -3668576.02749  -2849092.01048  20280215.879    20280221.426
  23410970.845   -11250809.63949  -8741997.79845  23410970.363    23410978.385
  24393943.698    -2528102.62749  -1946439.73645  24393943.045    24393954.523
  20975728.891    -7919745.29749  -5982018.34247  20975728.475    20975732.854
  23359802.427    11700164.25249   9102826.40945  23359801.666    23359808.865
  22357288.998   -16267824.66249 -12653273.53146  22357288.681    22357294.966
  23675941.764    -7791218.41149  -5735867.27645  23675941.497    23675947.347
 03  6 10 16 42  0.0000000  0 11G30G26G29G17G 6G15G23G21G10G18G16
  23919578.608    13770459.00749  10720332.14045  23919578.810    23919587.015
  22052900.746   -13405325.40249 -10421552.73746  22052900.865    22052907.930
  22722019.797    -7627336.44449  -5928087.90946  22722019.704    22722026.095
  20768779.923    -4037482.59349  -3140100.90447  20768779.463    20768785.640
  20282366.762    -3657273.77449  -2840285.07348  20282366.640    20282372.194
  23396616.656   -11326241.10549  -8800775.49545  23396616.190    23396624.188
  24374847.219    -2628454.79949  -2024636.05745  24374846.495    24374858.127
  20969549.159    -7952220.18449  -6007323.42947  20969548.723    20969553.091
  23378990.352    11800997.10649   9181397.43446  23378989.552    23378996.818
  22340509.044   -16356003.98049 -12721984.63246  22340508.688    22340514.947
  23666920.936    -7838623.61649  -5772806.40345  23666920.642    23666926.491
 03  6 10 16 42 30.0000000  0 11G30G26G29G17G 6G15G23G21G10G18G16
  23939394.668    13874592.63049  10801475.04845  23939394.911    23939403.205
  22041498.063   -13465246.56949 -10468244.51746  22041498.228    22041505.305
  22719786.096    -7639074.43449  -5937234.39246  22719786.029    22719792.405
  20767498.830    -4044214.94949  -3145346.89547  20767498.360    20767504.525
  20284607.847    -3645496.90949  -2831108.31248  20284607.708    20284613.293
  23382281.072   -11401574.91449  -8859477.11145  23382280.554    23382288.541
  24355782.879    -2728638.01549  -2102700.72945  24355782.113    24355793.622
  20963408.226    -7984490.88049  -6032469.42447  20963407.775    20963412.135
  23398207.358    11901982.79349   9260087.51846  23398206.528    23398213.846
  22323786.920   -16443878.77549 -12790458.42846  22323786.594    22323792.861
  23657996.015    -7885524.59549  -5809352.60845  23657995.730    23658001.559
 03  6 10 16 43  0.0000000  0 11G30G26G29G17G 6G15G23G21G10G18G16
  23959213.301    13978739.70049  10882628.44845  23959213.511    23959221.835
  22030187.969   -13524681.48849 -10514557.40246  22030188.088    22030195.181
  22717653.207    -7650282.79649  -5945968.16746  22717653.096    22717659.501
  20766254.759    -4050752.54649  -3150441.12647  20766254.271    20766260.448
  20286938.823    -3633247.53049  -2821563.35748  20286938.695    20286944.297
  23367963.613   -11476813.61949  -8918104.61345  23367963.096    23367971.072
  24336750.574    -2828653.31949  -2180634.58545  24336749.819    24336761.278
  20957305.678    -8016559.65349  -6057458.06947  20957305.269    20957309.636
  23417452.496    12003116.01549   9338892.58046  23417451.626    23417458.893
  22307122.552   -16531450.27849 -12858695.90946  22307122.231    22307128.478
  23649166.789    -7931923.01549  -5845507.23845  23649166.443    23649172.232
 03  6 10 16 43 30.0000000  0 11G30G26G29G17G 6G15G23G21G10G18G16
  23979034.748    14082901.29749  10963793.13845  23979034.859    23979043.298
  22018971.723   -13583623.42549 -10560486.15846  22018971.803    22018978.833
  22715621.999    -7660956.78449  -5954285.53946  22715621.922    22715628.314
  20765048.540    -4057091.18049  -3155380.31947  20765048.086    20765054.232
  20289360.575    -3620521.17349  -2811646.73348  20289360.438    20289366.052
  23353665.012   -11551953.41549  -8976655.06045  23353664.484    23353672.402
  24317751.223    -2928495.16449  -2258433.27545  24317750.502    24317761.887
  20951242.237    -8048423.21349  -6082286.81247  20951241.837    20951246.200
  23436725.906    12104398.22349   9417813.72446  23436725.032    23436732.327
  22290516.998   -16618712.94449 -12926692.73746  22290516.697    22290522.917
  23640434.176    -7977813.67949  -5881266.18445  23640433.828    23640439.555
 03  6 10 16 44  0.0000000  0 11G30G26G29G17G 6G15G23G21G10G18G16
  23998857.910    14187072.66049  11044965.45945  23998858.036    23998866.732
  22007849.450   -13642071.31049 -10606029.95246  22007849.543    22007856.512
  22713692.392    -7671097.14949  -5962187.11746  22713692.258    22713698.709
  20763879.763    -4063233.43849  -3160166.49747  20763879.295    20763885.440
  20291872.780    -3607319.48149  -2801359.72548  20291872.649    20291878.280
  23339384.921   -11626996.19849  -9035129.90945  23339384.370    23339392.157
  24298784.884    -3028163.61649  -2336096.84145  24298784.291    24298795.515
  20945217.458    -8080083.53249  -6106957.18647  20945217.048    20945221.419
  23456026.878    12205825.07349   9496847.57146  23456026.070    23456033.293
  22273970.171   -16705667.05849 -12994449.14046  22273969.862    22273976.055
  23631798.011    -8023197.23149  -5916629.98745  23631797.706    23631803.423
 03  6 10 16 44 30.0000000  0 11G30G26G29G17G 6G15G23G21G10G18G16
  24018682.679    14291252.08649  11126144.07145  24018682.901    24018691.632
  21996821.948   -13700021.14949 -10651185.67046  21996822.027    21996828.980
  22711864.579    -7680702.15749  -5969671.51746  22711864.483    22711870.883
  20762748.466    -4069178.29149  -3164798.85947  20762747.999    20762754.171
  20294475.785    -3593640.65249  -2790700.91548  20294475.657    20294481.288
  23325123.401   -11701940.71349  -9093528.15445  23325122.853    23325130.536
  24279852.043    -3127655.98149  -2413623.18645  24279851.519    24279862.700
  20939231.566    -8111539.60449  -6131468.41347  20939231.142    20939235.533
  23475355.029    12307395.03549   9575992.96146  23475354.240    23475361.494
  22257482.498   -16792309.94449 -13061963.02846  22257482.206    22257488.382
  23623258.668    -8068071.35749  -5951596.83445  23623258.399    23623264.335
 03  6 10 16 45  0.0000000  0 11G30G26G29G17G 6G15G23G21G10G18G16
  24038508.298    14395435.80449  11207326.03045  24038508.626    24038517.311
  21985889.649   -13757470.84449 -10695951.66546  21985889.755    21985896.621
  22710138.749    -7689771.61149  -5976738.61346  22710138.628    22710144.955
  20761654.518    -4074926.78649  -3169278.21647  20761654.096    20761660.301
  20297169.548    -3579484.91749  -2779670.49148  20297169.442    20297175.055
  23310880.518   -11776787.60249  -9151850.37245  23310879.983    23310887.634
  24260952.865    -3226971.29849  -2491011.59145  24260952.342    24260963.333
  20933284.483    -8142791.91149  -6155820.85947  20933284.059    20933288.432
  23494709.725    12409104.86449   9655247.32746  23494708.991    23494716.275
  22241054.179   -16878640.98349 -13129233.91746  22241053.889    22241060.065
  23614816.373    -8112435.54149  -5986166.32745  23614816.163    23614822.139
 03  6 10 16 45 30.0000000  0 11G30G26G29G17G 6G15G23G21G10G18G16
  24058334.110    14499620.20949  11288508.51245  24058334.382    24058343.008
  21975052.800   -13814418.64249 -10740326.55246  21975052.898    21975059.829
  22708514.831    -7698305.68849  -5983388.53046  22708514.683    22708520.944
  20760597.816    -4080479.83649  -3173605.27647  20760597.387    20760603.573
  20299954.008    -3564852.67349  -2768268.75748  20299953.904    20299959.506
  23296655.957   -11851537.81849  -9210097.25945  23296655.391    23296663.179
  24242087.569    -3326108.67149  -2568261.32345  24242087.013    24242097.870
  20927375.988    -8173841.14849  -6180015.06647  20927375.559    20927379.938
  23514090.429    12510950.75749   9734607.70045  23514089.705    23514096.946
  22224685.359   -16964659.67249 -13196261.42246  22224685.041    22224691.256
  23606471.322    -8156289.30149  -6020338.10345  23606471.031    23606477.099
 03  6 10 16 46  0.0000000  0 11G30G26G29G17G 6G15G23G21G10G18G16
  24078159.586    14603803.57949  11369690.19145  24078159.878    24078168.553
  21964312.234   -13870860.36149 -10784307.10446  21964312.403    21964319.329
  22706993.037    -7706302.27549  -5989619.62046  22706992.985    22706999.288
  20759578.531    -4085836.40849  -3177779.22647  20759578.083    20759584.258
  20302829.498    -3549742.10749  -2756494.31048  20302829.364    20302834.969
  23282449.972   -11926190.06549  -9268267.75845  23282449.416    23282457.298
  24223256.573    -3425065.37549  -2645370.24945  24223256.069    24223266.928
  20921506.412    -8204686.01549  -6204050.01647  20921505.963    20921510.362
  23533496.694    12612931.52149   9814073.18245  23533495.940    23533503.194
  22208376.510   -17050363.12549 -13263043.27846  22208376.161    22208382.363
  23598223.777    -8199630.17149  -6054110.20545  23598223.510    23598229.485
 03  6 10 16 46 30.0000000  0 11G30G26G29G17G 6G15G23G21G10G18G16
  24097984.575    14707983.73349  11450869.36645  24097984.812    24097993.573
  21953668.684   -13926792.49949 -10827890.58446  21953668.861    21953675.795
  22705573.782    -7713760.06549  -5995430.86846  22705573.768    22705580.088
  20758596.651    -4090996.35949  -3181799.96947  20758596.203    20758602.365
  20305796.206    -3534152.14449  -2744346.30148  20305796.060    20305801.664
  23268262.830   -12000743.53049  -9326361.30445  23268262.357    23268270.156
  24204460.425    -3523838.94449  -2722336.46245  24204459.832    24204470.818
  20915675.757    -8235326.30849  -6227925.56547  20915675.329    20915679.724
  23552928.263    12715045.11649   9893642.16845  23552927.518    23552934.824
  22192128.055   -17135749.15449 -13329577.80146  22192127.750    22192133.893
  23590074.123    -8242456.73949  -6087481.55745  23590073.872    23590079.862
 03  6 10 16 47  0.0000000  0 11G30G26G29G17G 6G15G23G21G10G18G16
  24117808.406    14812157.93449  11532043.90545  24117808.658    24117817.462
  21943122.729   -13982212.24549 -10871074.78746  21943122.852    21943129.700
  22704257.328    -7720678.17049  -6000821.59446  22704257.260    22704263.593
  20757652.217    -4095959.49549  -3185667.34347  20757651.777    20757657.918
  20308854.171    -3518082.33949  -2731824.38248  20308854.043    20308859.638
  23254094.519   -12075198.16149  -9384377.83845  23254094.006    23254101.859
  24185699.479    -3622427.65549  -2799158.62245  24185698.870    24185709.985
  20909884.088    -8265761.79849  -6251641.52447  20909883.639    20909888.064
  23572384.687    12817289.46249   9973313.03645  23572383.929    23572391.385
  22175940.370   -17220816.22549 -13395863.77946  22175940.066    22175946.115
  23582022.678    -8284767.58649  -6120451.04945  23582022.417    23582028.377
 03  6 10 16 47 30.0000000  0 11G30G26G29G17G 6G15G23G21G10G18G16
  24137630.291    14916321.88649  11613210.44145  24137630.586    24137639.389
  21932674.375   -14037118.40549 -10913858.79146  21932674.516    21932681.384
  22703043.252    -7727057.52149  -6005792.50146  22703043.220    22703049.652
  20756744.912    -4100727.57749  -3189382.73247  20756744.455    20756750.571
  20312003.271    -3501533.77549  -2718929.40648  20312003.163    20312008.758
  23239944.711   -12149555.58649  -9442318.60345  23239944.161    23239952.129
  24166973.611    -3720831.45249  -2875836.70645  24166972.962    24166984.215
  20904131.101    -8295993.86349  -6275198.97247  20904130.681    20904135.088
  23591865.263    12919660.45149  10053082.58445  23591864.452    23591872.026
  22159813.286   -17305564.70149 -13461901.50046  22159812.951    22159819.004
  23574069.196    -8326562.97049  -6153018.89645  23574068.922    23574074.957
 03  6 10 16 48  0.0000000  0 11G30G26G29G17G 6G15G23G21G10G18G16
  24157449.836    15020473.43849  11694367.30645  24157450.005    24157458.894
  21922324.428   -14091507.48549 -10956239.90246  21922324.580    21922331.407
  22701932.120    -7732896.53749  -6010342.38146  22701932.110    22701938.536
  20755874.828    -4105299.78649  -3192945.50447  20755874.367    20755880.498
  20315243.738    -3484505.19549  -2705660.40448  20315243.619    20315249.203
  23225813.668   -12223814.78249  -9500182.86545  23225813.074    23225820.985
  24148283.519    -3819047.87949  -2952368.83545  24148283.071    24148293.811
  20898417.021    -8326021.59849  -6298597.21347  20898416.607    20898420.990
  23611369.634    13022156.39449  10132949.48545  23611368.779    23611376.338
  22143747.201   -17389992.26349 -13527689.17846  22143746.893    22143752.924
  23566214.215    -8367841.22749  -6185183.76145  23566213.950    23566219.879
 03  6 10 16 48 30.0000000  0 11G30G26G29G17G 6G15G23G21G10G18G16
  24177266.459    15124609.87349  11775512.41645  24177266.617    24177275.550
  21912073.436   -14145376.76049 -10998215.95346  21912073.587    21912080.339
  22700923.998    -7738194.67049  -6014470.78646  22700923.947    22700930.347
  20755042.015    -4109676.37749  -3196355.83747  20755041.544    20755047.675
  20318575.592    -3466996.19449  -2692017.04048  20318575.463    20318581.073
  23211701.261   -12297975.71849  -9557970.54545  23211700.694    23211708.666
  24129629.417    -3917075.16249  -3028753.58345  24129628.927    24129639.695
  20892741.768    -8355845.30649  -6321836.45847  20892741.326    20892745.720
  23630897.317    13124774.64149  10212911.73345  23630896.381    23630903.914
  22127742.481   -17474097.22649 -13593225.45946  22127742.183    22127748.230
  23558457.838    -8408601.32749  -6216944.89445  23558457.589    23558463.526
 03  6 10 16 49  0.0000000  0 11G30G26G29G17G 6G15G23G21G10G18G16
  24197079.857    15228729.17349  11856644.14845  24197080.149    24197088.845
  21901922.144   -14198722.59149 -11039784.14346  21901922.245    21901928.958
  22700018.968    -7742950.42149  -6018176.56446  22700018.944    22700025.324
  20754246.522    -4113856.81349  -3199613.32847  20754246.064    20754252.178
  20321999.115    -3449005.57749  -2677998.39448  20321998.993    20322004.568
  23197607.676   -12372037.45249  -9615680.92645  23197607.121    23197615.101
  24111011.766    -4014910.89449  -3104989.06445  24111011.275    24111022.265
  20887105.508    -8385463.99349  -6344915.95447  20887105.088    20887109.470
  23650447.848    13227513.50849  10292967.92545  23650446.937    23650454.441
  22111799.596   -17557877.35949 -13658508.63146  22111799.310    22111805.368
  23550800.452    -8448841.00849  -6248300.49945  23550800.190    23550806.247
 03  6 10 16 49 30.0000000  0 11G30G26G29G17G 6G15G23G21G10G18G16
  24216889.466    15332828.44349  11937760.27545  24216889.765    24216898.645
  21891870.758   -14251542.48549 -11080942.48346  21891870.923    21891877.717
  22699217.298    -7747163.24449  -6021459.27746  22699217.269    22699223.614
  20753488.334    -4117840.92649  -3202717.83147  20753487.879    20753493.984
  20325514.340    -3430533.21449  -2663604.36548  20325514.219    20325519.754
  23183532.980   -12446000.18849  -9673314.15345  23183532.415    23183540.459
  24092430.746    -4112553.70949  -3181074.23045  24092430.328    24092441.334
  20881508.250    -8414877.87949  -6367835.86047  20881507.813    20881512.142
  23670020.874    13330370.22149  10373115.96845  23670020.026    23670027.415
  22095918.757   -17641331.45349 -13723537.74846  22095918.424    22095924.530
  23543242.271    -8488559.60049  -6279250.04745  23543242.012    23543248.061
 03  6 10 16 50  0.0000000  0 11G30G26G29G17G 6G15G23G21G10G18G16
  24236694.695    15436904.62049  12018858.37945  24236695.104    24236703.801
  21881920.016   -14303834.08949 -11121689.16046  21881920.172    21881926.982
  22698519.054    -7750832.75749  -6024318.64446  22698518.983    22698525.300
  20752767.430    -4121629.48349  -3205669.95247  20752766.978    20752773.067
  20329121.233    -3411578.89649  -2648834.78648  20329121.112    20329126.664
  23169477.131   -12519864.04749  -9730870.34445  23169476.585    23169484.533
  24073886.814    -4210002.11549  -3257007.94345  24073886.276    24073897.175
  20875949.951    -8444086.86949  -6390596.10747  20875949.541    20875953.847
  23689615.824    13433342.25949  10453353.83345  23689614.911    23689622.380
  22080100.083   -17724458.46949 -13788311.99346  22080099.775    22080105.936
  23535783.382    -8527756.07549  -6309792.75245  23535783.156    23535789.285
 03  6 10 16 50 30.0000000  0 11G30G26G29G17G 6G15G23G21G10G18G16
  24256494.879    15540954.59549  12099936.09345  24256495.298    24256504.021
  21872070.255   -14355594.93949 -11162022.26946  21872070.391    21872077.200
  22697924.177    -7753958.77549  -6026754.50846  22697924.124    22697930.467
  20752083.673    -4125222.67149  -3208469.84547  20752083.232    20752089.311
  20332819.855    -3392142.76049  -2633689.77548  20332819.722    20332825.280
  23155439.878   -12593629.49849  -9788349.84345  23155439.313    23155447.363
  24055380.079    -4307254.80849  -3332789.15345  24055379.558    24055390.366
  20870430.593    -8473091.58849  -6413197.18347  20870430.152    20870434.447
  23709232.217    13536426.76649  10533679.37245  23709231.351    23709238.722
  22064343.957   -17807257.07449 -13852830.34147  22064343.623    22064349.825
  23528424.026    -8566430.11649  -6339928.38745  23528423.731    23528429.764
 03  6 10 16 51  0.0000000  0 11G30G26G29G17G 6G15G23G21G10G18G16
  24276289.643    15644976.11449  12180991.62145  24276290.094    24276298.885
  21862322.131   -14406821.79949 -11201939.28346  21862322.269    21862329.024
  22697432.988    -7756540.04049  -6028765.88446  22697432.924    22697439.281
  20751437.266    -4128619.70549  -3211116.89047  20751436.809    20751442.903
  20336610.388    -3372223.47249  -2618168.28048  20336610.248    20336615.819
  23141421.626   -12667295.72149  -9845752.03546  23141421.028    23141429.086
  24036911.044    -4404309.43749  -3408416.03245  24036910.563    24036921.378
  20864950.257    -8501890.98149  -6435638.26747  20864949.836    20864954.091
  23728869.637    13639622.15749  10614091.32045  23728868.836    23728876.256
  22048650.732   -17889725.16749 -13917091.14747  22048650.407    22048656.601
  23521164.356    -8604579.74849  -6369655.38645  23521164.077    23521170.131
 03  6 10 16 51 30.0000000  0 11G30G26G29G17G 6G15G23G21G10G18G16
  24296078.349    15748965.83649  12262022.39245  24296078.675    24296087.643
  21852675.894   -14457512.98749 -11241438.88446  21852676.047    21852682.854
  22697045.462    -7758576.94449  -6030353.08146  22697045.383    22697051.635
  20750827.826    -4131822.42449  -3213612.51847  20750827.351    20750833.487
  20340492.715    -3351821.84349  -2602270.93348  20340492.580    20340498.175
  23127422.162   -12740863.24349  -9903077.31646  23127421.589    23127429.571
  24018479.883    -4501165.08549  -3483887.80345  24018479.403    24018490.078
  20859508.962    -8530485.26249  -6457919.52047  20859508.533    20859512.790
  23748527.569    13742924.94249  10694586.93945  23748526.727    23748534.265
  22033020.515   -17971862.43049 -13981094.16347  22033020.198    22033026.353
  23514004.550    -8642204.98749  -6398973.75545  23514004.214    23514010.294
 03  6 10 16 52  0.0000000  0 11G30G26G29G17G 6G15G23G21G10G18G16
  24315860.655    15852922.08049  12343027.05745  24315861.019    24315869.940
  21843132.396   -14507664.48149 -11280517.93846  21843132.534    21843139.366
  22696761.685    -7760067.70849  -6031514.71646  22696761.689    22696768.015
  20750255.675    -4134829.10549  -3215955.39547  20750255.207    20750261.346
  20344467.124    -3330936.18949  -2585996.40548  20344466.989    20344472.619
  23113441.645   -12814330.90249  -9960324.78645  23113441.098    23113449.062
  24000087.200    -4597818.95649  -3559202.40245  24000086.836    24000097.343
  20854106.625    -8558874.73049  -6480041.18347  20854106.203    20854110.452
  23768205.867    13846334.32349  10775165.63645  23768204.974    23768212.500
  22017453.767   -18053666.10049 -14044837.23747  22017453.434    22017459.565
  23506944.846    -8679303.66649  -6427881.82845  23506944.641    23506950.673
 03  6 10 16 52 30.0000000  0 11G30G26G29G17G 6G15G23G21G10G18G16
  24335636.174    15956842.65149  12424003.93245  24335636.519    24335645.671
  21833692.113   -14557273.24149 -11319174.07246  21833692.299    21833699.107
  22696582.112    -7761011.38149  -6032250.05446  22696582.083    22696588.431
  20749720.855    -4137639.64149  -3218145.43147  20749720.387    20749726.525
  20348533.788    -3309565.78449  -2569344.15848  20348533.663    20348539.300
  23099480.267   -12887698.06449 -10017493.94346  23099479.833    23099487.775
  23981733.258    -4694269.07849  -3634358.19145  23981732.742    23981743.406
  20848743.560    -8587057.89849  -6502002.09047  20848743.135    20848747.426
  23787903.992    13949847.97049  10855825.58545  23787903.047    23787910.570
  22001950.823   -18135134.38149 -14108318.97247  22001950.507    22001956.619
  23499985.613    -8715874.40749  -6456378.52145  23499985.389    23499991.514
 03  6 10 16 53  0.0000000  0 11G30G26G29G17G 6G15G23G21G10G18G16
  24355403.867    16060722.25949  12504948.86845  24355404.174    24355413.615
  21824355.160   -14606339.24849 -11357407.30046  21824355.363    21824362.075
  22696506.396    -7761409.75249  -6032560.48546  22696506.286    22696512.637
  20749222.883    -4140256.64049  -3220184.66447  20749222.392    20749228.545
  20352692.275    -3287712.81649  -2552315.89548  20352692.154    20352697.803
  23085537.688   -12960967.05049 -10074586.58946  23085537.196    23085545.048
  23963417.912    -4790516.28749  -3709355.89445  23963417.432    23963427.982
  20843419.310    -8615036.97449  -6523803.96947  20843418.871    20843423.166
  23807620.987    14053461.17849  10936563.10745  23807620.157    23807627.678
  21986511.523   -18216268.23849 -14171540.10847  21986511.205    21986517.318
  23493126.747    -8751918.56349  -6484464.87745  23493126.427    23493132.698
 03  6 10 16 53 30.0000000  0 11G30G26G29G17G 6G15G23G21G10G18G16
  24375163.818    16164561.24849  12585862.16345  24375164.115    24375173.742
  21815122.553   -14654857.11749 -11395213.40046  21815122.705    21815129.387
  22696534.926    -7761259.69549  -6032443.55546  22696534.856    22696541.193
  20748762.197    -4142677.40849  -3222070.98947  20748761.721    20748767.875
  20356943.186    -3265374.18749  -2534909.19848  20356943.062    20356948.710
  23071614.223   -13034134.88449 -10131600.43246  23071613.744    23071621.561
  23945142.159    -4886555.97249  -3784191.89745  23945141.623    23945152.085
  20838134.433    -8642809.42849  -6545444.83947  20838134.000    20838138.280
  23827356.951    14157174.42649  11017378.57145  23827356.184    23827363.618
  21971136.667   -18297063.51249 -14234497.42047  21971136.389    21971142.448
  23486368.810    -8787432.27649  -6512137.90945  23486368.446    23486374.660
 03  6 10 16 54  0.0000000  0 11G30G26G29G17G 6G15G23G21G10G18G16
  24394915.403    16268355.38649  12666740.52045  24394915.701    24394925.277
  21805994.438   -14702825.68149 -11432591.47246  21805994.594    21806001.271
  22696667.774    -7760562.06949  -6031899.96646  22696667.654    22696673.945
  20748338.738    -4144902.80649  -3223805.07447  20748338.264    20748344.418
  20361286.309    -3242551.10549  -2517125.00148  20361286.175    20361291.846
  23057709.744   -13107202.87949 -10188536.47246  23057709.330    23057717.069
  23926905.914    -4982387.96049  -3858866.05145  23926905.378    23926915.744
  20832888.637    -8670376.24749  -6566925.47647  20832888.202    20832892.480
  23847111.235    14260984.07649  11098269.15245  23847110.549    23847118.079
  21955826.200   -18377520.29149 -14297190.96847  21955825.918    21955831.993
  23479711.569    -8822416.27749  -6539398.17245  23479711.214    23479717.434
 03  6 10 16 54 30.0000000  0 11G30G26G29G17G 6G15G23G21G10G18G16
  24414657.792    16372101.44049  12747581.38145  24414658.153    24414667.731
  21796971.217   -14750242.98049 -11469539.98646  21796971.361    21796978.075
  22696904.801    -7759317.11849  -6030929.89246  22696904.640    22696910.896
  20747952.283    -4146933.49749  -3225387.43547  20747951.812    20747957.967
  20365721.541    -3219243.68849  -2498963.39948  20365721.434    20365727.111
  23043824.240   -13180171.52449 -10245395.10146  23043823.832    23043831.558
  23908709.356    -5078011.17749  -3933377.52445  23908708.836    23908719.178
  20827681.809    -8697738.12749  -6588246.41647  20827681.386    20827685.643
  23866883.313    14364887.08049  11179232.47245  23866882.621    23866890.253
  21940580.280   -18457637.60249 -14359619.98947  21940580.033    21940586.130
  23473155.263    -8856870.30549  -6566245.47745  23473154.933    23473161.115
 03  6 10 16 55  0.0000000  0 11G30G26G29G17G 6G15G23G21G10G18G16
  24434390.688    16475797.30749  12828383.11245  24434391.063    24434400.751
  21788053.553   -14797105.82249 -11506056.46546  21788053.694    21788060.444
  22697246.027    -7757523.78649  -6029532.49846  22697245.904    22697252.164
  20747602.970    -4148769.17349  -3226817.83947  20747602.494    20747608.643
  20370249.116    -3195451.30049  -2480423.90148  20370249.000    20370254.675
  23029957.847   -13253039.95349 -10302175.63646  23029957.432    23029965.166
  23890552.982    -5173423.53849  -4007724.69545  23890552.325    23890562.688
  20822514.226    -8724894.24949  -6609407.03247  20822513.794    20822518.028
  23886672.899    14468881.54949  11260267.06345  23886672.151    23886679.765
  21925399.398   -18537413.64049 -14421783.09447  21925399.122    21925405.211
  23466700.029    -8890792.59849  -6592678.43745  23466699.692    23466705.841
 03  6 10 16 55 30.0000000  0 11G30G26G29G17G 6G15G23G21G10G18G16
  24454113.643    16579440.48049  12909143.80145  24454113.879    24454123.583
  21779241.841   -14843411.66649 -11542138.92146  21779241.965    21779248.743
  22697691.737    -7755181.47449  -6027707.33746  22697691.625    22697697.933
  20747290.811    -4150409.83849  -3228096.28447  20747290.340    20747296.470
  20374869.056    -3171173.48049  -2461506.13948  20374868.942    20374874.585
  23016110.592   -13325807.82249 -10358877.81346  23016110.189    23016117.846
  23872437.026    -5268623.29949  -4081906.19345  23872436.347    23872446.620
  20817385.765    -8751844.47549  -6630407.20447  20817385.314    20817389.551
  23906479.363    14572965.06249  11341371.03145  23906478.629    23906486.234
  21910283.716   -18616847.06249 -14483679.21647  21910283.427    21910289.531
  23460346.212    -8924182.49949  -6618696.54245  23460345.871    23460351.904
 03  6 10 16 56  0.0000000  0 11G30G26G29G17G 6G15G23G21G10G18G16
  24473825.913    16683028.61249  12989861.61645  24473826.272    24473836.012
  21770536.601   -14889157.67349 -11577785.13546  21770536.701    21770543.555
  22698242.110    -7752289.60849  -6025453.94846  22698241.964    22698248.299
  20747015.807    -4151855.05349  -3229222.42847  20747015.340    20747021.472
  20379581.442    -3146409.67649  -2442209.69848  20379581.349    20379586.994
  23002282.568   -13398474.69149 -10415501.29746  23002282.101    23002289.725
  23854361.904    -5363608.40849  -4155920.43845  23854361.219    23854371.477
  20812296.637    -8778587.96949  -6651246.28447  20812296.197    20812300.460
  23926302.540    14677136.09249  11422543.22745  23926301.786    23926309.408
  21895233.581   -18695936.06049 -14545306.97047  21895233.266    21895239.342
  23454093.980    -8957038.52349  -6644298.66245  23454093.569    23454099.518
 03  6 10 16 56 30.0000000  0 11G30G26G29G17G 6G15G23G21G10G18G16
  24493527.194    16786558.51449  13070534.06545  24493527.434    24493537.259
  21761938.287   -14934341.92249 -11612993.61346  21761938.403    21761945.266
  22698896.955    -7748848.28649  -6022772.40246  22698896.841    22698903.226
  20746777.812    -4153105.68349  -3230196.95247  20746777.355    20746783.489
  20384386.260    -3121160.34949  -2422534.91948  20384386.173    20384391.839
  22988473.684   -13471040.96649 -10472046.38346  22988473.181    22988480.760
  23836327.848    -5458377.84749  -4229766.62145  23836327.244    23836337.304
  20807246.754    -8805125.33349  -6671924.74147  20807246.323    20807250.580
  23946141.729    14781391.78649  11503781.35945  23946141.062    23946148.651
  21880249.108   -18774679.85149 -14606665.72647  21880248.809    21880254.831
  23447943.333    -8989360.70149  -6669484.78245  23447942.937    23447948.742
 03  6 10 16 57  0.0000000  0 11G30G26G29G17G 6G15G23G21G10G18G16
  24513216.874    16890027.61149  13151159.09345  24513217.132    24513226.967
  21753447.333   -14978962.02449 -11647762.50346  21753447.442    21753454.311
  22699656.453    -7744857.22349  -6019662.49446  22699656.354    22699662.768
  20746576.937    -4154161.44949  -3231019.62947  20746576.474    20746582.584
  20389283.532    -3095425.19949  -2402481.57648  20389283.423    20389289.097
  22974683.877   -13543506.54249 -10528513.02846  22974683.318    22974690.882
  23818335.061    -5552930.00049  -4303443.48345  23818334.520    23818344.544
  20802236.135    -8831456.35049  -6692442.41147  20802235.692    20802239.950
  23965996.428    14885729.76649  11585083.59845  23965995.916    23966003.519
  21865330.698   -18853077.00349 -14667754.37947  21865330.367    21865336.312
  23441894.345    -9021148.13549  -6694254.24845  23441894.025    23441899.759
 03  6 10 16 57 30.0000000  0 11G30G26G29G17G 6G15G23G21G10G18G16
  24532894.473    16993433.13549  13231734.60745  24532894.760    24532904.564
  21745064.185   -15023015.60849 -11682089.96146  21745064.315    21745071.133
  22700520.597    -7740316.32349  -6016124.13446  22700520.437    22700526.915
  20746413.150    -4155022.17049  -3231690.34547  20746412.697    20746418.801
  20394273.238    -3069204.22249  -2382049.67748  20394273.128    20394278.823
  22960913.318   -13615871.45349 -10584901.24446  22960912.752    22960920.290
  23800383.851    -5647263.47849  -4376949.94845  23800383.339    23800393.427
  20797264.755    -8857581.06249  -6712799.32647  20797264.314    20797268.572
  23985866.552    14990147.77149  11666448.25145  23985866.060    23985873.630
  21850478.385   -18931126.25349 -14728571.94247  21850478.059    21850483.966
  23435947.309    -9052399.89849  -6718606.28645  23435946.941    23435952.771
 03  6 10 16 58  0.0000000  0 11G30G26G29G17G 6G15G23G21G10G18G16
  24552559.829    17096773.89149  13312259.64045  24552560.106    24552570.007
  21736789.649   -15066498.94849 -11715973.07146  21736789.764    21736796.508
  22701489.617    -7735223.79049  -6012155.93246  22701489.516    22701495.966
  20746286.657    -4155686.83049  -3232208.26147  20746286.195    20746292.334
  20399355.685    -3042495.81349  -2361237.95848  20399355.590    20399361.287
  22947162.084   -13688134.30349 -10641209.90946  22947161.521    22947169.088
  23782474.860    -5741375.30649  -4450283.70345  23782474.296    23782484.441
  20792332.953    -8883497.93349  -6732994.28747  20792332.528    20792336.740
  24005751.863    15094644.87549  11747874.51045  24005751.194    24005758.879
  21835692.781   -19008824.99649 -14789116.37947  21835692.455    21835698.373
  23430102.459    -9083114.12449  -6742539.46545  23430102.098    23430108.128
 03  6 10 16 58 30.0000000  0 11G30G26G29G17G 6G15G23G21G10G18G16
  24572211.883    17200045.33849  13392730.69845  24572212.160    24572221.982
  21728623.637   -15109411.59949 -11749411.48846  21728623.777    21728630.511
  22702563.372    -7729581.33049  -6007759.20646  22702563.283    22702569.687
  20746197.104    -4156157.40749  -3232574.96247  20746196.637    20746202.782
  20404530.582    -3015301.70449  -2340047.76948  20404530.478    20404536.211
  22933429.923   -13760296.48749 -10697440.13946  22933429.387    22933437.037
  23764607.978    -5835265.80049  -4523444.98445  23764607.435    23764617.586
  20787440.372    -8909208.60449  -6753028.57047  20787439.925    20787444.159
  24025651.503    15199216.98849  11829359.22745  24025650.738    24025658.266
  21820973.675   -19086173.92449 -14849388.22747  21820973.355    21820979.332
  23424359.669    -9113292.14049  -6766054.78045  23424359.374    23424365.512
 03  6 10 16 59  0.0000000  0 11G30G26G29G17G 6G15G23G21G10G18G16
  24591850.626    17303246.83749  13473147.20945  24591851.006    24591860.789
  21720567.021   -15151749.10349 -11782401.74946  21720567.194    21720573.895
  22703742.189    -7723386.77549  -6002932.27746  22703742.056    22703748.466
  20746144.898    -4156431.89049  -3232788.85947  20746144.433    20746150.578
  20409798.290    -2987619.79249  -2318477.47848  20409798.181    20409803.939
  22919717.486   -13832356.03249 -10753590.36946  22919716.920    22919724.506
  23746783.929    -5928931.43349  -4596431.04045  23746783.374    23746793.580
  20782587.386    -8934711.07649  -6772900.61747  20782586.944    20782591.194
  24045565.199    15303863.73749  11910902.06745  24045564.312    24045571.876
  21806321.796   -19163169.68749 -14909384.88047  21806321.528    21806327.528
  23418719.546    -9142931.00149  -6789150.01245  23418719.238    23418725.481
 03  6 10 16 59 30.0000000  0 11G30G26G29G17G 6G15G23G21G10G18G16
  24611475.394    17406374.81349  13553506.45844  24611475.760    24611485.529
  21712620.191   -15193510.31449 -11814942.94546  21712620.306    21712626.960
  22705025.832    -7716640.84549  -5997675.70746  22705025.728    22705032.180
  20746129.828    -4156511.09849  -3232850.58547  20746129.373    20746135.495
  20415158.615    -2959451.18249  -2296527.93348  20415158.500    20415164.285
  22906024.375   -13904313.41949 -10809660.98746  22906023.870    22906031.471
  23729002.809    -6022371.54349  -4669241.36545  23729002.264    23729012.393
  20777773.894    -8960006.07349  -6792610.99647  20777773.457    20777777.721
  24065492.504    15408581.87849  11992500.58945  24065491.696    24065499.055
  21791737.221   -19239811.91949 -14969106.05447  21791736.945    21791742.973
  23413182.052    -9172030.97549  -6811825.33445  23413181.762    23413187.952
 03  6 10 17  0  0.0000000  0 11G30G26G29G17G 6G15G23G21G10G18G16
  24631085.713    17509426.00249  13633805.82345  24631085.823    24631095.602
  21704783.252   -15234693.51349 -11847033.75346  21704783.391    21704790.040
  22706414.372    -7709343.89249  -5991989.76346  22706414.327    22706420.791
  20746151.836    -4156395.68049  -3232760.66747  20746151.368    20746157.506
  20420611.462    -2930796.40649  -2274199.56448  20420611.365    20420617.121
  22892350.627   -13976169.21949 -10865652.46446  22892350.146    22892357.687
  23711264.669    -6115585.20449  -4741875.24445  23711264.104    23711274.227
  20772999.816    -8985094.03149  -6812160.05347  20772999.382    20773003.671
  24085432.820    15513368.33849  12074152.33945  24085431.972    24085439.379
  21777220.122   -19316099.94849 -15028551.23147  21777219.834    21777225.823
  23407746.992    -9200592.17749  -6834080.83345  23407746.674    23407753.015
 03  6 10 17  0 30.0000000  0 11G30G26G29G17G 6G15G23G21G10G18G16
  24650680.825    17612398.20849  13714043.68645  24650680.909    24650690.681
  21697056.876   -15275296.10349 -11878672.13046  21697057.000    21697063.589
  22707907.851    -7701495.76849  -5985874.33746  22707907.773    22707914.253
  20746210.964    -4156085.01149  -3232518.59547  20746210.497    20746216.657
  20426156.921    -2901655.10749  -2251492.08648  20426156.816    20426162.563
  22878696.337   -14047923.14149 -10921564.55646  22878695.818    22878703.313
  23693569.984    -6208570.64949  -4814331.26545  23693569.403    23693579.460
  20768265.201    -9009974.59949  -6831547.50347  20768264.779    20768269.051
  24105385.711    15618221.42549  12155856.00745  24105384.969    24105392.251
  21762770.660   -19392032.28149 -15087719.23947  21762770.358    21762776.338
  23402414.703    -9228613.74249  -6855915.83145  23402414.316    23402420.751
 03  6 10 17  1  0.0000000  0 11G30G26G29G17G 6G15G23G21G10G18G16
  24670260.496    17715289.39649  13794218.41045  24670260.703    24670270.420
  21689441.478   -15315315.34449 -11909855.95246  21689441.622    21689448.179
  22709506.392    -7693095.54349  -5979328.70846  22709506.316    22709512.742
  20746307.320    -4155578.52249  -3232123.93847  20746306.881    20746313.022
  20431795.090    -2872026.58849  -2228404.95448  20431794.973    20431800.718
  22865061.556   -14119574.45749 -10977396.69146  22865061.058    22865068.526
  23675919.175    -6301325.74749  -4886607.80145  23675918.593    23675928.716
  20763570.225    -9034646.92149  -6850772.68547  20763569.800    20763574.047
  24125351.015    15723139.70549  12237610.46645  24125350.317    24125357.585
  21748389.252   -19467607.10449 -15146608.66847  21748388.954    21748394.857
  23397185.388    -9256094.23849  -6877329.21345  23397185.016    23397191.404
 03  6 10 17  1 30.0000000  0 11G30G26G29G17G 6G15G23G21G10G18G16
  24689823.860    17818094.75949  13874326.25745  24689824.180    24689834.016
  21681937.152   -15354751.16049 -11940585.14846  21681937.267    21681943.793
  22711209.530    -7684145.37349  -5972354.52146  22711209.467    22711215.904
  20746440.596    -4154878.34149  -3231578.34647  20746440.138    20746446.300
  20437525.529    -2841913.05049  -2204939.88348  20437525.405    20437531.160
  22851445.896   -14191125.00549 -11033150.32746  22851445.403    22851452.912
  23658311.963    -6393851.21949  -4958705.38445  23658311.422    23658321.610
  20758914.508    -9059113.04949  -6869837.20447  20758914.063    20758918.304
  24145327.899    15828118.56049  12319412.12445  24145327.178    24145334.455
  21734075.591   -19542825.78749 -15205220.58547  21734075.283    21734081.151
  23392058.620    -9283035.56849  -6898322.47245  23392058.195    23392064.719
 03  6 10 17  2  0.0000000  0 11G30G26G29G17G 6G15G23G21G10G18G16
  24709372.208    17920821.06649  13954372.50745  24709372.517    24709382.480
  21674545.979   -15393591.94149 -11970850.69446  21674546.084    21674552.626
  22713019.081    -7674635.74849  -5964944.42946  22713019.035    22713025.522
  20746612.380    -4153975.58349  -3230874.91847  20746611.939    20746618.097
  20443350.087    -2811305.07149  -2181089.54848  20443349.963    20443355.706
  22837851.144   -14262565.15549 -11088817.93746  22837850.705    22837858.232
  23640750.581    -6486136.16049  -5030615.53245  23640750.030    23640760.342
  20754299.834    -9083363.22349  -6888733.44747  20754299.378    20754303.618
  24165317.596    15933165.04549  12401266.48445  24165316.879    24165324.116
  21719831.799   -19617677.43249 -15263546.51347  21719831.474    21719837.302
  23387036.371    -9309427.76449  -6918887.84445  23387035.992    23387042.521
 03  6 10 17  2 30.0000000  0 11G30G26G29G17G 6G15G23G21G10G18G16
  24728902.115    18023450.49149  14034343.26345  24728902.586    24728912.490
  21667265.510   -15431850.88449 -12000662.85146  21667265.614    21667272.186
  22714932.214    -7664582.10749  -5957110.41246  22714932.120    22714938.683
  20746819.750    -4152885.97049  -3230025.88547  20746819.306    20746825.475
  20449265.793    -2780218.11549  -2156865.97647  20449265.638    20449271.397
  22824274.723   -14333910.21249 -11144411.45946  22824274.224    22824281.745
  23623232.301    -6578194.50549  -5102349.11845  23623231.767    23623242.007
  20749723.326    -9107413.11349  -6907473.62247  20749722.866    20749727.114
  24185317.044    16038262.06449  12483160.21645  24185316.243    24185323.526
  21705655.123   -19692176.35549 -15321597.58347  21705654.808    21705660.571
  23382115.901    -9335285.49449  -6939036.72745  23382115.488    23382121.930
 03  6 10 17  3  0.0000000  0 11G30G26G29G17G 6G15G23G21G10G18G16
  24748413.923    18125984.76349  14114239.86445  24748414.279    24748424.377
  21660096.951   -15469521.80949 -12030016.81046  21660097.067    21660103.648
  22716949.747    -7653980.02249  -5948849.03446  22716949.683    22716956.155
  20747063.685    -4151604.20049  -3229027.11347  20747063.217    20747069.376
  20455273.376    -2748647.89749  -2132265.83647  20455273.239    20455279.029
  22810717.055   -14405155.85749 -11199927.48846  22810716.580    22810724.104
  23605758.283    -6670020.46349  -5173901.65545  23605757.754    23605767.787
  20745185.855    -9131257.68849  -6926053.80247  20745185.407    20745189.618
  24205326.331    16143411.40849  12565094.74045  24205325.652    24205332.857
  21691546.623   -19766316.99149 -15379369.46647  21691546.305    21691552.036
  23377297.980    -9360603.97149  -6958765.40745  23377297.544    23377303.911
 03  6 10 17  3 30.0000000  0 11G30G26G29G17G 6G15G23G21G10G18G16
  24767908.945    18228430.63149  14194067.56845  24767909.183    24767919.357
  21653042.573   -15506592.98349 -12058903.41546  21653042.670    21653049.262
  22719073.380    -7642820.28749  -5940153.13046  22719073.293    22719079.773
  20747345.921    -4150121.15749  -3227871.50547  20747345.452    20747351.608
  20461374.708    -2716585.18849  -2107281.94047  20461374.585    20461380.373
  22797180.168   -14476292.56249 -11255358.66146  22797179.690    22797187.233
  23588330.529    -6761603.24249  -5245264.69545  23588330.069    23588339.978
  20740689.251    -9154887.57549  -6944466.68547  20740688.790    20740693.028
  24225346.882    16248620.23049  12647075.59345  24225346.242    24225353.549
  21677508.252   -19840088.87449 -15436854.01647  21677507.934    21677513.651
  23372584.538    -9385373.37049  -6978066.23645  23372584.167    23372590.529
 03  6 10 17  4  0.0000000  0 11G30G26G29G17G 6G15G23G21G10G18G16
  24787385.524    18330779.48549  14273819.69745  24787385.660    24787396.033
  21646101.538   -15543068.41649 -12087325.79546  21646101.656    21646108.211
  22721302.035    -7631108.91749  -5931027.37746  22721301.880    22721308.360
  20747665.243    -4148443.01849  -3226563.86547  20747664.791    20747670.978
  20467568.573    -2684036.23449  -2081919.14147  20467568.447    20467574.250
  22783662.910   -14547326.10849 -11310709.42546  22783662.439    22783669.919
  23570948.238    -6852947.35649  -5316441.74545  23570947.712    23570957.650
  20736232.335    -9178308.78949  -6962716.97147  20736231.885    20736236.088
  24245377.134    16353880.30449  12729096.39245  24245376.525    24245383.931
  21663539.187   -19913496.83049 -15494054.97147  21663538.854    21663544.547
  23367974.467    -9409599.23349  -6996943.53845  23367974.118    23367980.495
 03  6 10 17  4 30.0000000  0 10G26G29G17G 6G15G23G21G10G18G16
  21639274.636   -15578943.79249 -12115280.60246  21639274.752    21639281.338
  22723636.006    -7618843.62249  -5921470.00746  22723635.884    22723642.303
  20748022.149    -4146567.47149  -3225102.41547  20748021.713    20748027.901
  20473855.419    -2650998.73949  -2056175.67647  20473855.295    20473861.114
  22770165.686   -14618254.04349 -11365977.90346  22770165.223    22770172.752
  23553611.956    -6944049.10849  -5387429.98245  23553611.474    23553621.354
  20731815.602    -9201518.85549  -6980802.74147  20731815.163    20731819.343
  24265417.301    16459191.85049  12811157.29645  24265416.621    24265424.019
  21649639.985   -19986537.41449 -15550969.67647  21649639.656    21649645.335
  23363468.343    -9433278.96549  -7015395.32545  23363467.978    23363474.340
 03  6 10 17  5  0.0000000  0 10G26G29G17G 6G15G23G21G10G18G16
  21632562.434   -15614216.62749 -12142765.89846  21632562.549    21632569.109
  22726075.395    -7606023.93549  -5911480.62846  22726075.365    22726081.770
  20748416.811    -4144493.48749  -3223486.33947  20748416.360    20748422.539
  20480235.336    -2617472.20149  -2030051.14047  20480235.208    20480241.033
  22756688.698   -14689075.56749 -11421163.46046  22756688.252    22756695.791
  23536322.260    -7034906.56949  -5458227.85645  23536321.783    23536331.486
  20727439.230    -9224516.82249  -6998723.23247  20727438.813    20727442.984
  24285467.050    16564553.42749  12893257.15045  24285466.351    24285473.780
  21635811.083   -20059208.77949 -15607596.67947  21635810.730    21635816.400
  23359066.293    -9456411.77149  -7033420.88445  23359065.955    23359072.282
 03  6 10 17  5 30.0000000  0 10G26G29G17G 6G15G23G21G10G18G16
  21625964.495   -15648889.01349 -12169783.30746  21625964.606    21625971.185
  22728619.649    -7592654.26449  -5901062.71246  22728619.624    22728626.013
  20748848.362    -4142225.90649  -3221719.40647  20748847.921    20748854.061
  20486707.444    -2583461.02449  -2003548.96447  20486707.318    20486713.185
  22743231.279   -14759794.60749 -11476269.17046  22743230.839    22743238.311
  23519078.440    -7125522.41349  -5528837.44545  23519077.962    23519087.708
  20723102.534    -9247306.38449  -7016481.33247  20723102.095    20723106.254
  24305525.086    16669958.65449  12975391.03445  24305524.296    24305531.798
  21622051.793   -20131514.21749 -15663938.54347  21622051.435    21622057.096
  23354767.639    -9479001.13249  -7051022.97745  23354767.370    23354773.639
 03  6 10 17  6  0.0000000  0 10G26G29G17G 6G15G23G21G10G18G16
  21619481.098   -15682959.46549 -12196331.65346  21619481.205    21619487.776
  22731268.332    -7578735.14849  -5890216.64646  22731268.301    22731274.721
  20749316.818    -4139764.34749  -3219801.31047  20749316.357    20749322.498
  20493271.655    -2548965.92349  -1976669.69047  20493271.533    20493277.429
  22729793.372   -14830411.56749 -11531295.32146  22729792.892    22729800.359
  23501880.828    -7215895.71449  -5599258.05845  23501880.267    23501890.126
  20718805.298    -9269888.46949  -7034077.74547  20718804.850    20718809.031
  24325590.955    16775404.71749  13057556.73145  24325590.124    24325597.614
  21608362.278   -20203452.91749 -15719994.62647  21608361.932    21608367.590
  23350572.453    -9501047.20749  -7068201.74845  23350572.225    23350578.482
 03  6 10 17  6 30.0000000  0 10G26G29G17G 6G15G23G21G10G18G16
  21613113.183   -15716422.96049 -12222407.05746  21613113.323    21613119.871
  22734022.064    -7564263.75549  -5878940.23946  22734022.094    22734028.559
  20749822.583    -4137106.45449  -3217730.24047  20749822.127    20749828.307
  20499928.546    -2513984.00349  -1949411.08247  20499928.415    20499934.296
  22716375.440   -14900923.21349 -11586239.43446  22716374.941    22716382.365
  23484730.297    -7306022.11649  -5669486.29445  23484729.740    23484739.491
  20714548.254    -9292259.50249  -7051509.71147  20714547.807    20714551.970
  24345664.691    16880892.51049  13139754.94845  24345663.868    24345671.337
  21594743.299   -20275020.84049 -15775761.80247  21594742.980    21594748.638
  23346481.312    -9522546.66549  -7084954.59045  23346481.057    23346487.286
 03  6 10 17  7  0.0000000  0 10G26G29G17G 6G15G23G21G10G18G16
  21606860.691   -15749279.94349 -12248009.84346  21606860.802    21606867.352
  22736880.515    -7549242.48749  -5867235.35046  22736880.535    22736887.001
  20750365.386    -4134253.90849  -3215507.48647  20750364.941    20750371.139
  20506677.586    -2478517.79849  -1921775.11047  20506677.452    20506683.301
  22702977.216   -14971331.47249 -11641102.98346  22702976.736    22702984.070
  23467626.501    -7395902.64149  -5739522.93845  23467626.001    23467635.724
  20710330.922    -9314421.59949  -7068778.86447  20710330.507    20710334.678
  24365745.518    16986417.71049  13221982.33545  24365744.735    24365752.202
  21581194.677   -20346219.22549 -15831241.02647  21581194.330    21581200.021
  23342493.903    -9543501.50049  -7101283.06345  23342493.517    23342499.793
 03  6 10 17  7 30.0000000  0 10G26G29G17G 6G15G23G21G10G18G16
  21600724.367   -15781526.26249 -12273136.78746  21600724.500    21600731.047
  22739844.037    -7533669.23349  -5855100.35746  22739843.934    22739850.452
  20750945.725    -4131204.15749  -3213131.05747  20750945.279    20750951.488
  20513519.168    -2442565.18349  -1893760.12547  20513519.046    20513524.855
  22689599.164   -15041633.91249 -11695884.06246  22689598.627    22689605.926
  23450570.305    -7485533.55049  -5809365.10245  23450569.808    23450579.337
  20706153.815    -9336372.31249  -7085883.29747  20706153.388    20706157.569
  24385833.309    17091980.56149  13304239.04745  24385832.659    24385840.247
  21567716.978   -20417044.80149 -15886429.74247  21567716.621    21567722.333
  23338610.543    -9563909.18249  -7117185.15645  23338610.197    23338616.415
 03  6 10 17  8  0.0000000  0 10G26G29G17G 6G15G23G21G10G18G16
  21594704.499   -15813160.93049 -12297787.12246  21594704.617    21594711.106
  22742912.223    -7517545.30349  -5842536.25246  22742912.180    22742918.696
  20751563.325    -4127958.82749  -3210602.23247  20751562.882    20751569.085
  20520453.107    -2406127.32649  -1865367.02347  20520452.976    20520458.784
  22676241.101   -15111831.10949 -11750583.11046  22676240.535    22676247.809
  23433561.628    -7574914.33449  -5879012.36745  23433561.103    23433570.605
  20702016.817    -9358112.36449  -7102823.58447  20702016.392    20702020.585
  24405927.796    17197578.09349  13386522.77745  24405927.248    24405934.817
  21554310.212   -20487497.45349 -15941327.87247  21554309.882    21554315.622
  23334831.057    -9583770.30449  -7132661.37845  23334830.703    23334836.916
 03  6 10 17  8 30.0000000  0 10G26G29G17G 6G15G23G21G10G18G16
  21588801.597   -15844180.67149 -12321958.28746  21588801.723    21588808.193
  22746085.459    -7500869.27349  -5829541.94446  22746085.473    22746092.022
  20752218.429    -4124516.12649  -3207919.60747  20752217.978    20752224.204
  20527479.597    -2369202.97249  -1836594.82047  20527479.462    20527485.265
  22662903.173   -15181921.66149 -11805199.09346  22662902.689    22662910.022
  23416601.055    -7664042.17049  -5948462.53545  23416600.555    23416609.999
  20697920.279    -9379639.70849  -7119598.12447  20697919.848    20697924.044
  24426028.690    17303209.69049  13468833.05745  24426028.294    24426035.911
  21540974.931   -20557574.31949 -15995933.17247  21540974.604    21540980.389
  23331155.993    -9603082.95549  -7147710.20845  23331155.567    23331161.879
 03  6 10 17  9  0.0000000  0 10G26G29G17G 6G15G23G21G10G18G16
  21583015.775   -15874585.24249 -12345650.10246  21583015.889    21583022.355
  22749363.532    -7483643.15949  -5816119.00746  22749363.504    22749370.057
  20752910.938    -4120877.11749  -3205084.02147  20752910.489    20752916.705
  20534598.291    -2331793.97849  -1807444.98447  20534598.173    20534603.971
  22649585.502   -15251906.81749 -11859732.94546  22649584.949    22649592.260
  23399688.602    -7752917.14949  -6017715.65545  23399688.014    23399697.588
  20693863.878    -9400956.10549  -7136208.29247  20693863.446    20693867.637
  24446135.567    17408871.48249  13551166.84845  24446135.033    24446142.756
  21527711.026   -20627276.47849 -16050246.50547  21527710.696    21527716.469
  23327585.057    -9621848.68849  -7162332.88246  23327584.619    23327590.921
 03  6 10 17  9 30.0000000  0 10G26G29G17G 6G15G23G21G10G18G16
  21577347.095   -15904374.21849 -12368862.23046  21577347.213    21577353.628
  22752745.971    -7465868.46049  -5802268.59546  22752745.892    22752752.455
  20753640.551    -4117043.05949  -3202096.44447  20753640.094    20753646.318
  20541808.971    -2293901.79649  -1777918.63247  20541808.842    20541814.656
  22636287.675   -15321787.64049 -11914185.51246  22636287.094    22636294.345
  23382824.209    -7841539.26349  -6086771.75745  23382823.698    23382833.281
  20689847.472    -9422062.51949  -7152654.84047  20689847.027    20689851.213
  24466247.543    17514560.48349  13633521.84845  24466247.080    24466254.769
  21514518.362   -20696604.04349 -16104267.94347  21514518.049    21514523.813
  23324117.885    -9640068.77349  -7176530.36445  23324117.439    23324123.767
 03  6 10 17 10  0.0000000  0 10G26G29G17G 6G15G23G21G10G18G16
  21571796.430   -15933543.16549 -12391591.23346  21571796.556    21571802.893
  22756233.204    -7447542.90749  -5787988.95246  22756233.147    22756239.673
  20754407.766    -4113011.39049  -3198954.89147  20754407.283    20754413.502
  20549112.012    -2255524.23849  -1748014.08347  20549111.896    20549117.676
  22623010.117   -15391561.34749 -11968554.61446  22623009.516    22623016.750
  23366008.785    -7929904.50949  -6155627.71645  23366008.279    23366017.878
  20685871.522    -9442956.20849  -7168935.63047  20685871.069    20685875.277
  24486364.772    17620277.13349  13715898.38445  24486364.213    24486372.003
  21501397.747   -20765553.18249 -16157994.50347  21501397.442    21501403.154
  23320755.059    -9657740.29849  -7190300.41745  23320754.648    23320760.998
 03  6 10 17 10 30.0000000  0 10G26G29G17G 6G15G23G21G10G18G16
  21566363.828   -15962091.46449 -12413836.60746  21566363.937    21566370.269
  22759825.011    -7428667.72249  -5773281.01346  22759825.001    22759831.502
  20755212.375    -4108783.11449  -3195660.13147  20755211.916    20755218.116
  20556507.187    -2216662.63649  -1717732.34347  20556507.056    20556512.834
  22609752.793   -15461228.53649 -12022840.69846  22609752.214    22609759.468
  23349242.284    -8018012.67049  -6224283.33545  23349241.846    23349251.342
  20681935.917    -9463637.73849  -7185051.10847  20681935.474    20681939.680
  24506486.628    17726018.33249  13798294.07245  24506485.982    24506493.812
  21488349.123   -20834124.24849 -16211426.45747  21488348.796    21488354.488
  23317496.606    -9674863.93249  -7203643.52445  23317496.114    23317502.587
 03  6 10 17 11  0.0000000  0 10G26G29G17G 6G15G23G21G10G18G16
  21561049.647   -15990017.27549 -12435596.94246  21561049.786    21561056.099
  22763521.400    -7409243.53749  -5758145.29746  22763521.332    22763527.818
  20756054.486    -4104357.93949  -3192211.95347  20756054.023    20756060.161
  20563994.363    -2177317.36349  -1687073.73147  20563994.223    20564000.027
  22596515.803   -15530789.08149 -12077043.66446  22596515.228    22596522.570
  23332524.994    -8105862.29449  -6292737.50945  23332524.559    23332534.049
  20678040.760    -9484106.81749  -7201001.04247  20678040.330    20678044.541
  24526612.828    17831782.04449  13880707.28445  24526612.149    24526620.135
  21475372.628   -20902316.06649 -16264562.90047  21475372.289    21475377.953
  23314342.446    -9691439.74649  -7216559.78346  23314341.877    23314348.307
 03  6 10 17 11 30.0000000  0 10G26G29G17G 6G15G23G21G10G18G16
  21555854.048   -16017319.98249 -12456871.72946  21555854.153    21555860.541
  22767322.036    -7389271.56549  -5742582.71846  22767321.951    22767328.345
  20756933.861    -4099736.92149  -3188611.16847  20756933.394    20756939.508
  20571573.331    -2137489.85849  -1656039.35047  20571573.176    20571578.988
  22583298.963   -15600243.85249 -12131164.20646  22583298.358    22583305.713
  23315856.997    -8193453.06849  -6360989.97745  23315856.539    23315865.914
  20674185.892    -9504364.33849  -7216786.12347  20674185.439    20674189.655
  24546742.806    17937565.35249  13963135.76245  24546742.223    24546749.864
  21462468.242   -20970128.95849 -16317404.07047  21462467.903    21462473.557
  23311292.240    -9707468.70649  -7229049.90745  23311291.738    23311298.173
 03  6 10 17 12  0.0000000  0 10G26G29G17G 6G15G23G21G10G18G16
  21550777.823   -16043995.23449 -12477657.59346  21550777.957    21550784.347
  22771227.222    -7368749.51249  -5726591.51146  22771227.187    22771233.564
  20757851.014    -4094917.16849  -3184855.52047  20757850.539    20757856.678
  20579244.476    -2097177.71249  -1624627.33347  20579244.356    20579250.178
  22570102.860   -15669589.81649 -12185199.97846  22570102.253    22570109.561
  23299239.015    -8280780.99149  -6429037.61645  23299238.502    23299247.900
  20670371.839    -9524407.39249  -7232404.08447  20670371.390    20670375.628
  24566876.610    18043369.02449  14045580.15545  24566876.076    24566883.747
  21449636.714   -21037559.12349 -16369947.01447  21449636.376    21449642.013
  23308346.578    -9722947.88249  -7241111.63345  23308346.208    23308352.643
 03  6 10 17 12 30.0000000  0 10G26G29G17G 6G15G23G21G10G18G16
  21545821.113   -16070042.77149 -12497954.34546  21545821.249    21545827.654
  22775236.697    -7347679.41649  -5710173.25746  22775236.662    22775243.026
  20758805.750    -4089899.88349  -3180945.95847  20758805.278    20758811.436
  20587007.535    -2056382.76149  -1592839.11347  20587007.411    20587013.260
  22556927.264   -15738828.09449 -12239151.84546  22556926.674    22556933.920
  23282671.084    -8367846.13949  -6496880.50445  23282670.513    23282679.780
  20666598.347    -9544237.12749  -7247855.83347  20666597.892    20666602.134
  24587013.609    18149189.58549  14128037.68545  24587012.965    24587020.804
  21436877.880   -21104607.06049 -16422192.12447  21436877.549    21436883.197
  23305505.402    -9737878.55649  -7252745.94845  23305505.025    23305511.420
 03  6 10 17 13  0.0000000  0 10G26G29G17G 6G15G23G21G10G18G16
  21540983.674   -16095463.64349 -12517762.78346  21540983.757    21540990.253
  22779350.071    -7326064.03149  -5693330.09046  22779349.974    22779356.298
  20759797.542    -4084687.98949  -3176884.74747  20759797.072    20759803.219
  20594861.917    -2015107.90049  -1560676.93547  20594861.774    20594867.665
  22543771.660   -15807960.99549 -12293021.61546  22543771.112    22543778.355
  23266152.750    -8454649.91049  -6564519.71145  23266152.208    23266161.430
  20662865.128    -9563855.56549  -7263142.92147  20662864.656    20662868.902
  24607153.057    18255022.60849  14210504.95545  24607152.523    24607160.180
  21424191.565   -21171274.01249 -16474140.35147  21424191.241    21424196.859
  23302768.106    -9752263.32849  -7263954.88445  23302767.719    23302774.101
 03  6 10 17 13 30.0000000  0 10G26G29G17G 6G15G23G21G10G18G16
  21536266.453   -16120252.27249 -12537078.56846  21536266.563    21536273.087
  22783567.870    -7303899.66749  -5676059.15146  22783567.724    22783573.991
  20760827.276    -4079276.67649  -3172668.15447  20760826.809    20760832.974
  20602808.255    -1973349.51549  -1528137.98947  20602808.123    20602814.027
  22530636.942   -15876984.06349 -12346805.81046  22530636.405    22530643.644
  23249685.294    -8541186.81549  -6631950.97445  23249684.759    23249693.913
  20659172.924    -9583258.21149  -7278261.86647  20659172.443    20659176.679
  24627295.270    18360870.12249  14292983.54345  24627294.638    24627302.422
  21411578.642   -21237555.24149 -16525788.03347  21411578.333    21411583.967
  23300135.480    -9766098.13649  -7274735.27845  23300135.022    23300141.459
 03  6 10 17 14  0.0000000  0 10G26G29G17G 6G15G23G21G10G18G16
  21531669.775   -16144407.81849 -12555901.04046  21531669.885    21531676.416
  22787889.692    -7281188.01649  -5658361.74946  22787889.612    22787895.871
  20761894.823    -4073666.79949  -3168296.83147  20761894.360    20761900.549
  20610846.459    -1931108.84749  -1495223.23247  20610846.328    20610852.230
  22517523.005   -15945898.08049 -12400505.02546  22517522.443    22517529.723
  23233268.677    -8627456.42749  -6699173.95045  23233268.094    23233277.275
  20655521.594    -9602446.01849  -7293213.39847  20655521.130    20655525.385
  24647439.699    18466729.04049  14375470.99145  24647438.903    24647446.708
  21399039.168   -21303450.59749 -16577135.02047  21399038.854    21399044.460
  23297607.290    -9779383.78949  -7285087.77945  23297606.902    23297613.293
 03  6 10 17 14 30.0000000  0 10G26G29G17G 6G15G23G21G10G18G16
  21527193.366   -16167931.43249 -12574231.10947  21527193.494    21527200.006
  22792315.101    -7257931.95149  -5640240.14546  22792315.079    22792321.334
  20762999.751    -4067860.58549  -3163772.52347  20762999.255    20763005.466
  20618975.821    -1888389.04449  -1461935.12247  20618975.680    20618981.568
  22504429.416   -16014705.08149 -12454120.78746  22504428.849    22504436.146
  23216902.631    -8713460.15149  -6766189.73945  23216902.143    23216911.234
  20651910.706    -9621421.22249  -7307999.27447  20651910.250    20651914.521
  24667585.484    18572595.19649  14457964.04845  24667584.627    24667592.479
  21386572.718   -21368962.04749 -16628182.86547  21386572.394    21386578.012
  23295183.222    -9792123.05249  -7295014.51445  23295182.720    23295189.098
 03  6 10 17 15  0.0000000  0 10G26G29G17G 6G15G23G21G10G18G16
  21522838.189   -16190818.26349 -12592064.98147  21522838.279    21522844.771
  22796844.733    -7234128.90549  -5621692.32146  22796844.663    22796850.936
  20764142.627    -4061854.58249  -3159092.53047  20764142.144    20764148.372
  20627196.900    -1845187.24549  -1428271.43747  20627196.749    20627202.684
  22491356.745   -16083401.84949 -12507650.67746  22491356.238    22491363.585
  23200587.979    -8799193.45349  -6832994.79946  23200587.508    23200596.669
  20648340.990    -9640180.28849  -7322616.72747  20648340.541    20648344.798
  24687732.955    18678470.28949  14540464.08945  24687732.029    24687739.695
  21374180.130   -21434085.29949 -16678928.21847  21374179.813    21374185.409
  23292863.559    -9804312.62749  -7304512.90645  23292863.167    23292869.499
 03  6 10 17 15 30.0000000  0 10G26G29G17G 6G15G23G21G10G18G16
  21518603.782   -16213070.11949 -12609404.07347  21518603.870    21518610.379
  22801477.778    -7209782.34649  -5602720.97946  22801477.646    22801483.883
  20765322.892    -4055652.41349  -3154259.68047  20765322.387    20765328.637
  20635508.953    -1801507.20349  -1394235.08347  20635508.824    20635514.782
  22478304.605   -16151991.20849 -12561096.88446  22478304.004    22478311.351
  23184324.496    -8884658.25849  -6899590.64245  23184324.016    23184333.128
  20644811.869    -9658726.08549  -7337067.99747  20644811.404    20644815.643
  24707881.010    18784348.69149  14622966.69845  24707880.140    24707887.575
  21361861.027   -21498822.46549 -16729372.72747  21361860.722    21361866.308
  23290648.031    -9815955.72349  -7313585.49145  23290647.630    23290653.877
 03  6 10 17 16  0.0000000  0  9G26G29G17G 6G15G23G21G18G16
  21514491.101   -16234681.94049 -12626244.43947  21514491.218    21514497.763
  22806214.693    -7184889.36949  -5583323.85346  22806214.616    22806220.874
  20766541.233    -4049249.93049  -3149270.74247  20766540.753    20766546.996
  20643912.631    -1757345.70749  -1359823.57547  20643912.527    20643918.469
  22465273.604   -16220469.22949 -12614456.34146  22465273.065    22465280.361
  23168112.973    -8969849.72049  -6965973.50345  23168112.540    23168121.602
  20641324.111    -9677054.51449  -7351349.89147  20641323.639    20641327.867
  21349616.247   -21563169.08749 -16779512.91647  21349615.949    21349621.526
  23288537.186    -9827048.58849  -7322229.31845  23288536.791    23288542.972
 03  6 10 17 16 30.0000000  0  9G26G29G17G 6G15G23G21G18G16
  21510500.337   -16255653.34049 -12642585.77447  21510500.420    21510507.033
  22811055.291    -7159451.63249  -5563502.23346  22811055.205    22811061.523
  20767797.622    -4042647.78149  -3144126.21547  20767797.133    20767803.380
  20652407.664    -1712704.31149  -1325038.12047  20652407.546    20652413.475
  22452263.736   -16288836.67549 -12667729.63346  22452263.202    22452270.445
  23151953.519    -9054767.73249  -7032143.27345  23151953.037    23151962.192
  20637877.517    -9695166.44249  -7365463.08247  20637877.065    20637881.273
  21337445.709   -21627125.55449 -16829349.09347  21337445.404    21337450.964
  23286530.696    -9837592.73849  -7330445.56245  23286530.270    23286536.491
 03  6 10 17 17  0.0000000  0  9G26G29G17G 6G15G23G21G18G16
  21506631.516   -16275984.07249 -12658427.88847  21506631.629    21506638.208
  22815999.300    -7133470.84049  -5543257.46846  22815999.232    22816005.522
  20769091.754    -4035847.06349  -3138826.95947  20769091.257    20769097.519
  20660993.735    -1667584.46049  -1289879.84447  20660993.622    20660999.555
  22439274.746   -16357094.16249 -12720917.24446  22439274.254    22439281.432
  23135846.228    -9139411.96149  -7098099.71646  23135845.778    23135854.840
  20634471.990    -9713062.62949  -7379408.16747  20634471.543    20634475.743
  21325349.388   -21690691.86049 -16878881.24447  21325349.078    21325354.657
  23284628.507    -9847589.12049  -7338234.99345  23284628.107    23284634.252
 03  6 10 17 17 30.0000000  0  9G26G29G17G 6G15G23G21G18G16
  21502884.826   -16295673.02349 -12673769.92147  21502884.923    21502891.488
  22821046.545    -7106947.85249  -5522590.20746  22821046.388    22821052.685
  20770423.706    -4028847.47549  -3133372.74647  20770423.235    20770429.500
  20669670.664    -1621987.17649  -1254349.54047  20669670.545    20669676.512
  22426306.648   -16425241.93449 -12774019.37846  22426306.151    22426313.256
  23119791.212    -9223781.73749  -7163842.29746  23119790.722    23119799.780
  20631107.577    -9730742.88949  -7393185.00147  20631107.112    20631111.310
  21313327.416   -21753867.56849 -16928109.04847  21313327.111    21313332.661
  23282830.375    -9857038.31849  -7345598.04545  23282829.952    23282836.164
 03  6 10 17 18  0.0000000  0  9G26G29G17G 6G15G23G21G18G16
  21499260.482   -16314718.93549 -12688610.87947  21499260.582    21499267.135
  22826196.662    -7079883.49249  -5501501.09646  22826196.523    22826202.892
  20771793.515    -4021649.22249  -3127763.72847  20771793.007    20771799.299
  20678438.307    -1575913.10449  -1218447.71147  20678438.195    20678444.153
  22413359.440   -16493279.43149 -12827035.57046  22413358.974    22413366.030
  23103788.592    -9307875.60649  -7229369.88346  23103788.080    23103797.145
  20627784.307    -9748206.79849  -7406793.24747  20627783.862    20627788.055
  21301379.901   -21816652.01049 -16977031.95647  21301379.592    21301385.143
  23281136.327    -9865940.63949  -7352534.94745  23281135.895    23281142.182
 03  6 10 17 18 30.0000000  0  9G26G29G17G 6G15G23G21G18G16
  21495758.625   -16333121.53849 -12702950.55847  21495758.696    21495765.197
  22831449.479    -7052279.33949  -5479991.37446  22831449.377    22831455.833
  20773200.935    -4014253.05749  -3122000.49047  20773200.473    20773206.732
  20687296.407    -1529363.75049  -1182175.53947  20687296.263    20687302.251
  22400433.188   -16561207.47749 -12879966.47846  22400432.663    22400439.756
  23087838.503    -9391693.46149  -7294682.40646  23087838.003    23087847.045
  20624501.957    -9765455.48349  -7420233.78947  20624501.515    20624505.717
  21289506.927   -21879045.05949 -17025649.88847  21289506.591    21289512.127
  23279546.144    -9874297.14549  -7359046.55645  23279545.716    23279551.955
 03  6 10 17 19  0.0000000  0 10G 2G26G29G17G 6G15G23G21G18G16
  25241260.924    -4556851.13649  -3528657.91845  25241260.269    25241268.834
  21492379.599   -16350878.29949 -12716786.99047  21492379.705    21492386.186
  22836805.222    -7024134.89149  -5458060.64346  22836805.069    22836811.574
  20774646.345    -4006657.48049  -3116081.87247  20774645.852    20774652.147
  20696244.991    -1482338.56249  -1145532.58747  20696244.868    20696250.861
  22387528.001   -16629024.65849 -12932811.00246  22387527.497    22387534.525
  23071941.408    -9475233.03649  -7359778.08046  23071940.918    23071949.917
  20621260.984    -9782487.09449  -7433505.18347  20621260.528    20621264.720
  21277708.633   -21941045.06349 -17073961.54347  21277708.339    21277713.865
  23278060.040    -9882106.85549  -7365132.09145  23278059.545    23278065.821
 03  6 10 17 19 30.0000000  0 10G 2G26G29G17G 6G15G23G21G18G16
  25233520.561    -4597527.05849  -3560353.44845  25233519.968    25233528.531
  21489123.722   -16367987.98849 -12730119.20747  21489123.809    21489130.334
  22842263.704    -6995450.90749  -5435709.48146  22842263.480    22842270.004
  20776129.683    -3998862.49049  -3110007.86647  20776129.235    20776135.486
  20705284.106    -1434837.91549  -1108519.14347  20705283.990    20705289.992
  22374644.026   -16696730.31349 -12985568.61846  22374643.507    22374650.539
  23056097.503    -9558492.89349  -7424655.80046  23056096.997    23056105.990
  20618061.363    -9799301.14749  -7446607.04547  20618060.923    20618065.075
  21265985.419   -22002651.03549 -17121966.15647  21265985.095    21265990.603
  23276677.833    -9889369.97449  -7370791.69545  23276677.342    23276683.700
 03  6 10 17 20  0.0000000  0 10G 2G26G29G17G 6G15G23G21G18G16
  25225857.255    -4637798.55249  -3591733.95845  25225856.543    25225864.962
  21485991.370   -16384448.57149 -12742945.63047  21485991.458    21485997.994
  22847824.745    -6966227.23249  -5412937.78346  22847824.630    22847831.110
  20777651.185    -3990867.43449  -3103777.97347  20777650.712    20777656.922
  20714413.700    -1386861.85849  -1071135.25347  20714413.570    20714419.611
  22361781.445   -16764323.52349 -13038238.63146  22361780.961    22361787.951
  23040307.135    -9641471.26149  -7489314.17646  23040306.627    23040315.617
  20614903.308    -9815896.67649  -7459538.63147  20614902.860    20614907.039
  21254337.411   -22063861.54749 -17169662.63247  21254337.099    21254342.568
  23275399.612    -9896086.06849  -7376025.05345  23275399.247    23275405.678
 03  6 10 17 20 30.0000000  0 10G 2G26G29G17G 6G15G23G21G18G16
  25218270.974    -4677664.91849  -3622798.65245  25218270.335    25218278.528
  21482982.633   -16400259.46049 -12755265.79347  21482982.730    21482989.216
  22853488.149    -6936465.34649  -5389746.68946  22853488.170    22853494.616
  20779210.729    -3982671.90349  -3097391.86047  20779210.272    20779216.497
  20723633.520    -1338411.52849  -1033381.79447  20723633.407    20723639.463
  22348940.199   -16831804.50549 -13090821.16846  22348939.661    22348946.750
  23024570.530    -9724167.40149  -7553752.63146  23024570.042    23024578.933
  20611786.830    -9832273.56649  -7472299.84847  20611786.397    20611790.629
  21242764.712   -22124676.31649 -17217050.72647  21242764.410    21242769.856
  23274225.555    -9902256.08149  -7380832.91245  23274225.139    23274231.581
 03  6 10 17 21  0.0000000  0 10G 2G26G29G17G 6G15G23G21G18G16
  25210762.070    -4717124.85749  -3653546.68145  25210761.444    25210769.420
  21480097.826   -16415419.18149 -12767078.55547  21480097.947    21480104.384
  22859254.044    -6906165.37049  -5366136.32146  22859254.067    22859260.456
  20780808.541    -3974275.43549  -3090849.17647  20780808.086    20780814.304
  20732943.589    -1289487.10849   -995258.92047  20732943.462    20732949.519
  22336120.497   -16899172.32749 -13143315.54146  22336119.946    22336127.048
  23008887.883    -9806579.86449  -7617970.04846  23008887.449    23008896.306
  20608712.104    -9848431.31349  -7484890.30247  20608711.676    20608715.938
  21231267.581   -22185094.22949 -17264129.59047  21231267.269    21231272.672
  23273155.530    -9907879.66649  -7385214.97145  23273155.040    23273161.521
 03  6 10 17 21 30.0000000  0 10G 2G26G29G17G 6G15G23G21G18G16
  25203330.408    -4756178.11549  -3683977.69545  25203329.878    25203338.210
  21477337.105   -16429927.01249 -12778383.34947  21477337.209    21477343.625
  22865122.186    -6875329.02549  -5342107.99946  22865122.075    22865128.388
  20782444.573    -3965678.10349  -3084149.96747  20782444.113    20782450.353
  20742343.573    -1240089.93349   -956767.66347  20742343.434    20742349.523
  22323322.310   -16966427.32149 -13195721.97946  22323321.716    22323328.817
  22993259.274    -9888708.09049  -7681965.95846  22993258.828    22993267.792
  20605679.018    -9864370.22249  -7497310.22847  20605678.596    20605682.860
  21219845.991   -22245115.09049 -17310899.05947  21219845.667    21219851.068
  23272189.234    -9912957.88749  -7389172.06445  23272188.779    23272195.261
 03  6 10 17 22  0.0000000  0 10G 2G26G29G17G 6G15G23G21G18G16
  25195976.434    -4794823.84049  -3714091.21745  25195975.848    25195984.013
  21474700.624   -16443781.77749 -12789179.26347  21474700.754    21474707.155
  22871092.267    -6843956.45349  -5317661.84346  22871092.072    22871098.374
  20784118.945    -3956879.26649  -3077293.75047  20784118.474    20784124.716
  20751833.471    -1190220.31949   -917908.27447  20751833.345    20751839.456
  22310545.732   -17033568.59749 -13248039.81446  22310545.151    22310552.241
  22977685.134    -9970550.54349  -7745739.20046  22977684.670    22977693.562
  20602687.791    -9880089.32849  -7509558.88447  20602687.366    20602691.615
  21208500.149   -22304737.82949 -17357358.31147  21208499.831    21208505.203
  23271326.703    -9917490.73249  -7392704.17845  23271326.226    23271332.762
 03  6 10 17 22 30.0000000  0 10G 2G26G29G17G 6G15G23G21G18G16
  25188699.745    -4833062.06749  -3743887.25844  25188699.148    25188707.895
  21472188.454   -16456983.43649 -12799466.26247  21472188.563    21472194.881
  22877163.752    -6812050.02149  -5292799.68946  22877163.659    22877169.908
  20785831.360    -3947880.37549  -3070281.63947  20785830.889    20785837.158
  20761412.917    -1139880.23449   -878682.28247  20761412.783    20761418.922
  22297790.552   -17100597.11949 -13300269.79146  22297790.011    22297797.084
  22962165.378   -10052107.22349  -7809289.76546  22962164.924    22962173.742
  20599738.195    -9895589.68049  -7521637.07747  20599737.778    20599742.046
  21197229.964   -22363962.83049 -17403507.63847  21197229.663    21197235.028
  23270567.653    -9921479.87749  -7395812.64245  23270567.202    23270573.730
 03  6 10 17 23  0.0000000  0 10G 2G26G29G17G 6G15G23G21G18G16
  25181501.000    -4870891.39049  -3773364.68444  25181500.320    25181509.016
  21469800.891   -16469530.27949 -12809243.01747  21469801.006    21469807.272
  22883336.876    -6779609.66949  -5267521.48746  22883336.866    22883343.113
  20787582.047    -3938680.47749  -3063112.90147  20787581.577    20787587.881
  20771081.860    -1089069.65849   -839089.67247  20771081.739    20771087.889
  22285057.009   -17167511.86749 -13352411.11246  22285056.497    22285063.650
  22946700.298   -10133376.31949  -7872616.22546  22946699.830    22946708.611
  20596830.458    -9910869.98049  -7533543.80247  20596830.031    20596834.288
  21186035.772   -22422788.68249 -17449345.93447  21186035.463    21186040.827
  23269912.094    -9924925.00749  -7398497.20145  23269911.596    23269918.188
 03  6 10 17 23 30.0000000  0 10G 2G26G29G17G 6G15G23G21G18G16
  25174380.586    -4908310.13149  -3802522.16344  25174379.949    25174388.173
  21467538.228   -16481420.63149 -12818508.22447  21467538.333    21467544.593
  22889611.739    -6746635.58449  -5241827.41246  22889611.702    22889617.869
  20789371.226    -3929278.07949  -3055786.37647  20789370.798    20789377.107
  20780840.342    -1037788.66049   -799130.50347  20780840.233    20780846.406
  22272345.444   -17234311.49249 -13404462.72546  22272344.936    22272352.098
  22931290.306   -10214355.88449  -7935717.09046  22931289.828    22931298.627
  20593964.852    -9925929.09949  -7545278.18547  20593964.405    20593968.655
  21174917.761   -22481213.94849 -17494872.09147  21174917.470    21174922.840
  23269360.143    -9927825.60549  -7400757.45145  23269359.707    23269366.238
 03  6 10 17 24  0.0000000  0 10G 2G26G29G17G 6G15G23G21G18G16
  25167338.062    -4945317.87449  -3831359.33444  25167337.414    25167345.708
  21465400.681   -16492653.62449 -12827261.20347  21465400.782    21465407.000
  22895987.978    -6713129.00149  -5215718.40646  22895987.817    22895993.984
  20791199.052    -3919673.13949  -3048302.02347  20791198.603    20791204.892
  20790688.156     -986038.25749   -758805.56647  20790688.026    20790694.217
  22259655.770   -17300995.96249 -13456424.60746  22259655.241    22259662.447
  22915935.576   -10295045.31749  -7998591.87746  22915935.059    22915943.795
  20591141.322    -9940766.83249  -7556840.05747  20591140.880    20591145.115
  21163876.100   -22539238.29849 -17540085.84747  21163875.813    21163881.158
  23268911.741    -9930182.53449  -7402594.04745  23268911.258    23268917.737
 03  6 10 17 24 30.0000000  0 10G 2G26G29G17G 6G15G23G21G18G16
  25160374.043    -4981914.15749  -3859875.96844  25160373.637    25160381.763
  21463388.270   -16503228.89049 -12835501.65947  21463388.386    21463394.605
  22902465.183    -6679091.04249  -5189195.33446  22902464.953    22902471.194
  20793065.244    -3909866.38049  -3040660.40147  20793064.791    20793071.059
  20800625.091     -933819.57249   -718115.73347  20800624.947    20800631.156
  22246988.085   -17367565.21349 -13508296.71746  22246987.541    22246994.673
  22900636.159   -10375443.91549  -8061240.03346  22900635.640    22900644.324
  20588359.932    -9955383.36549  -7568229.56147  20588359.465    20588363.701
  21152910.816   -22596861.34749 -17584986.90047  21152910.505    21152915.868
  23268566.515    -9931996.74149  -7404007.77445  23268566.156    23268572.571
 03  6 10 17 25  0.0000000  0 10G 2G26G29G17G 6G15G23G21G18G16
  25153488.516    -5018097.81249  -3888071.10044  25153487.963    25153496.111
  21461501.268   -16513145.11249 -12843228.57847  21461501.411    21461507.591
  22909043.177    -6644522.55049  -5162258.84946  22909043.130    22909049.355
  20794970.128    -3899856.52849  -3032860.52847  20794969.672    20794975.905
  20810651.028     -881133.04649   -677061.35447  20810650.896    20810657.122
  22234342.454   -17434018.45649 -13560078.42646  22234341.945    22234348.991
  22885392.371   -10455550.07649  -8123660.32546  22885391.873    22885400.552
  20585620.749    -9969777.70249  -7579445.93247  20585620.302    20585624.522
  21142022.069   -22654082.07049 -17629574.45547  21142021.773    21142027.112
  23268324.742    -9933268.09349  -7404998.46345  23268324.324    23268330.647
 03  6 10 17 25 30.0000000  0 10G 2G26G29G17G 6G15G23G21G18G16
  25146681.413    -5053869.19149  -3915944.93144  25146680.755    25146689.000
  21459739.738   -16522402.26149 -12850441.93447  21459739.791    21459745.986
  22915721.893    -6609425.21549  -5134910.29546  22915721.866    22915728.186
  20796913.357    -3889644.84549  -3024903.38847  20796912.897    20796919.111
  20820765.689     -827980.38849   -635643.74847  20820765.554    20820771.784
  22221718.703   -17500356.56749 -13611770.41646  22221718.175    22221725.253
  22870204.247   -10535363.82349  -8185852.76346  22870203.778    22870212.341
  20582923.797    -9983950.44049  -7590489.62647  20582923.349    20582927.580
  21131209.726   -22710901.10649 -17673849.00647  21131209.418    21131214.776
  23268185.899    -9933998.35549  -7405567.62345  23268185.470    23268191.705
 03  6 10 17 26  0.0000000  0 10G 2G26G29G17G 6G15G23G21G18G16
  25139953.295    -5089227.31449  -3943496.79345  25139952.702    25139960.662
  21458103.692   -16530999.37849 -12857140.98547  21458103.784    21458110.035
  22922501.247    -6573800.13949  -5107150.51846  22922501.113    22922507.431
  20798895.198    -3879230.38149  -3016788.23247  20798894.725    20798900.948
  20830968.869     -774362.38149   -593863.54147  20830968.720    20830974.976
  22209116.991   -17566578.75749 -13663372.09046  22209116.449    22209123.555
  22855072.005   -10614883.81849  -8247816.30046  22855071.523    22855080.080
  20580269.057    -9997901.04849  -7601360.23847  20580268.607    20580272.897
  21120474.027   -22767317.59249 -17717809.88647  21120473.720    21120479.063
  23268149.907    -9934187.58849  -7405715.08745  23268149.515    23268155.741
 03  6 10 17 26 30.0000000  0 10G 2G26G29G17G 6G15G23G21G18G16
  25133303.769    -5124171.25049  -3970725.85145  25133302.946    25133311.248
  21456593.430   -16538935.61849 -12863325.05247  21456593.539    21456599.834
  22929380.916    -6537648.06549  -5078980.09446  22929380.650    22929386.905
  20800915.635    -3868612.81749  -3008514.81447  20800915.176    20800921.398
  20841260.476     -720279.80549   -551721.33447  20841260.336    20841266.600
  22196537.461   -17632684.48649 -13714883.00446  22196536.907    22196543.998
  22839995.969   -10694108.83449  -8309549.99046  22839995.490    22840003.989
  20577656.706   -10011628.97049  -7612057.31947  20577656.265    20577660.551
  21109815.062   -22823330.73649 -17761456.47747  21109814.759    21109820.097
  23268216.738    -9933836.67649  -7405441.70545  23268216.299    23268222.617
 03  6 10 17 27  0.0000000  0 10G 2G26G29G17G 6G15G23G21G18G16
  25126733.144    -5158700.25949  -3997631.57845  25126732.425    25126740.793
  21455209.169   -16546210.05749 -12868993.44147  21455209.278    21455215.549
  22936360.550    -6500969.91249  -5050399.72446  22936360.308    22936366.552
  20802974.941    -3857791.34549  -3000082.50747  20802974.461    20802980.684
  20851640.341     -665733.42049   -509217.71147  20851640.210    20851646.494
  22183980.180   -17698673.36649 -13766302.87646  22183979.631    22183986.674
  22824976.154   -10773037.98149  -8371053.13946  22824975.659    22824984.166
  20575086.875   -10025133.79149  -7622580.55847  20575086.424    20575090.690
  21099233.023   -22878939.60949 -17804788.05047  21099232.725    21099238.082
  23268386.249    -9932945.92749  -7404747.68245  23268385.882    23268392.179
 03  6 10 17 27 30.0000000  0 10G 2G26G29G17G 6G15G23G21G18G16
  25120241.752    -5192813.40349  -4024213.32345  25120241.149    25120249.133
  21453951.019   -16552821.74749 -12874145.39347  21453951.139    21453957.390
  22943440.004    -6463766.40849  -5021409.99546  22943439.917    22943446.152
  20805072.972    -3846765.92149  -2991491.27647  20805072.518    20805078.742
  20862108.343     -610723.80949   -466353.12447  20862108.213    20862114.543
  22171445.282   -17764544.68049 -13817631.13346  22171444.699    22171451.756
  22810012.933   -10851669.79849  -8432324.59946  22810012.437    22810020.952
  20572559.579   -10038414.80649  -7632929.39847  20572559.134    20572563.363
  21088728.080   -22934143.52049 -17847804.06747  21088727.768    21088733.121
  23268658.546    -9931515.43249  -7403633.02245  23268658.143    23268664.536
 03  6 10 17 28  0.0000000  0 10G 2G26G29G17G 6G15G23G21G18G16
  25113829.289    -5226509.78449  -4050470.27545  25113828.728    25113836.982
  21452819.166   -16558769.85749 -12878780.27647  21452819.262    21452825.494
  22950619.233    -6426038.81349  -4992011.87246  22950619.277    22950625.521
  20807209.877    -3835536.46249  -2982741.05447  20807209.409    20807215.640
  20872664.320     -555251.95549   -423128.36347  20872664.205    20872670.575
  22158932.749   -17830297.96549 -13868867.43046  22158932.200    22158939.254
  22795106.486   -10930003.40249  -8493363.69246  22795105.937    22795114.454
  20570074.952   -10051471.79649  -7643103.67547  20570074.474    20570078.698
  21078300.231   -22988942.10949 -17890504.24547  21078299.907    21078305.284
  23269033.384    -9929546.11149  -7402098.52345  23269032.954    23269039.364
 03  6 10 17 28 30.0000000  0 10G 2G26G29G17G 6G15G23G21G18G16
  25107496.488    -5259789.88349  -4076402.85645  25107495.912    25107504.196
  21451813.410   -16564055.04449 -12882898.60047  21451813.529    21451819.804
  22957898.023    -6387789.26349  -4962207.05446  22957897.948    22957904.120
  20809385.483    -3824103.49349  -2973832.26447  20809385.032    20809391.313
  20883307.907     -499319.75049   -379544.89147  20883307.797    20883314.170
  22146442.643   -17895933.94149 -13920012.32346  22146442.097    22146449.075
  22780256.773   -11008039.01949  -8554170.57946  22780256.177    22780264.683
  20567632.899   -10064304.83949  -7653103.45347  20567632.454    20567636.648
  21067949.458   -23043335.74349 -17932888.87847  21067949.133    21067954.485
  23269510.320    -9927039.48949  -7400145.33346  23269510.003    23269516.448
 03  6 10 17 29  0.0000000  0 10G 2G26G29G17G 6G15G23G21G18G16
  25101242.998    -5292651.91749  -4102009.69045  25101242.183    25101250.596
  21450934.224   -16568675.26449 -12886498.76547  21450934.317    21450940.627
  22965276.183    -6349017.57149  -4931995.36546  22965276.000    22965282.188
  20811600.230    -3812465.11349  -2964763.41147  20811599.739    20811606.033
  20894039.235     -442926.73549   -335602.34247  20894039.108    20894045.478
  22133975.215   -17961450.65449 -13971064.28346  22133974.638    22133981.607
  22765464.198   -11085774.21749  -8614743.37946  22765463.637    22765472.119
  20565233.836   -10076912.11549  -7662927.30847  20565233.365    20565237.543
  21057676.115   -23097322.31549 -17974956.30947  21057675.794    21057681.142
  23270089.716    -9923995.49749  -7397773.43146  23270089.323    23270095.746
 03  6 10 17 29 30.0000000  0 10G 2G26G29G17G 6G15G23G21G18G16
  25095069.097    -5325096.08049  -4127290.93145  25095068.315    25095076.965
  21450181.535   -16572630.50349 -12889580.75847  21450181.658    21450187.910
  22972753.271    -6309725.54749  -4901378.20146  22972753.044    22972759.248
  20813853.800    -3800622.23749  -2955535.21047  20813853.339    20813859.667
  20904857.902     -386074.65749   -291302.08147  20904857.758    20904864.101
  22121530.358   -18026848.50149 -14022023.61046  22121529.764    22121536.839
  22750728.806   -11163208.68149  -8675081.84046  22750728.228    22750736.726
  20562877.558   -10089294.40049  -7672575.84847  20562877.086    20562881.311
  21047480.151   -23150902.36249 -18016706.97047  21047479.833    21047485.179
  23270771.083    -9920415.23449  -7394983.65146  23270770.691    23270777.123
 03  6 10 17 30  0.0000000  0 10G 2G26G29G17G 6G15G23G21G18G16
  25088974.795    -5357122.39349  -4152246.50045  25088974.025    25088982.739
  21449555.363   -16575920.97649 -12892144.75647  21449555.492    21449561.765
  22980328.793    -6269915.12249  -4870357.10446  22980328.729    22980334.917
  20816146.326    -3788575.13449  -2946147.87247  20816145.852    20816152.154
  20915763.600     -328765.30449   -246645.49947  20915763.448    20915769.796
  22109108.062   -18092127.84449 -14072890.60246  22109107.473    22109114.557
  22736050.708   -11240342.16149  -8735185.77146  22736050.190    22736058.645
  20560564.036   -10101452.03149  -7682049.33047  20560563.578    20560567.776
  21037361.552   -23204076.02449 -18058140.96647  21037361.228    21037366.544
  23271554.083    -9916300.35049  -7391777.29345  23271553.718    23271560.187
 03  6 10 17 30 30.0000000  0 10G 2G26G29G17G 6G15G23G21G18G16
  25082960.281    -5388728.63249  -4176874.76045  25082959.478    25082968.194
  21449056.161   -16578544.40149 -12894188.97647  21449056.297    21449062.634
  22988003.124    -6229585.72249  -4838931.60046  22988003.157    22988009.330
  20818478.072    -3776321.77549  -2936599.82047  20818477.608    20818483.885
  20926756.368     -270998.00149   -201632.07847  20926756.238    20926762.599
  22096708.806   -18157286.40049 -14123663.47646  22096708.247    22096715.278
  22721430.413   -11317172.12849  -8795053.20946  22721429.912    22721438.343
  20558293.723   -10113382.69449  -7691345.96247  20558293.260    20558297.446
  21027320.692   -23256841.05649 -18099256.55647  21027320.349    21027325.687
  23272439.026    -9911649.92049  -7388153.63845  23272438.666    23272445.166
 03  6 10 17 31  0.0000000  0 10G 2G26G29G17G 6G15G23G21G18G16
  25077025.827    -5419915.08149  -4201175.93945  25077025.216    25077033.667
  21448683.822   -16580501.11949 -12895713.68047  21448683.935    21448690.288
  22995776.028    -6188739.43849  -4807103.33246  22995775.966    22995782.142
  20820849.027    -3763862.53849  -2926891.33747  20820848.556    20820854.832
  20937835.971     -212774.58449   -156263.23547  20937835.828    20937842.220
  22084332.400   -18222324.76449 -14174342.68146  22084331.845    22084338.864
  22706867.890   -11393698.44549  -8854684.03446  22706867.393    22706875.753
  20556066.486   -10125086.84049  -7700466.07847  20556066.042    20556070.226
  21017357.456   -23309198.00049 -18140054.14747  21017357.126    21017362.421
  23273425.589    -9906465.42849  -7384113.82745  23273425.203    23273431.768
 03  6 10 17 31 30.0000000  0 10G 2G26G29G17G 6G15G23G21G18G16
  25071171.100    -5450681.48649  -4225149.81145  25071170.350    25071178.855
  21448438.350   -16581791.01249 -12896718.77947  21448438.455    21448444.842
  23003647.048    -6147377.89249  -4774873.56446  23003646.797    23003652.998
  20823259.099    -3751197.41249  -2917022.43247  20823258.668    20823264.941
  20949002.056     -154096.43849   -110540.06547  20949001.918    20949008.356
  22071978.847   -18287242.94949 -14224928.24346  22071978.307    22071985.338
  22692363.190   -11469920.68549  -8914077.90146  22692362.694    22692371.055
  20553882.409   -10136564.29549  -7709409.55847  20553881.964    20553886.144
  21007471.952   -23361146.70849 -18180533.63947  21007471.620    21007476.896
  23274513.548    -9900748.24549  -7379658.94545  23274513.210    23274519.695
 03  6 10 17 32  0.0000000  0 10G 2G26G29G17G 6G15G23G21G18G16
  25065396.659    -5481027.02749  -4248795.72245  25065396.107    25065404.125
  21448319.977   -16582413.31949 -12897203.67847  21448320.047    21448326.489
  23011615.780    -6105502.15249  -4742243.14246  23011615.530    23011621.735
  20825708.568    -3738325.70249  -2906992.54247  20825708.102    20825714.357
  20960254.591      -94964.25649    -64463.09047  20960254.448    20960260.910
  22059648.416   -18352039.88449 -14275419.32146  22059647.863    22059654.865
  22677916.618   -11545837.51949  -8973233.80446  22677916.125    22677924.458
  20551741.624   -10147814.34549  -7718175.83347  20551741.186    20551745.368
  20997664.281   -23412686.24449 -18220694.28247  20997663.980    20997669.219
  23275702.859    -9894498.62849  -7374789.15445  23275702.596    23275708.988
 03  6 10 17 32 30.0000000  0 10G 2G26G29G17G 6G15G23G21G18G16
  25059702.260    -5510951.21349  -4272113.28445  25059701.529    25059709.711
  21448328.619   -16582367.80249 -12897168.19947  21448328.731    21448335.122
  23019682.042    -6063113.33749  -4709212.89246  23019681.906    23019688.035
  20828197.325    -3725247.30749  -2896801.60447  20828196.849    20828203.101
  20971593.296      -35379.23649    -18033.26047  20971593.158    20971599.621
  22047341.081   -18416715.32249 -14325815.73546  22047340.524    22047347.511
  22663528.421   -11621448.01549  -9032150.99946  22663527.887    22663536.183
  20549644.161   -10158836.56249  -7726764.58347  20549643.708    20549647.899
  20987934.540   -23463816.30749 -18260535.86447  20987934.216    20987939.481
  23276993.272    -9887717.59849  -7369505.29145  23276993.023    23276999.355
 03  6 10 17 33  0.0000000  0 10G 2G26G29G17G 6G15G23G21G18G16
  25054088.338    -5540453.77149  -4295102.37945  25054087.537    25054095.598
  21448464.463   -16581654.09849 -12896612.06747  21448464.547    21448470.895
  23027845.646    -6020212.80549  -4675783.89046  23027845.654    23027851.711
  20830725.475    -3711961.83249  -2886449.30247  20830724.999    20830731.250
  20983017.928       24657.49449     28748.54847  20983017.769    20983024.282
  22035056.917   -18481268.79549 -14376117.11046  22035056.368    22035063.355
  22649198.561   -11696751.45349  -9090828.94546  22649198.046    22649206.324
  20547590.172   -10169630.44349  -7735175.41247  20547589.720    20547593.922
  20978282.766   -23514536.65049 -18300058.18947  20978282.437    20978287.718
  23278384.544    -9880406.24649  -7363808.17845  23278384.279    23278390.657
 03  6 10 17 33 30.0000000  0 10G 2G26G29G17G 6G15G23G21G18G16
  25048554.523    -5569533.64249  -4317762.08745  25048553.826    25048561.893
  21448727.573   -16580271.38549 -12895534.62447  21448727.675    21448733.994
  23036106.532    -5976801.49149  -4641956.89946  23036106.545    23036112.598
  20833293.088    -3698468.72849  -2875935.21547  20833292.622    20833298.916
  20994528.376       85145.20149     75881.76847  20994528.251    20994534.765
  22022796.145   -18545699.40149 -14426322.74446  22022795.616    22022802.589
  22634927.375   -11771746.62349  -9149266.66746  22634926.906    22634935.158
  20545579.793   -10180195.08149  -7743407.60947  20545579.341    20545583.535
  20968709.128   -23564846.45749 -18339260.61847  20968708.805    20968714.070
  23279876.820    -9872565.05449  -7357698.21945  23279876.526    23279882.822
 03  6 10 17 34  0.0000000  0 10G 2G26G29G17G 6G15G23G21G18G16
  25043101.385    -5598190.91049  -4340092.45445  25043100.892    25043108.882
  21449117.968   -16578219.68649 -12893935.88547  21449118.085    21449124.409
  23044464.422    -5932881.19749  -4607733.28746  23044464.349    23044470.388
  20835900.269    -3684767.79849  -2865259.18147  20835899.807    20835906.137
  21006124.377      146082.27849    123365.14847  21006124.243    21006130.782
  22010558.860   -18610007.03649 -14476432.56246  22010558.277    22010565.238
  22620714.956   -11846433.21849  -9207463.94346  22620714.465    22620722.696
  20543613.050   -10190530.45349  -7751461.14847  20543612.593    20543616.779
  20959213.594   -23614745.80449 -18378143.20447  20959213.259    20959218.537
  23281469.581    -9864195.20249  -7351176.31045  23281469.304    23281475.588
 03  6 10 17 34 30.0000000  0 10G 2G26G29G17G 6G15G23G21G18G16
  25037728.469    -5626425.32249  -4362093.28045  25037727.901    25037735.827
  21449635.643   -16575499.17649 -12891815.99247  21449635.746    21449642.090
  23052918.802    -5888453.59149  -4573114.34846  23052918.646    23052924.681
  20838547.050    -3670859.15149  -2854421.28847  20838546.574    20838552.909
  21017805.629      207467.41249    171197.66147  21017805.496    21017812.054
  21998344.907   -18674191.61249 -14526446.49246  21998344.353    21998351.265
  22606561.389   -11920810.46949  -9265420.18146  22606560.904    22606569.104
  20541689.958   -10200636.53049  -7759336.02047  20541689.484    20541693.672
  20949796.183   -23664234.34949 -18416705.68347  20949795.878    20949801.172
  23283162.752    -9855298.03249  -7344243.49445  23283162.462    23283168.773
 03  6 10 17 35  0.0000000  0 10G 2G26G29G17G 6G15G23G21G18G16
  25032436.176    -5654235.82649  -4383763.80945  25032435.576    25032443.626
  21450280.746   -16572108.86949 -12889174.18747  21450280.840    21450287.170
  23061469.520    -5843519.19549  -4538100.53846  23061469.367    23061475.464
  20841233.571    -3656741.46949  -2843420.51747  20841233.085    20841239.423
  21029572.026      269300.10149    219378.91347  21029571.890    21029578.474
  21986154.626   -18738251.88049 -14576363.55046  21986154.082    21986160.962
  22592466.940   -11994876.94149  -9323134.25946  22592466.461    22592474.626
  20539810.633   -10210512.22649  -7767031.37847  20539810.185    20539814.369
  20940457.144   -23713311.14449 -18454947.31847  20940456.823    20940462.129
  23284956.115    -9845873.86649  -7336900.04545  23284955.900    23284962.210
 03  6 10 17 35 30.0000000  0 10G 2G26G29G17G 6G15G23G21G18G16
  25027224.730    -5681622.27649  -4405103.91945  25027224.023    25027232.500
  21451053.405   -16568048.62249 -12886010.35747  21451053.485    21451059.797
  23070116.370    -5798079.67849  -4502693.10746  23070116.251    23070122.357
  20843959.868    -3642414.86749  -2832256.94847  20843959.367    20843965.719
  21041423.299      331578.98849    267907.85347  21041423.196    21041429.795
  21973988.073   -18802187.35749 -14626183.37746  21973987.535    21973994.419
  22578431.815   -12068631.81649  -9380605.53246  22578431.327    22578439.538
  20537975.310   -10220157.05649  -7774546.83547  20537974.866    20537979.057
  20931196.479   -23761976.18049 -18492868.10147  20931196.164    20931201.462
  23286849.542    -9835923.88949  -7329146.87245  23286849.290    23286855.703
 03  6 10 17 36  0.0000000  0 10G 2G26G29G17G 6G15G23G21G18G16
  25022093.981    -5708584.47649  -4426113.46545  25022093.405    25022101.775
  21451953.431   -16563318.71949 -12882324.69547  21451953.531    21451959.855
  23078858.977    -5752136.73349  -4466893.40646  23078858.868    23078865.013
  20846725.906    -3627879.20149  -2820930.46847  20846725.422    20846731.773
  21053359.326      394302.70849    316783.42447  21053359.203    21053365.781
  21961845.244   -18865997.98849 -14675905.91346  21961844.732    21961851.612
  22564455.996   -12142074.89749  -9437833.85046  22564455.473    22564463.714
  20536183.910   -10229570.95949  -7781882.34147  20536183.456    20536187.649
  20922014.219   -23810229.37749 -18530467.96147  20922013.901    20922019.185
  23288842.723    -9825449.48649  -7320985.04345  23288842.460    23288848.843
 03  6 10 17 36 30.0000000  0 10G 2G26G29G17G 6G15G23G21G18G16
  25017043.956    -5735121.58649  -4446791.73745  25017043.441    25017051.771
  21452981.078   -16557918.52849 -12878116.73847  21452981.170    21452987.433
  23087697.194    -5705691.29849  -4430702.16146  23087697.120    23087703.283
  20849531.838    -3613134.05349  -2809440.75847  20849531.370    20849537.666
  21065379.769      457470.37249    366004.92147  21065379.631    21065386.236
  21949726.356   -18929682.79249 -14725530.40946  21949725.861    21949732.715
  22550539.773   -12215204.92449  -9494818.22846  22550539.266    22550547.469
  20534436.646   -10238753.01549  -7789037.20047  20534436.196    20534440.381
  20912910.438   -23858069.99949 -18567746.33447  20912910.114    20912915.396
  23290935.622    -9814451.19349  -7312414.99745  23290935.371    23290941.843
 03  6 10 17 37  0.0000000  0 10G 2G26G29G17G 6G15G23G21G18G16
  25012075.058    -5761233.83849  -4467138.96545  25012074.680    25012082.830
  21454136.056   -16551848.49449 -12873386.82347  21454136.210    21454142.511
  23096630.654    -5658745.66149  -4394121.14946  23096630.526    23096636.777
  20852377.596    -3598179.58749  -2797787.94647  20852377.120    20852383.444
  21077484.404      521080.15149    415570.92347  21077484.271    21077490.857
  21937631.405   -18993242.03049 -14775057.05646  21937630.894    21937637.747
  22536683.198   -12288021.72749  -9551558.53146  22536682.729    22536690.830
  20532733.486   -10247703.14349  -7796011.33147  20532733.045    20532737.216
  20903885.045   -23905498.37149 -18604703.48247  20903884.732    20903890.013
  23293127.919    -9802930.78849  -7303438.10545  23293127.604    23293134.125
 03  6 10 17 37 30.0000000  0 10G 2G26G29G17G 6G15G23G21G18G16
  25007186.942    -5786920.97749  -4487154.96245  25007186.377    25007195.187
  21455418.568   -16545108.76549 -12868135.07147  21455418.723    21455425.062
  23105659.057    -5611301.21249  -4357151.44646  23105658.875    23105665.170
  20855263.334    -3583015.09249  -2785971.47347  20855262.852    20855269.179
  21089672.904      585130.82149    465480.47747  21089672.783    21089679.316
  21925560.428   -19056675.49749 -14824485.70646  21925559.891    21925566.756
  22522886.424   -12360524.41149  -9608054.08046  22522885.950    22522893.953
  20531074.474   -10256421.28249  -7802804.69747  20531074.023    20531078.235
  20894938.207   -23952514.22949 -18641339.18447  20894937.896    20894943.187
  23295419.335    -9790889.43049  -7294055.27745  23295418.977    23295425.650
 03  6 10 17 38  0.0000000  0 10G 2G26G29G17G 6G15G23G21G18G16
  25002379.552    -5812182.61649  -4506839.40145  25002379.083    25002388.231
  21456828.667   -16537698.88449 -12862361.11547  21456828.807    21456835.124
  23114782.144    -5563359.09749  -4319793.96446  23114781.929    23114788.273
  20858189.073    -3567640.19049  -2773991.04347  20858188.616    20858194.940
  21101945.119      649621.43049    515732.83947  21101944.987    21101951.506
  21913513.575   -19119982.15049 -14873815.53146  21913513.011    21913519.902
  22509149.544   -12432711.98249  -9664304.07746  22509149.100    22509157.046
  20529459.793   -10264906.42349  -7809416.50047  20529459.341    20529463.582
  20886069.990   -23999117.05549 -18677653.04347  20886069.685    20886074.937
  23297809.733    -9778327.89649  -7284267.11645  23297809.401    23297816.056
 03  6 10 17 38 30.0000000  0 10G 2G26G29G17G 6G15G23G21G18G16
  24997653.498    -5837018.29449  -4526191.92045  24997652.946    24997662.124
  21458366.196   -16529618.95449 -12856065.04347  21458366.362    21458372.653
  23123999.662    -5514920.92849  -4282049.93946  23123999.428    23124005.768
  20861155.007    -3552054.32149  -2761846.22547  20861154.523    20861160.874
  21114300.769      714550.50549    566326.86147  21114300.634    21114307.165
  21901490.932   -19183161.48349 -14923046.15146  21901490.354    21901497.196
  22495472.727   -12504583.93949  -9720308.15246  22495472.299    22495480.200
  20527889.536   -10273158.16149  -7815846.43447  20527889.068    20527893.325
  20877280.394   -24045306.69049 -18713644.93647  20877280.080    20877285.316
  23300298.933    -9765247.40249  -7274074.58245  23300298.569    23300305.282
 03  6 10 17 39  0.0000000  0 10G 2G26G29G17G 6G15G23G21G18G16
  24993008.433    -5861428.20149  -4545212.65945  24993008.079    24993017.098
  21460031.231   -16520869.36649 -12849247.16647  21460031.330    21460037.617
  23133311.070    -5465988.73149  -4243920.96446  23133310.902    23133317.310
  20864160.973    -3536257.79549  -2749537.26347  20864160.512    20864166.863
  21126739.532      779916.08949    617261.01847  21126739.382    21126745.922
  21889492.533   -19246213.48049 -14972177.55646  21889491.980    21889498.803
  22481855.965   -12576140.14149  -9776066.18846  22481855.565    22481863.456
  20526363.622   -10281176.99549  -7822094.88547  20526363.154    20526367.410
  20868569.332   -24091083.32549 -18749315.01247  20868569.020    20868574.277
  23302886.529    -9751649.73349  -7263479.06045  23302886.167    23302892.902
 03  6 10 17 39 30.0000000  0 10G 2G26G29G17G 6G15G23G21G18G16
  24988444.664    -5885411.21649  -4563900.69345  24988444.280    24988453.254
  21461823.747   -16511449.63449 -12841907.09147  21461823.859    21461830.111
  23142716.361    -5416563.39849  -4205407.72146  23142716.221    23142722.641
  20867207.196    -3520249.64849  -2737063.39847  20867206.743    20867213.130
  21139261.208      845717.76149    668534.98247  21139261.054    21139267.600
  21877518.608   -19309136.77249 -15021208.65546  21877518.059    21877524.864
  22468299.653   -12647379.04149  -9831576.97346  22468299.220    22468307.090
  20524882.363   -10288961.10649  -7828160.43147  20524881.900    20524886.171
  20859936.988   -24136446.43949 -18784662.86247  20859936.686    20859941.934
  23305572.408    -9737535.51949  -7252481.04245  23305572.088    23305578.799
 03  6 10 17 40  0.0000000  0 10G 2G26G29G17G 6G15G23G21G18G16
  24983962.003    -5908967.78649  -4582256.44145  24983961.634    24983970.510
  21463743.771   -16501359.78349 -12834044.85047  21463743.899    21463750.109
  23152215.246    -5366646.42649  -4166511.39046  23152215.105    23152221.557
  20870293.822    -3504029.38949  -2724424.25447  20870293.366    20870299.732
  21151865.591      911954.11949    720147.66347  21151865.458    21151872.024
  21865569.369   -19371930.92249 -15070139.12846  21865568.782    21865575.546
  22454803.791   -12718300.02049  -9886840.02346  22454803.383    22454811.213
  20523445.841   -10296510.16549  -7834042.81547  20523445.384    20523449.630
  20851383.466   -24181395.23049 -18819687.86847  20851383.178    20851388.419
  23308356.495    -9722905.86149  -7241081.35145  23308356.141    23308362.769
 03  6 10 17 40 30.0000000  0 10G 2G26G29G17G 6G15G23G21G18G16
  24979560.609    -5932097.96249  -4600280.01445  24979560.110    24979569.111
  21465791.236   -16490600.42549 -12825660.91647  21465791.322    21465797.498
  23161807.272    -5316239.76149  -4127233.47646  23161807.145    23161813.600
  20873420.825    -3487597.08249  -2711619.87647  20873420.362    20873426.717
  21164552.439      978623.53749    772097.79547  21164552.295    21164558.876
  21853644.588   -19434595.93449 -15118968.98046  21853644.007    21853650.770
  22441368.557   -12788902.60349  -9941854.99046  22441368.114    22441375.948
  20522054.173   -10303823.65649  -7839741.64947  20522053.688    20522057.917
  20842908.826   -24225929.83549 -18854390.14347  20842908.525    20842913.722
  23311238.300    -9707762.37849  -7229281.30545  23311237.945    23311244.515
 03  6 10 17 41  0.0000000  0 10G 2G26G29G17G 6G15G23G21G18G16
  24975240.600    -5954800.13849  -4617970.04345  24975239.981    24975248.929
  21467966.253   -16479170.46849 -12816754.43747  21467966.386    21467972.568
  23171492.349    -5265343.97849  -4087574.42146  23171492.260    23171498.803
  20876588.454    -3470951.24249  -2698649.11347  20876587.989    20876594.359
  21177321.572     1045725.68149    824385.11547  21177321.455    21177328.031
  21841744.647   -19497130.30449 -15167697.01846  21841744.065    21841750.881
  22427994.245   -12859185.17349  -9996620.57746  22427993.773    22428001.618
  20520707.441   -10310900.67849  -7845256.21447  20520706.970    20520711.178
  20834513.199   -24270049.08949 -18888768.75947  20834512.907    20834518.081
  23314217.792    -9692105.44949  -7217081.16245  23314217.463    23314223.977
 03  6 10 17 41 30.0000000  0 10G 2G26G29G17G 6G15G23G21G18G16
  24971001.962    -5977074.85649  -4635326.96745  24971001.296    24971010.204
  21470268.698   -16467070.90149 -12807326.18347  21470268.802    21470275.016
  23181270.111    -5213961.55449  -4047536.18146  23181270.011    23181276.540
  20879796.664    -3454092.11049  -2685512.14947  20879796.208    20879802.596
  21190172.658     1113258.38149    877007.93047  21190172.539    21190179.129
  21829869.534   -19559534.09649 -15216323.32246  21829868.976    21829875.802
  22414680.707   -12929147.70549 -10051136.79246  22414680.270    22414688.136
  20519405.782   -10317741.04049  -7850586.37147  20519405.291    20519409.496
  20826196.447   -24313753.98149 -18922824.50247  20826196.144    20826201.257
  23317294.548    -9675936.94549  -7204482.39445  23317294.213    23317300.818
 03  6 10 17 42  0.0000000  0 10G 2G26G29G17G 6G15G23G21G18G16
  24966844.395    -5998922.04449  -4652350.81545  24966843.774    24966853.078
  21472698.517   -16454301.95649 -12797376.33947  21472698.610    21472704.892
  23191140.313    -5162093.87549  -4007119.81246  23191140.188    23191146.598
  20883045.487    -3437019.31449  -2672208.69347  20883045.039    20883051.429
  21203105.466     1181220.45549    929965.32147  21203105.355    21203111.931
  21818019.454   -19621806.58949 -15264847.31546  21818018.880    21818025.729
  22401428.273   -12998789.46849 -10105403.06146  22401427.824    22401435.669
  20518149.269   -10324344.21349  -7855731.71247  20518148.791    20518152.976
  20817958.654   -24357043.94249 -18956556.92947  20817958.327    20817963.422
  23320468.441    -9659258.13849  -7191485.99245  23320468.106    23320474.907
 03  6 10 17 42 30.0000000  0 10G 2G26G29G17G 6G15G23G21G18G16
  24962768.271    -6020341.36649  -4669041.21845  24962767.804    24962776.907
  21475255.704   -16440863.82849 -12786905.05147  21475255.800    21475262.063
  23201102.530    -5109742.75049  -3966326.73846  23201102.261    23201108.694
  20886335.139    -3419732.46049  -2658738.44047  20886334.681    20886341.043
  21216119.696     1249610.32949    983256.06147  21216119.566    21216126.158
  21806194.395   -19683947.38449 -15313268.67847  21806193.846    21806200.702
  22388236.998   -13068110.01249 -10159419.02646  22388236.507    22388244.403
  20516937.882   -10330710.00949  -7860692.08647  20516937.420    20516941.576
  20809799.782   -24399919.05849 -18989966.09947  20809799.466    20809804.570
  23323739.229    -9642070.38649  -7178093.00145  23323738.911    23323745.730
 03  6 10 17 43  0.0000000  0 10G 2G26G29G17G 6G15G23G21G18G16
  24958773.814    -6041332.93849  -4685398.28545  24958773.391    24958782.414
  21477940.225   -16426756.77849 -12775912.52647  21477940.301    21477946.495
  23211156.372    -5056909.71849  -3925158.14546  23211156.091    23211162.477
  20889665.532    -3402231.25749  -2645101.15947  20889665.046    20889671.386
  21229215.033     1318426.53649   1036879.00747  21229214.920    21229221.527
  21794394.678   -19745955.72149 -15361586.82647  21794394.095    21794400.881
  22375106.991   -13137108.62549 -10213184.14746  22375106.486    22375114.326
  20515771.853   -10336837.67749  -7865466.88747  20515771.387    20515775.542
  20801719.879   -24442379.16749 -19023051.88147  20801719.569    20801724.663
  23327106.509    -9624375.13949  -7164304.55645  23327106.141    23327113.013
 03  6 10 17 43 30.0000000  0 10G 2G26G29G17G 6G15G23G21G18G16
  24954860.946    -6061896.99549  -4701422.30645  24954860.309    24954869.071
  21480751.848   -16411981.44749 -12764399.26947  21480751.925    21480758.092
  23221301.401    -5003596.72449  -3883615.55046  23221301.197    23221307.579
  20893036.762    -3384515.42449  -2631296.64247  20893036.292    20893042.659
  21242391.228     1387667.51249   1090832.94047  21242391.098    21242397.739
  21782620.126   -19807831.28349 -15409801.52647  21782619.536    21782626.304
  22362038.283   -13205784.87649 -10266698.06946  22362037.774    22362045.697
  20514651.115   -10342727.15849  -7870056.09947  20514650.643    20514654.805
  20793718.975   -24484424.35449 -19055814.35447  20793718.648    20793723.746
  23330570.223    -9606173.80449  -7150121.77245  23330569.812    23330576.605
 03  6 10 17 44  0.0000000  0 10G 2G26G29G17G 6G15G23G21G18G16
  24951029.078    -6082034.38949  -4717113.82645  24951028.572    24951037.150
  21483690.383   -16396539.32349 -12752366.42947  21483690.500    21483696.600
  23231537.122    -4949806.81849  -3841701.33246  23231537.042    23231543.457
  20896448.664    -3366586.02449  -2617325.70347  20896448.170    20896454.542
  21255647.723     1457330.58549   1145115.78747  21255647.581    21255654.265
  21770870.700   -19869574.92049 -15457913.42247  21770870.110    21770876.874
  22349030.769   -13274139.53649 -10319961.39546  22349030.288    22349038.227
  20513575.471   -10348379.64849  -7874460.63647  20513574.998    20513579.199
  20785796.752   -24526055.73149 -19088254.36747  20785796.433    20785801.542
  23334129.608    -9587469.30349  -7135546.89145  23334129.179    23334136.004
 03  6 10 17 44 30.0000000  0 10G 2G26G29G17G 6G15G23G21G18G16
  24947278.738    -6101742.36249  -4732470.67845  24947278.209    24947286.867
  21486756.241   -16380428.09449 -12739812.21547  21486756.358    21486762.388
  23241863.839    -4895538.91349  -3799414.64846  23241863.823    23241870.333
  20899901.743    -3348439.97749  -2603185.95547  20899901.279    20899907.643
  21268984.757     1527416.95149   1199728.47647  21268984.648    21268991.369
  21759147.002   -19931183.28649 -15505919.91147  21759146.386    21759153.172
  22336085.102   -13342169.20549 -10372971.49146  22336084.631    22336092.588
  20512545.826   -10353790.61749  -7878676.98447  20512545.350    20512549.532
  20777953.846   -24567270.63949 -19120369.86247  20777953.532    20777958.620
  23337784.975    -9568260.28549  -7120578.89945  23337784.627    23337791.437
 03  6 10 17 45  0.0000000  0 10G 2G26G29G17G 6G15G23G21G18G16
  24943610.162    -6121021.88149  -4747493.77245  24943609.588    24943618.297
  21489949.216   -16363648.96349 -12726737.55647  21489949.318    21489955.355
  23252281.121    -4840795.57349  -3756757.51446  23252281.120    23252287.636
  20903395.991    -3330077.64949  -2588877.67547  20903395.501    20903401.882
  21282401.871     1597924.27649   1254669.18847  21282401.760    21282408.547
  21747448.977   -19992656.49049 -15553821.09547  21747448.395    21747455.150
  22323201.204   -13409874.29949 -10425728.66446  22323200.700    22323208.730
  20511561.951   -10358960.90349  -7882705.77947  20511561.491    20511565.666
  20770190.039   -24608069.71249 -19152161.33147  20770189.707    20770194.815
  23341535.884    -9548549.10449  -7105219.59845  23341535.532    23341542.477
 03  6 10 17 45 30.0000000  0 10G 2G26G29G17G 6G15G23G21G18G16
  24940023.050    -6139873.80249  -4762183.63045  24940022.402    24940030.957
  21493268.943   -16346203.65149 -12713143.79647  21493269.049    21493275.115
  23262788.376    -4785579.71749  -3713732.16246  23262788.367    23262794.868
  20906931.306    -3311499.68849  -2574401.37147  20906930.803    20906937.200
  21295898.534     1668849.73849   1309935.71547  21295898.416    21295905.253
  21735776.510   -20053995.19949 -15601617.46646  21735775.936    21735782.713
  22310379.047   -13477255.36249 -10478233.34146  22310378.496    22310386.517
  20510623.692   -10363891.50549  -7886547.81147  20510623.221    20510627.420
  20762505.060   -24648454.30149 -19183629.83047  20762504.737    20762509.841
  23345381.985    -9528338.25349  -7089470.95145  23345381.649    23345388.547
 03  6 10 17 46  0.0000000  0 10G 2G26G29G17G 6G15G23G21G18G16
  24936516.974    -6158297.37149  -4776539.68645  24936516.309    24936524.971
  21496715.571   -16328091.47349 -12699030.40047  21496715.644    21496721.698
  23273385.437    -4729892.03949  -3670339.16446  23273385.361    23273391.887
  20910507.904    -3292704.69849  -2559755.94947  20910507.417    20910513.815
  21309474.783     1740193.14449   1365527.90547  21309474.658    21309481.511
  21724129.986   -20115197.79349 -15649307.77747  21724129.418    21724136.214
  22297618.818   -13544310.73049 -10530484.23646  22297618.290    22297626.251
  20509731.342   -10368580.86149  -7890201.86047  20509730.879    20509735.078
  20754899.275   -24688422.96949 -19214774.22647  20754898.962    20754904.030
  23349323.058    -9507628.12249  -7073333.26745  23349322.680    23349329.548
 03  6 10 17 46 30.0000000  0 10G 2G26G29G17G 6G15G23G21G18G16
  24933092.263    -6176293.16949  -4790562.45045  24933091.530    24933100.346
  21500288.897   -16309313.56149 -12684398.24547  21500288.950    21500295.012
  23284071.774    -4673735.09249  -3626580.50646  23284071.652    23284078.126
  20914125.723    -3273692.88949  -2544941.57847  20914125.242    20914131.656
  21323130.142     1811952.35249   1421444.09647  21323130.024    21323136.881
  21712509.349   -20176264.41449 -15696892.14047  21712508.803    21712515.611
  22284920.488   -13611040.50649 -10582481.42046  22284920.011    22284927.914
  20508884.955   -10373028.72949  -7893667.73547  20508884.475    20508888.678
  20747372.500   -24727976.45949 -19245595.11347  20747372.163    20747377.247
  23353358.745    -9486420.96549  -7056808.27045  23353358.337    23353365.188
 03  6 10 17 47  0.0000000  0 10G 2G26G29G17G 6G15G23G21G18G16
  24929749.276    -6193860.21249  -4804251.07745  24929748.634    24929757.668
  21503988.851   -16289869.76649 -12669247.24647  21503988.948    21503995.025
  23294847.268    -4617109.70049  -3582456.82646  23294847.103    23294853.538
  20917785.153    -3254462.55849  -2529956.93747  20917784.679    20917791.097
  21336864.479     1884126.43049   1477683.56647  21336864.356    21336871.231
  21700914.945   -20237193.36549 -15744369.22347  21700914.380    21700921.220
  22272284.450   -13677443.35649 -10634223.85246  22272283.959    22272291.864
  20508084.690   -10377234.05849  -7896944.61747  20508084.229    20508088.461
  20739924.880   -24767114.01249 -19276091.89447  20739924.549    20739929.587
  23357488.787    -9464717.60949  -7039896.65145  23357488.447    23357495.282
 03  6 10 17 47 30.0000000  0 10G 2G26G29G17G 6G15G23G21G18G16
  24926487.933    -6210999.09449  -4817606.07945  24926487.351    24926496.369
  21507815.370   -16269761.50249 -12653578.45947  21507815.429    21507821.504
  23305711.322    -4560018.63449  -3537970.29245  23305711.192    23305717.562
  20921485.968    -3235014.82549  -2514802.89047  20921485.487    20921491.923
  21350677.331     1956713.09749   1534244.53147  21350677.204    21350684.106
  21689346.626   -20297985.15449 -15791739.43147  21689346.098    21689352.864
  22259710.515   -13743519.64849 -10685711.82546  22259710.034    22259717.868
  20507330.597   -10381196.80349  -7900032.47447  20507330.121    20507334.333
  20732556.226   -24805836.49349 -19306265.23847  20732555.900    20732560.933
  23361712.789    -9442520.16749  -7022600.02145  23361712.503    23361719.421
 03  6 10 17 48  0.0000000  0 10G 2G26G29G17G 6G15G23G21G18G16
  24923307.940    -6227710.04949  -4830627.62545  24923307.404    24923316.301
  21511768.260   -16248988.92949 -12637392.03047  21511768.343    21511774.366
  23316663.697    -4502463.26949  -3493121.95645  23316663.550    23316669.977
  20925228.269    -3215349.07849  -2499478.95947  20925227.796    20925234.232
  21364568.437     2029711.06749   1591126.00047  21364568.317    21364575.190
  21677804.647   -20358638.67849 -15839001.89247  21677804.119    21677810.881
  22247198.846   -13809268.60949 -10736944.72446  22247198.375    22247206.161
  20506622.814   -10384916.11949  -7902930.64547  20506622.371    20506626.570
  20725266.650   -24844143.38049 -19336114.73747  20725266.327    20725271.367
  23366030.631    -9419830.29549  -7004919.67945  23366030.353    23366037.314
 03  6 10 17 48 30.0000000  0 10G 2G26G29G17G 6G15G23G21G18G16
  24920209.440    -6243992.88549  -4843315.58245  24920209.018    24920217.687
  21515847.452   -16227552.42249 -12620688.25447  21515847.578    21515853.548
  23327704.085    -4444445.39449  -3447913.23545  23327704.007    23327710.369
  20929012.217    -3195464.35849  -2483984.40247  20929011.727    20929018.181
  21378537.590     2103119.03449   1648326.93747  21378537.456    21378544.318
  21666289.204   -20419152.96049 -15886155.84947  21666288.660    21666295.394
  22234749.653   -13874689.53149 -10787922.00746  22234749.183    22234756.965
  20505961.553   -10388391.25249  -7905638.54447  20505961.098    20505965.279
  20718056.165   -24882034.60749 -19365640.35047  20718055.838    20718060.866
  23370441.977    -9396649.07349  -6986856.49145  23370441.720    23370448.647
 03  6 10 17 49  0.0000000  0 10G 2G26G29G17G 6G15G23G21G18G16
  24917192.527    -6259847.73849  -4855670.07645  24917191.947    24917200.750
  21520052.903   -16205452.85249 -12603467.81447  21520052.977    21520058.984
  23338832.265    -4385966.74349  -3402345.47145  23338832.213    23338838.462
  20932837.841    -3175360.61849  -2468319.18047  20932837.358    20932843.848
  21392584.389     2176935.22449   1705845.97247  21392584.242    21392591.134
  21654800.322   -20479527.61349 -15933201.01847  21654799.754    21654806.450
  22222362.943   -13939781.95449 -10838643.32146  22222362.488    22222370.191
  20505346.767   -10391622.00349  -7908156.01547  20505346.334    20505350.511
  20710924.757   -24919510.37549 -19394842.22747  20710924.445    20710929.459
  23374946.457    -9372978.38649  -6968411.86545  23374946.181    23374953.041
 03  6 10 17 49 30.0000000  0 10G 2G26G29G17G 6G15G23G21G18G16
  24914256.852    -6275275.06749  -4867691.43145  24914256.249    24914265.172
  21524384.274   -16182691.11949 -12585731.40747  21524384.389    21524390.435
  23350047.654    -4327029.70349  -3356420.52345  23350047.598    23350053.757
  20936705.222    -3155037.33049  -2452482.88147  20936704.751    20936711.237
  21406708.568     2251157.71649   1763681.60947  21406708.424    21406715.314
  21643338.028   -20539762.33449 -15980137.14147  21643337.450    21643344.132
  22210038.744   -14004545.76849 -10889108.56446  22210038.271    22210046.030
  20504778.570   -10394608.02749  -7910482.78647  20504778.098    20504782.316
  20703872.397   -24956570.79649 -19423720.45247  20703872.088    20703877.088
  23379543.771    -9348819.82449  -6949587.10045  23379543.449    23379550.314
 03  6 10 17 50  0.0000000  0 10G 2G26G29G17G 6G15G23G21G18G16
  24911402.535    -6290274.93249  -4879379.68345  24911402.044    24911411.056
  21528841.494   -16159268.11749 -12567479.71947  21528841.613    21528847.685
  23361350.038    -4267636.00349  -3310139.72645  23361349.884    23361356.042
  20940614.524    -3134493.80949  -2436474.97547  20940614.064    20940620.559
  21420909.681     2325784.67249   1821832.40247  21420909.523    21420916.401
  21631902.405   -20599856.83349 -16026964.01947  21631901.816    21631908.505
  22197777.143   -14068980.63249 -10939317.48946  22197776.679    22197784.498
  20504256.946   -10397349.03849  -7912618.63947  20504256.499    20504260.745
  20696898.998   -24993216.21149 -19452275.30247  20696898.655    20696903.653
  23384233.587    -9324175.50049  -6930383.82145  23384233.263    23384239.929
 03  6 10 17 50 30.0000000  0 10G 2G26G29G17G 6G15G23G21G18G16
  24908629.748    -6304847.06449  -4890734.66145  24908629.175    24908638.305
  21533424.614   -16135184.02049 -12548712.88947  21533424.690    21533430.748
  23372738.961    -4207787.19349  -3263504.29445  23372738.780    23372744.959
  20944565.869    -3113729.55749  -2420295.05847  20944565.409    20944571.915
  21435187.530     2400814.98049   1880297.50847  21435187.398    21435194.261
  21620493.708   -20659809.79649 -16073680.59047  21620493.124    21620499.800
  22185578.366   -14133085.58949 -10989269.35546  22185577.894    22185585.649
  20503782.183   -10399843.86649  -7914562.65847  20503781.737    20503785.978
  20690004.615   -25029446.27849 -19480506.49847  20690004.298    20690009.307
  23389015.570    -9299046.47749  -6910802.84845  23389015.281    23389021.924
 03  6 10 17 51  0.0000000  0 10G 2G26G29G17G 6G15G23G21G18G16
  24905937.977    -6318992.12549  -4901756.84445  24905937.439    24905946.553
  21538133.219   -16110440.19749 -12529431.97947  21538133.290    21538139.368
  23384214.064    -4147485.77049  -3216516.16546  23384213.835    23384219.978
  20948559.196    -3092744.46249  -2403943.06647  20948558.745    20948565.256
  21449541.736     2476246.50949   1939075.25347  21449541.601    21449548.465
  21609112.038   -20719620.96149 -16120286.66947  21609111.463    21609118.089
  22173442.338   -14196860.71549 -11038964.19846  22173441.895    22173449.600
  20503354.320   -10402092.38349  -7916314.74347  20503353.873    20503358.102
  20683189.179   -25065261.54349 -19508414.47847  20683188.836    20683193.878
  23393889.388    -9273435.14749  -6890846.03445  23393889.077    23393895.684
 03  6 10 17 51 30.0000000  0 10G 2G26G29G17G 6G15G23G21G18G16
  24903327.737    -6332709.77249  -4912445.96545  24903327.045    24903336.175
  21542967.266   -16085036.72449 -12509637.06447  21542967.374    21542973.441
  23395775.057    -4086732.89249  -3169176.27845  23395774.772    23395780.853
  20952594.741    -3071537.74549  -2387418.37847  20952594.291    20952600.806
  21463972.123     2552078.42649   1998164.97847  21463971.991    21463978.894
  21597757.645   -20779288.82249 -16166781.08847  21597757.064    21597763.692
  22161369.267   -14260305.07049 -11088401.30646  22161368.784    22161376.474
  20502973.613   -10404093.21949  -7917873.84047  20502973.147    20502977.380
  20676452.765   -25100661.50549 -19535998.84847  20676452.450    20676457.470
  23398854.757    -9247342.18449  -6870513.95445  23398854.401    23398861.128
 03  6 10 17 52  0.0000000  0 10G 2G26G29G17G 6G15G23G21G18G16
  24900798.824    -6346000.42649  -4922802.37045  24900798.035    24900806.960
  21547926.760   -16058974.87349 -12489329.12847  21547926.820    21547932.880
  23407421.401    -4025530.91849  -3121486.42545  23407421.159    23407427.211
  20956672.455    -3050109.41149  -2370720.99847  20956671.968    20956678.481
  21478478.308     2628308.57149   2057565.02647  21478478.169    21478485.069
  21586430.445   -20838813.30649 -16213163.78547  21586429.886    21586436.501
  22149359.145   -14323418.61149 -11137580.64046  22149358.648    22149366.253
  20502640.023   -10405846.22349  -7919239.81847  20502639.558    20502643.795
  20669795.348   -25135646.53649 -19563259.89447  20669794.999    20669800.016
  23403911.287    -9220769.78049  -6849808.27845  23403910.900    23403917.779
 03  6 10 17 52 30.0000000  0 10G 2G26G29G17G 6G15G23G21G18G16
  24898351.255    -6358863.67749  -4932825.74045  24898350.459    24898359.227
  21553011.371   -16032254.85349 -12468508.32747  21553011.461    21553017.574
  23419152.848    -3963881.25049  -3073447.73145  23419152.628    23419158.759
  20960792.508    -3028458.47649  -2353850.17147  20960792.016    20960798.537
  21493060.048     2704935.89449   2117274.55247  21493059.904    21493066.855
  21575130.848   -20898192.87549 -16259433.56247  21575130.298    21575136.920
  22137412.127   -14386200.19149 -11186501.29146  22137411.629    22137419.244
  20502353.825   -10407350.23949  -7920411.78547  20502353.376    20502357.606
  20663216.942   -25170216.21949 -19590197.29447  20663216.603    20663221.619
  23409058.820    -9193719.29749  -6828730.07245  23409058.476    23409065.338
 03  6 10 17 53  0.0000000  0 10G 2G26G29G17G 6G15G23G21G18G16
  24895984.747    -6371300.71149  -4942517.00645  24895984.109    24895992.278
  21558220.887   -16004878.41649 -12447176.02947  21558221.004    21558227.133
  23430969.031    -3901786.58249  -3025062.28345  23430968.878    23430975.075
  20964954.822    -3006585.30149  -2336806.16647  20964954.354    20964960.904
  21507716.844     2781957.79049   2177291.55147  21507716.738    21507723.683
  21563858.775   -20957427.90349 -16305590.71547  21563858.222    21563864.860
  22125528.212   -14448650.25149 -11235163.62546  22125527.716    22125535.341
  20502114.962   -10408605.56849  -7921389.97147  20502114.501    20502118.736
  20656717.323   -25204371.69049 -19616811.92747  20656716.992    20656722.014
  23414296.948    -9166193.39449  -6807281.41645  23414296.580    23414303.463
 03  6 10 17 53 30.0000000  0 10G 2G26G29G17G 6G15G23G21G18G16
  24893698.968    -6383311.57949  -4951876.18045  24893698.272    24893706.768
  21563555.238   -15976846.57049 -12425333.02747  21563555.311    21563561.375
  23442869.527    -3839248.92649  -2976331.66745  23442869.379    23442875.588
  20969159.650    -2984488.95249  -2319588.25747  20969159.193    20969165.730
  21522448.448     2859372.59749   2237614.71047  21522448.339    21522455.308
  21552614.338   -21016517.68449 -16351634.68747  21552613.796    21552620.406
  22113707.430   -14510768.52749 -11283567.43346  22113706.930    22113714.565
  20501923.511   -10409611.65149  -7922173.94547  20501923.044    20501927.281
  20650296.552   -25238112.94449 -19643103.79847  20650296.227    20650301.264
  23419625.163    -9138193.71949  -6785463.58145  23419624.811    23419631.769
 03  6 10 17 54  0.0000000  0 10G 2G26G29G17G 6G15G23G21G18G16
  24891494.556    -6394895.64849  -4960902.78745  24891493.937    24891502.604
  21569014.233   -15948159.28549 -12402979.28847  21569014.312    21569020.394
  23454854.184    -3776269.23749  -2927256.60945  23454853.962    23454860.162
  20973407.252    -2962168.00349  -2302195.32947  20973406.762    20973413.282
  21537254.593     2937179.41749   2298243.34147  21537254.489    21537261.508
  21541397.870   -21075460.52249 -16397564.15847  21541397.301    21541403.953
  22101950.019   -14572553.73349 -11331711.69846  22101949.519    22101957.189
  20501779.743   -10410367.05749  -7922762.57847  20501779.284    20501783.522
  20643954.757   -25271439.15249 -19669072.25347  20643954.438    20643959.453
  23425043.366    -9109721.05349  -6763277.18445  23425043.070    23425050.008
 03  6 10 17 54 30.0000000  0 10G 2G26G29G17G 6G15G23G21G18G16
  24889371.354    -6406053.43349  -4969597.21945  24889370.707    24889379.506
  21574597.730   -15918817.73649 -12380115.73747  21574597.857    21574603.914
  23466922.435    -3712849.93949  -2877839.00545  23466922.278    23466928.581
  20977697.537    -2939622.54149  -2284627.46447  20977697.082    20977703.580
  21552135.005     3015376.36249   2359175.94947  21552134.927    21552141.979
  21530209.418   -21134255.99349 -16443378.80247  21530208.837    21530215.564
  22090256.121   -14634005.73749 -11379596.33746  22090255.624    22090263.236
  20501683.702   -10410871.73349  -7923155.84547  20501683.260    20501687.493
  20637691.865   -25304350.70449 -19694717.60147  20637691.553    20637696.562
  23430551.253    -9080777.60649  -6740723.95845  23430550.857    23430557.928
 03  6 10 17 55  0.0000000  0 10G 2G26G29G17G 6G15G23G21G18G16
  24887328.988    -6416785.52749  -4977959.95645  24887328.401    24887337.281
  21580305.457   -15888823.43749 -12356743.55346  21580305.565    21580311.614
  23479073.870    -3648993.33149  -2828080.64945  23479073.795    23479080.096
  20982030.466    -2916852.71549  -2266884.76847  20982030.023    20982036.546
  21567089.274     3093961.31149   2420410.90147  21567089.155    21567096.270
  21519049.097   -21192903.78449 -16489078.37047  21519048.542    21519055.226
  22078625.565   -14695124.63549 -11427221.41046  22078625.026    22078632.647
  20501635.489   -10411125.35949  -7923353.48847  20501635.033    20501639.269
  20631507.794   -25336848.18349 -19720040.30147  20631507.495    20631512.511
  23436148.194    -9051365.66849  -6717805.66145  23436147.862    23436154.882
 03  6 10 17 55 30.0000000  0 10G 2G26G29G17G 6G15G23G21G18G16
  24885367.609    -6427092.68249  -4985991.56145  24885367.068    24885375.779
  21586137.173   -15858177.51049 -12332863.60446  21586137.268    21586143.354
  23491308.245    -3584701.71849  -2777983.33545  23491308.166    23491314.453
  20986406.214    -2893858.23549  -2248967.01547  20986405.734    20986412.286
  21582116.994     3172932.18549   2481946.56447  21582116.891    21582124.029
  21507917.079   -21251403.34849 -16534662.44047  21507916.509    21507923.131
  22067058.365   -14755910.32849 -11474586.84446  22067057.824    22067065.469
  20501635.080   -10411127.38749  -7923355.08147  20501634.634    20501638.887
  20625402.457   -25368931.99749 -19745040.66347  20625402.141    20625407.195
  23441833.944    -9021487.11149  -6694523.78345  23441833.626    23441840.690
 03  6 10 17 56  0.0000000  0 10G 2G26G29G17G 6G15G23G21G18G16
  24883487.210    -6436974.93749  -4993692.07245  24883486.721    24883495.277
  21592092.701   -15826880.85249 -12308476.58846  21592092.835    21592098.929
  23503625.029    -3519976.77449  -2727548.35045  23503624.889    23503631.266
  20990824.898    -2870638.18549  -2230873.49147  20990824.405    20990830.937
  21597217.897     3252287.44349   2543781.75047  21597217.767    21597224.897
  21496813.413   -21309753.76549 -16580130.28247  21496812.826    21496819.429
  22055554.654   -14816362.31449 -11521692.25046  22055554.138    22055561.798
  20501682.795   -10410876.67249  -7923159.72847  20501682.341    20501686.597
  20619375.799   -25400602.23949 -19769718.76147  20619375.464    20619380.561
  23447608.109    -8991143.83249  -6670879.76945  23447607.748    23447615.008
 03  6 10 17 56 30.0000000  0 10G 2G26G29G17G 6G15G23G21G18G16
  24881687.473    -6446432.78249  -5001061.88745  24881686.986    24881695.323
  21598171.863   -15794934.67649 -12283583.46747  21598171.967    21598178.110
  23516023.775    -3454820.74349  -2676777.46145  23516023.636    23516030.080
  20995286.558    -2847192.20349  -2212603.92747  20995286.046    20995292.589
  21612391.574     3332025.30849   2605915.07147  21612391.433    21612398.584
  21485738.177   -21367954.41549 -16625481.43047  21485737.613    21485744.212
  22044114.584   -14876480.19349 -11568537.32146  22044114.087    22044121.702
  20501778.638   -10410372.98249  -7922767.26247  20501778.204    20501782.491
  20613427.760   -25431859.26349 -19794074.87847  20613427.451    20613432.526
  23453470.479    -8960337.57749  -6646874.99945  23453470.030    23453477.324
 03  6 10 17 57  0.0000000  0 10G 2G26G29G17G 6G15G23G21G18G16
  24879968.497    -6455467.23749  -5008101.77645  24879967.816    24879976.376
  21604374.287   -15762340.70649 -12258185.56046  21604374.413    21604380.554
  23528504.090    -3389236.18849  -2625672.66045  23528503.946    23528510.458
  20999791.166    -2823520.39049  -2194158.37547  20999790.687    20999797.225
  21627637.512     3412143.14749   2668344.48347  21627637.358    21627644.561
  21474691.415   -21426005.26749 -16670715.84647  21474690.871    21474697.476
  22032738.010   -14936264.36949 -11615122.34946  22032737.503    22032745.121
  20501922.627   -10409616.26249  -7922177.62347  20501922.194    20501926.478
  20607558.245   -25462703.86549 -19818109.61547  20607557.915    20607562.982
  23459420.324    -8929071.16449  -6622511.65445  23459419.922    23459427.242
 03  6 10 17 57 30.0000000  0 10G 2G26G29G17G 6G15G23G21G18G16
  24878329.999    -6464077.46749  -5014811.10845  24878329.470    24878337.796
  21610699.908   -15729099.08849 -12232283.00346  21610700.034    21610706.201
  23541065.803    -3323224.41149  -2574234.93145  23541065.699    23541072.097
  21004338.975    -2799621.57749  -2175535.94847  21004338.499    21004345.050
  21642955.665     3492640.21149   2731069.39647  21642955.533    21642962.729
  21463673.553   -21483904.47049 -16715832.10247  21463673.048    21463679.594
  22021425.240   -14995713.55549 -11661446.35946  22021424.745    22021432.300
  20502115.114   -10408604.97149  -7921389.62047  20502114.661    20502118.935
  20601767.336   -25493135.29049 -19841822.40447  20601767.004    20601772.056
  23465457.597    -8897345.28649  -6597790.30445  23465457.162    23465464.542
 03  6 10 17 58  0.0000000  0 10G 2G26G29G17G 6G15G23G21G18G16
  24876772.033    -6472264.36149  -5021190.59145  24876771.530    24876779.834
  21617148.511   -15695211.41349 -12205877.01846  21617148.609    21617154.836
  23553708.320    -3256787.72949  -2522466.11945  23553708.187    23553714.615
  21008930.030    -2775495.56549  -2156736.48547  21008929.541    21008936.082
  21658345.615     3573514.58649   2794088.31047  21658345.469    21658352.674
  21452684.727   -21541651.58449 -16760829.83847  21452684.166    21452690.628
  22010176.154   -15054827.85849 -11707509.40846  22010175.643    22010183.191
  20502356.020   -10407339.06149  -7920403.21447  20502355.575    20502359.844
  20596054.915   -25523154.04749 -19865213.62847  20596054.608    20596059.654
  23471581.823    -8865162.47849  -6572712.89145  23471581.392    23471588.882
 03  6 10 17 58 30.0000000  0 10G 2G26G29G17G 6G15G23G21G18G16
  24875294.779    -6480027.65549  -5027239.96445  24875294.261    24875302.625
  21623719.961   -15660678.20549 -12178968.01446  21623720.040    21623726.324
  23566431.394    -3189927.63049  -2470367.37245  23566431.239    23566437.698
  21013564.597    -2751140.94849  -2137758.88447  21013564.112    21013570.658
  21673807.066     3654764.96949   2857400.21247  21673806.936    21673814.174
  21441725.040   -21599245.29749 -16805708.04547  21441724.483    21441730.923
  21998990.911   -15113606.34949 -11753310.78946  21998990.426    21998997.955
  20502645.635   -10405817.22649  -7919217.38047  20502645.184    20502649.426
  20590421.122   -25552759.79849 -19888283.02547  20590420.808    20590425.841
  23477792.776    -8832523.96849  -6547280.39045  23477792.353    23477799.890
 03  6 10 17 59  0.0000000  0 10G 2G26G29G17G 6G15G23G21G18G16
  24873897.813    -6487368.96949  -5032960.54245  24873897.390    24873905.751
  21630413.791   -15625501.80249 -12151557.82946  21630413.876    21630420.168
  23579234.439    -3122647.10949  -2417941.02445  23579234.286    23579240.731
  21018242.453    -2726558.75949  -2118603.96047  21018241.984    21018248.506
  21689339.503     3736388.33449   2921002.76047  21689339.403    21689346.692
  21430794.429   -21656685.71349 -16850466.80147  21430793.880    21430800.363
  21987869.442   -15172049.94749 -11798851.22346  21987868.945    21987876.513
  20502983.879   -10404039.84049  -7917832.42047  20502983.450    20502987.691
  20584865.601   -25581954.22949 -19911031.90947  20584865.274    20584870.314
  23484089.950    -8799432.69049  -6521495.08745  23484089.553    23484097.102
 03  6 10 17 59 30.0000000  0 11G 2G 3G26G29G17G 6G15G23G21G18G16
  24872581.024    -6494288.72749  -5038352.61845  24872580.551    24872589.135
  24612532.314    -4325498.93049  -3351254.96345  24612532.228    24612540.146
  21637229.759   -15589683.56849 -12123647.52446  21637229.837    21637236.140
  23592117.108    -3054948.38749  -2365188.80445  23592116.947    23592123.376
  21022963.776    -2701748.22849  -2099271.10847  21022963.295    21022969.789
  21704942.622     3818382.87449   2984894.53147  21704942.521    21704949.856
  21419893.218   -21713972.07949 -16895105.51847  21419892.657    21419899.125
  21976811.706   -15230158.47949 -11844130.56146  21976811.220    21976818.781
  20503370.879   -10402006.31549  -7916247.88047  20503370.422    20503374.654
  20579388.300   -25610737.37749 -19933460.32747  20579387.976    20579393.033
  23490472.904    -8765890.78649  -6495358.64645  23490472.464    23490479.938
 03  6 10 18  0  0.0000000  0 11G 2G 3G26G29G17G 6G15G23G21G18G16
  24871344.170    -6500787.95449  -5043416.99645  24871343.687    24871352.588
  24593599.118    -4424993.56749  -3428783.23545  24593598.946    24593606.950
  21644167.562   -15553225.02249 -12095238.27046  21644167.654    21644173.934
  23605078.898    -2986834.02049  -2312112.69145  23605078.784    23605085.172
  21027728.520    -2676709.56449  -2079760.48947  21027728.007    21027734.479
  21720615.913     3900746.23749   3049073.69147  21720615.810    21720623.179
  21409021.270   -21771104.40149 -16939624.20347  21409020.713    21409027.195
  21965817.764   -15287932.05949 -11889148.89347  21965817.301    21965824.837
  20503806.610   -10399716.52949  -7914463.64947  20503806.150    20503810.405
  20573989.141   -25639109.93349 -19955568.79947  20573988.824    20573993.896
  23496941.147    -8731900.60649  -6468872.90645  23496940.656    23496948.110
 03  6 10 18  0 30.0000000  0 11G 2G 3G26G29G17G 6G15G23G21G18G16
  24870187.729    -6506864.99049  -5048152.44545  24870187.348    24870196.410
  24574697.059    -4524324.19749  -3506183.70445  24574696.891    24574704.828
  21651227.401   -15516125.61049 -12066329.64346  21651227.457    21651233.750
  23618119.687    -2918304.23749  -2258712.88745  23618119.606    23618126.052
  21032537.231    -2651439.89449  -2060069.87147  21032536.728    21032543.173
  21736359.421     3983478.46149   3113540.26847  21736359.282    21736366.681
  21398179.218   -21828079.74549 -16984020.56447  21398178.649    21398185.098
  21954887.897   -15345368.56649 -11933904.57547  21954887.418    21954894.985
  20504291.624   -10397167.69849  -7912477.57447  20504291.175    20504295.455
  20568668.440   -25667070.31949 -19977356.10347  20568668.117    20568673.204
  23503494.517    -8697462.32149  -6442037.98945  23503494.089    23503501.602
 03  6 10 18  1  0.0000000  0 11G 2G 3G26G29G17G 6G15G23G21G18G16
  24869110.980    -6512521.05549  -5052559.84045  24869110.444    24869120.228
  24555826.627    -4623488.93449  -3583454.92245  24555826.496    24555834.653
  21658408.783   -15478387.36249 -12036923.23046  21658408.805    21658415.073
  23631239.051    -2849361.77549  -2204991.50845  23631238.963    23631245.374
  21037389.765    -2625939.69349  -2040199.62247  21037389.259    21037395.701
  21752172.641     4066577.08449   3178292.35047  21752172.504    21752179.923
  21387367.090   -21884897.87549 -17028294.42647  21387366.544    21387372.979
  21944022.108   -15402468.37649 -11978397.88847  21944021.630    21944029.215
  20504825.941   -10394360.17249  -7910289.91047  20504825.475    20504829.745
  20563426.027   -25694619.45849 -19998822.95147  20563425.707    20563430.772
  23510132.746    -8662578.64949  -6414856.02745  23510132.394    23510139.877
 03  6 10 18  1 30.0000000  0 11G 2G 3G26G29G17G 6G15G23G21G18G16
  24868114.363    -6517756.99349  -5056639.88044  24868114.122    24868123.943
  24536988.086    -4722485.67749  -3660595.22844  24536987.709    24536996.014
  21665711.404   -15440011.87649 -12007020.25146  21665711.460    21665717.688
  23644436.421    -2780009.04349  -2150950.42945  23644436.327    23644442.833
  21042286.211    -2600208.62449  -2020149.47747  21042285.749    21042292.219
  21768055.224     4150040.05049   3243328.34347  21768055.089    21768062.493
  21376585.000   -21941558.31249 -17072445.40847  21376584.429    21376590.873
  21933220.417   -15459231.64949 -12022628.96447  21933219.908    21933227.490
  20505409.503   -10391293.33849  -7907900.19547  20505409.061    20505413.321
  20558261.699   -25721758.07049 -20019969.91347  20558261.372    20558266.447
  23516855.307    -8627251.79749  -6387328.72145  23516854.920    23516862.457
 03  6 10 18  2  0.0000000  0 11G 2G 3G26G29G17G 6G15G23G21G18G16
  24867197.981    -6522573.76949  -5060393.24945  24867197.786    24867207.426
  24518181.878    -4821312.40249  -3737603.05544  24518181.206    24518189.840
  21673134.901   -15401001.17049 -11976622.30646  21673134.961    21673141.167
  23657711.355    -2710248.94349  -2096591.94945  23657711.227    23657717.752
  21047226.670    -2574246.65949  -1999919.41447  21047226.188    21047232.653
  21784006.619     4233864.83349   3308646.27647  21784006.466    21784013.899
  21365832.921   -21998060.77649 -17116473.28647  21365832.372    21365838.798
  21922482.641   -15515658.72449 -12066598.06747  21922482.141    21922489.735
  20506042.536   -10387967.03949  -7905308.29447  20506042.092    20506046.342
  20553175.362   -25748486.86149 -20040797.53047  20553175.043    20553180.123
  23523661.706    -8591484.52349  -6359458.22845  23523661.368    23523668.792
 03  6 10 18  2 30.0000000  0 11G 2G 3G26G29G17G 6G15G23G21G18G16
  24866361.291    -6526971.12049  -5063819.84745  24866361.057    24866370.528
  24499408.568    -4919966.09949  -3814476.02445  24499408.153    24499416.496
  21680679.164   -15361355.87949 -11945729.87446  21680679.228    21680685.448
  23671063.671    -2640082.52249  -2041916.85245  23671063.504    23671070.012
  21052211.217    -2548052.79449  -1979508.64747  21052210.698    21052217.231
  21800026.605     4318050.23349   3374245.21247  21800026.515    21800033.914
  21355111.236   -22054403.53849 -17160376.72747  21355110.695    21355117.126
  21911809.089   -15571748.61849 -12110304.43647  21911808.581    21911816.133
  20506725.097   -10384380.26049  -7902513.42547  20506724.650    20506728.897
  20548167.108   -25774805.48849 -20061305.53747  20548166.770    20548171.829
  23530551.730    -8555278.20449  -6331245.62845  23530551.347    23530558.770
 03  6 10 18  3  0.0000000  0 11G 2G 3G26G29G17G 6G15G23G21G18G16
  24865604.003    -6530950.16849  -5066920.47044  24865603.671    24865613.157
  24480668.712    -5018444.70449  -3891212.56445  24480668.446    24480676.684
  21688343.731   -15321077.85849 -11914344.40646  21688343.862    21688350.081
  23684492.651    -2569512.76249  -1986927.44945  23684492.617    23684498.938
  21057239.904    -2521626.91149  -1958917.07847  21057239.436    21057245.991
  21816114.814     4402593.90849   3440123.32247  21816114.708    21816122.088
  21344419.997   -22110586.28549 -17204155.47747  21344419.446    21344425.864
  21901199.632   -15627501.66549 -12153748.32547  21901199.105    21901206.624
  20507457.337   -10380532.54349  -7899515.22347  20507456.863    20507461.124
  20543236.673   -25800714.94949 -20081494.71647  20543236.373    20543241.404
  23537524.822    -8518635.46049  -6302692.93745  23537524.411    23537531.757
 03  6 10 18  3 30.0000000  0 11G 2G 3G26G29G17G 6G15G23G21G18G16
  24864926.657    -6534511.49949  -5069695.60445  24864926.129    24864935.642
  24461962.624    -5116745.66149  -3967810.68945  24461962.236    24461970.465
  21696128.528   -15280168.56749 -11882467.05446  21696128.653    21696134.891
  23697998.064    -2498541.73649  -1931625.37945  23697997.958    23698004.315
  21062312.810    -2494968.48949  -1938144.31247  21062312.365    21062318.932
  21832270.766     4487493.74149   3506278.95947  21832270.653    21832278.039
  21333759.284   -22166608.23049 -17247808.93047  21333758.746    21333765.220
  21890654.252   -15682917.76349 -12196929.65947  21890653.736    21890661.220
  20508239.295   -10376423.24449  -7896313.19547  20508238.832    20508243.127
  20538384.100   -25826215.57049 -20101365.31947  20538383.793    20538388.783
  23544580.489    -8481558.18949  -6273801.68145  23544579.996    23544587.409
 03  6 10 18  4  0.0000000  0 11G 2G 3G26G29G17G 6G15G23G21G18G16
  24864328.395    -6537656.19949  -5072146.11844  24864327.856    24864337.145
  24443290.741    -5214867.05349  -4044268.89945  24443290.452    24443298.658
  21704033.079   -15238630.21349 -11850099.52746  21704033.170    21704039.394
  23711579.269    -2427172.05749  -1876012.66245  23711579.125    23711585.484
  21067430.078    -2468077.28249  -1917190.15547  21067429.592    21067436.204
  21848494.080     4572747.45449   3572710.33347  21848493.982    21848501.385
  21323129.309   -22222469.02149 -17291336.80747  21323128.755    21323135.265
  21880172.944   -15737997.23349 -12239848.69147  21880172.482    21880179.878
  20509071.015   -10372052.61749  -7892907.53747  20509070.566    20509074.860
  20533609.153   -25851308.17849 -20120917.99347  20533608.808    20533613.790
  23551718.318    -8444049.20249  -6244574.02945  23551717.835    23551725.147
 03  6 10 18  4 30.0000000  0 11G 2G 3G26G29G17G 6G15G23G21G18G16
  24863809.013    -6540384.35149  -5074272.01544  24863808.364    24863818.233
  24424653.626    -5312806.05349  -4120584.97145  24424653.504    24424661.329
  21712057.136   -15196463.54149 -11817242.39446  21712057.255    21712063.457
  23725236.031    -2355405.38549  -1820090.63645  23725235.920    23725242.207
  21072591.830    -2440952.36449  -1896053.88847  21072591.329    21072597.946
  21864784.445     4658353.51449   3639416.25947  21864784.355    21864791.757
  21312530.221   -22278167.30549 -17334738.05547  21312529.683    21312536.234
  21869755.802   -15792739.53149 -12282504.99147  21869755.343    21869762.702
  20509952.778   -10367419.21549  -7889297.12347  20509952.315    20509956.593
  20528911.854   -25875992.63449 -20140152.62947  20528911.530    20528916.483
  23558937.900    -8406110.21949  -6215011.31645  23558937.406    23558944.774
 03  6 10 18  5  0.0000000  0 11G 2G 3G26G29G17G 6G15G23G21G18G16
  24863368.994    -6542696.87949  -5076074.07144  24863368.367    24863378.422
  24406051.642    -5410560.38249  -4196757.12845  24406051.432    24406059.298
  21720200.441   -15153670.52749 -11783897.20746  21720200.508    21720206.719
  23738967.814    -2283244.43649  -1763861.35045  23738967.675    23738973.989
  21077798.075    -2413593.58249  -1874735.38747  21077797.594    21077804.218
  21881141.417     4744309.68449   3706395.00646  21881141.301    21881148.756
  21301962.247   -22333702.32249 -17378012.07847  21301961.709    21301968.284
  21859402.827   -15847144.72449 -12324898.60147  21859402.361    21859409.716
  20510884.631   -10362522.43349  -7885481.46847  20510884.200    20510888.417
  20524292.120   -25900269.73249 -20159069.83447  20524291.778    20524296.710
  23566238.973    -8367743.55249  -6185115.33145  23566238.572    23566245.902
 03  6 10 18  5 30.0000000  0 11G 2G 3G26G29G17G 6G15G23G21G18G16
  24863008.408    -6544593.81349  -5077552.28244  24863007.608    24863017.561
  24387485.351    -5508127.20649  -4272783.16245  24387485.016    24387493.052
  21728462.722   -15110252.06749 -11750064.63846  21728462.788    21728468.995
  23752774.309    -2210690.66249  -1707325.94645  23752774.186    23752780.487
  21083048.928    -2386000.17749  -1853234.05847  21083048.459    21083055.089
  21897564.733     4830614.49849   3773645.42646  21897564.631    21897572.069
  21291425.567   -22389072.91249 -17421157.97347  21291425.013    21291431.592
  21849114.137   -15901212.17649 -12367029.03947  21849113.673    21849120.974
  20511866.774   -10357361.36849  -7881459.88047  20511866.330    20511870.533
  20519749.899   -25924139.13749 -20177669.35547  20519749.553    20519754.482
  23573621.087    -8328950.59649  -6154887.15845  23573620.742    23573628.145
 03  6 10 18  6  0.0000000  0 11G 2G 3G26G29G17G 6G15G23G21G18G16
  24862726.684    -6546076.46449  -5078707.64744  24862725.882    24862735.556
  24368955.121    -5605504.35149  -4348661.42045  24368954.883    24368962.854
  21736843.517   -15066210.47449 -11715746.51846  21736843.576    21736849.827
  23766654.991    -2137746.96849  -1650486.74445  23766654.918    23766661.231
  21088344.464    -2358171.93849  -1831549.74647  21088344.033    21088350.676
  21914053.931     4917265.43849   3841165.54146  21914053.816    21914061.232
  21280920.302   -22444278.57349 -17464175.35447  21280919.736    21280926.286
  21838889.582   -15954942.37849 -12408896.69347  21838889.102    21838896.434
  20512899.245   -10351935.89249  -7877232.26347  20512898.786    20512902.992
  20515285.062   -25947602.06949 -20195952.15048  20515284.714    20515289.633
  23581083.771    -8289734.55349  -6124329.33345  23581083.435    23581090.899
 03  6 10 18  6 30.0000000  0 11G 2G 3G26G29G17G 6G15G23G21G18G16
  24862522.581    -6547145.31849  -5079540.63044  24862521.966    24862532.144
  24350461.505    -5702688.97549  -4424389.65745  24350461.127    24350469.233
  21745342.657   -15021546.99749 -11680943.82746  21745342.732    21745349.026
  23780609.524    -2064415.29149  -1593345.20845  23780609.447    23780615.791
  21093684.835    -2330108.13849  -1809681.88347  21093684.366    21093691.053
  21930608.733     5004260.87549   3908954.09446  21930608.585    21930616.033
  21270446.607   -22499318.07949 -17507063.26447  21270446.066    21270452.605
  21828729.266   -16008334.85149 -12450501.17547  21828728.806    21828736.148
  20513982.153   -10346245.16749  -7872797.95747  20513981.706    20513985.915
  20510897.537   -25970658.62049 -20213918.29148  20510897.191    20510902.120
  23588626.599    -8250097.05249  -6093443.09345  23588626.244    23588633.877
 03  6 10 18  7  0.0000000  0 11G 2G 3G26G29G17G 6G15G23G21G18G16
  24862397.777    -6547800.72349  -5080051.42944  24862397.390    24862407.369
  24332004.994    -5799678.56449  -4499965.93645  24332004.693    24332012.544
  21753959.956   -14976262.97149 -11645657.58946  21753960.027    21753966.302
  23794637.586    -1990697.40349  -1535902.71845  23794637.534    23794644.015
  21099070.254    -2301807.63949  -1787629.57847  21099069.788    21099076.478
  21947228.685     5091598.98849   3977009.67046  21947228.550    21947236.057
  21260004.839   -22554190.28749 -17549820.81047  21260004.285    21260010.783
  21818633.337   -16061389.28049 -12491842.25247  21818632.875    21818640.211
  20515115.740   -10340288.21749  -7868156.20347  20515115.291    20515119.513
  20506587.390   -25993308.75749 -20231567.74148  20506587.045    20506591.969
  23596249.308    -8210040.24149  -6062230.13045  23596248.946    23596256.524
 03  6 10 18  7 30.0000000  0 11G 2G 3G26G29G17G 6G15G23G21G18G16
  24862351.713    -6548044.48549  -5080241.44144  24862351.511    24862361.704
  24313585.775    -5896472.04649  -4575389.40545  24313585.565    24313593.293
  21762694.788   -14930361.13449 -11609889.94546  21762694.840    21762701.125
  23808738.384    -1916597.05849  -1478162.21945  23808738.344    23808744.741
  21104500.459    -2273271.54849  -1765393.70047  21104500.009    21104506.742
  21963913.329     5179276.70749   4045329.87246  21963913.129    21963920.671
  21249594.803   -22608895.45049 -17592448.19647  21249594.252    21249600.745
  21808601.459   -16114106.75049 -12532920.76347  21808601.000    21808608.331
  20516299.936   -10334065.25749  -7863307.16547  20516299.501    20516303.741
  20502354.241   -26015554.24349 -20248901.87948  20502353.866    20502358.787
  23603951.129    -8169567.47049  -6030693.03145  23603950.784    23603958.319
 03  6 10 18  8  0.0000000  0 11G 2G 3G26G29G17G 6G15G23G21G18G16
  24862383.745    -6547876.93349  -5080110.96244  24862383.389    24862393.197
  24295204.436    -5993066.17549  -4650657.52145  24295204.330    24295211.969
  21771546.873   -14883842.83449 -11573641.93446  21771546.972    21771553.284
  23822911.707    -1842115.57049  -1420124.71345  23822911.632    23822918.045
  21109975.753    -2244498.72849  -1742973.35547  21109975.338    21109982.037
  21980662.282     5267292.52449   4113913.52646  21980662.104    21980669.610
  21239216.813   -22663432.01149 -17634944.20347  21239216.257    21239222.753
  21798633.820   -16166486.77049 -12573736.32547  21798633.370    21798640.695
  20517534.912   -10327575.55349  -7858250.27947  20517534.466    20517538.724
  20498198.003   -26037395.41249 -20265920.97148  20498197.643    20498202.549
  23611731.710    -8128680.71449  -5998833.37145  23611731.388    23611738.920
 03  6 10 18  8 30.0000000  0 11G 2G 3G26G29G17G 6G15G23G21G18G16
  24862494.006    -6547298.40249  -5079660.23544  24862493.285    24862503.278
  24276861.675    -6089458.08749  -4725768.09345  24276861.428    24276869.385
  21780516.032   -14836709.52649 -11536914.70346  21780516.152    21780522.466
  23837157.143    -1767255.17949  -1361791.96545  23837157.109    23837163.634
  21115496.237    -2215488.62349  -1720368.11047  21115495.796    21115502.501
  21997475.251     5355644.74949   4182759.32046  21997475.065    21997482.560
  21228871.110   -22717799.02449 -17677308.08947  21228870.539    21228877.065
  21788730.503   -16218528.96749 -12614288.64747  21788730.016    21788737.357
  20518820.904   -10320817.74649  -7852984.47847  20518820.436    20518824.725
  20494118.742   -26058831.98349 -20282624.78748  20494118.397    20494123.310
  23619590.848    -8087381.41549  -5966652.19745  23619590.497    23619598.040
 03  6 10 18  9  0.0000000  0 11G 2G 3G26G29G17G 6G15G23G21G18G16
  24862682.368    -6546310.19349  -5078890.30644  24862681.623    24862691.109
  24258557.721    -6185645.99449  -4800719.65445  24258557.430    24258565.275
  21789601.910   -14788963.36549 -11499709.92346  21789601.942    21789608.238
  23851474.164    -1692018.70949  -1303166.16345  23851474.078    23851480.599
  21121061.910    -2186241.07849  -1697577.84847  21121061.463    21121068.145
  22014351.674     5444330.68749   4251865.13946  22014351.502    22014359.063
  21218557.685   -22771996.20049 -17719539.63847  21218557.149    21218563.692
  21778891.340   -16270233.90449 -12654578.16847  21778890.868    21778898.239
  20520157.905   -10313791.69449  -7847509.65447  20520157.451    20520161.744
  20490116.252   -26079865.08149 -20299014.20048  20490115.908    20490120.853
  23627527.890    -8045672.57749  -5934151.90445  23627527.543    23627535.030
 03  6 10 18  9 30.0000000  0 11G 2G 3G26G29G17G 6G15G23G21G18G16
  24862948.596    -6544912.97249  -5077801.64844  24862947.479    24862956.633
  24240293.144    -6281627.06349  -4875510.06445  24240292.934    24240300.688
  21798804.016   -14740606.00349 -11462028.89546  21798804.052    21798810.338
  23865862.469    -1616408.15049  -1244248.90145  23865862.287    23865868.785
  21126673.001    -2156754.86149  -1674601.61947  21126672.519    21126679.219
  22031291.265     5533348.55149   4321229.59746  22031291.095    22031298.718
  21208276.854   -22826022.36949 -17761637.94247  21208276.296    21208282.839
  21769116.445   -16321601.23749 -12694604.62947  21769115.965    21769123.350
  20521546.087   -10306496.76849  -7841825.32747  20521545.620    20521549.945
  20486190.585   -26100494.58449 -20315089.13448  20486190.256    20486195.201
  23635542.449    -8003556.11149  -5901334.00045  23635541.994    23635549.612
 03  6 10 18 10  0.0000000  0 11G 2G 3G26G29G17G 6G15G23G21G18G16
  24863292.384    -6543107.59949  -5076394.92944  24863291.451    24863300.517
  24222068.423    -6377398.67249  -4950137.24945  24222068.192    24222076.042
  21808122.025   -14691639.23049 -11423872.98546  21808122.161    21808128.449
  23880321.478    -1540425.89549  -1185041.95745  23880321.307    23880327.838
  21132329.485    -2127030.05049  -1651439.46647  21132328.993    21132335.698
  22048293.617     5622696.29149   4390851.09946  22048293.494    22048301.102
  21198028.767   -22879876.52649 -17803602.19647  21198028.210    21198034.732
  21759405.807   -16372631.09849 -12734368.11847  21759405.317    21759412.656
  20522985.614   -10298932.19249  -7835930.87647  20522985.153    20522989.461
  20482341.520   -26120721.69049 -20330850.50448  20482341.170    20482346.113
  23643633.957    -7961034.92949  -5868200.72845  23643633.653    23643641.238
 03  6 10 18 10 30.0000000  0 11G 2G 3G26G29G17G 6G15G23G21G18G16
  24863713.469    -6540894.58849  -5074670.61544  24863712.580    24863721.799
  24203883.999    -6472958.22149  -5024599.20745  24203883.760    24203891.616
  21817555.843   -14642064.67449 -11385243.48446  21817555.940    21817562.253
  23894850.822    -1464073.89549  -1125546.91145  23894850.709    23894857.078
  21138031.561    -2097065.69549  -1628090.65847  21138031.066    21138037.786
  22065358.380     5712371.86949   4460728.07046  22065358.280    22065365.899
  21187813.610   -22933557.61649 -17845431.60247  21187813.052    21187819.540
  21749759.367   -16423323.20449 -12773868.41547  21749758.865    21749766.255
  20524476.533   -10291097.32849  -7829825.80547  20524476.081    20524480.394
  20478568.948   -26140546.62849 -20346298.50348  20478568.602    20478573.534
  23651802.102    -7918110.83049  -5834753.49145  23651801.828    23651809.545
 03  6 10 18 11  0.0000000  0 11G 2G 3G26G29G17G 6G15G23G21G18G16
  24864211.843    -6538274.72949  -5072629.27744  24864210.975    24864220.053
  24185740.341    -6568303.37349  -5098894.11445  24185740.121    24185747.980
  21827105.070   -14591883.96949 -11346141.66746  21827105.090    21827111.347
  23909450.077    -1387354.45449  -1065765.57045  23909449.942    23909456.362
  21143779.376    -2066860.90149  -1604554.49247  21143778.896    21143785.593
  22082485.196     5802373.40549   4530859.01646  22082485.094    22082492.734
  21177631.553   -22987064.61949 -17887125.35247  21177630.961    21177637.438
  21740177.268   -16473677.44549 -12813105.45647  21740176.769    21740184.062
  20526019.071   -10282991.48149  -7823509.58847  20526018.613    20526022.905
  20474872.875   -26159969.42149 -20361433.14648  20474872.531    20474877.456
  23660046.586    -7874785.92049  -5800993.94245  23660046.302    23660054.023
 03  6 10 18 11 30.0000000  0 11G 2G 3G26G29G17G 6G15G23G21G18G16
  24864787.674    -6535249.46949  -5070272.03544  24864786.914    24864795.996
  24167637.888    -6663431.92049  -5173020.19645  24167637.713    24167645.626
  21836768.954   -14541099.70849 -11306569.54546  21836769.049    21836775.279
  23924118.702    -1310270.52249  -1005700.18145  23924118.587    23924125.050
  21149572.826    -2036416.22349  -1580831.40547  21149572.376    21149579.088
  22099673.560     5892698.23449   4601241.88746  22099673.414    22099681.084
  21167482.749   -23040396.82349 -17928682.90047  21167482.177    21167488.631
  21730659.367   -16523694.35949 -12852079.63547  21730658.878    21730666.151
  20527613.205   -10274614.29449  -7816981.94047  20527612.720    20527617.014
  20471253.064   -26178991.58849 -20376255.61348  20471252.717    20471257.648
  23668366.825    -7831063.41049  -5766924.57845  23668366.420    23668374.396
 03  6 10 18 12  0.0000000  0 11G 2G 3G26G29G17G 6G15G23G21G18G16
  24865440.823    -6531819.38749  -5067599.32844  24865439.964    24865448.914
  24149577.112    -6758341.10949  -5246975.39645  24149576.966    24149585.058
  21846547.414   -14489713.35949 -11266528.27746  21846547.560    21846553.764
  23938856.212    -1232824.05849   -945352.34145  23938856.115    23938862.682
  21155412.117    -2005730.81649  -1556920.75247  21155411.663    21155418.369
  22116923.047     5983344.51049   4671875.22346  22116922.893    22116930.601
  21157367.363   -23093553.25649 -17970103.49247  21157366.780    21157373.271
  21721205.701   -16573373.92149 -12890790.95547  21721205.173    21721212.404
  20529259.089   -10265965.06649  -7810242.31547  20529258.620    20529262.945
  20467709.433   -26197613.41949 -20390766.13548  20467709.100    20467714.035
  23676762.247    -7786945.33249  -5732546.98345  23676761.889    23676769.954
 03  6 10 18 12 30.0000000  0 11G 2G 3G26G29G17G 6G15G23G21G18G16
  24866170.232    -6527986.07249  -5064612.45044  24866169.460    24866178.338
  24131558.526    -6853029.09249  -5320758.23045  24131558.450    24131566.530
  21856440.107   -14437727.62349 -11226019.95846  21856440.151    21856446.376
  23953662.296    -1155018.18749   -884724.44245  23953662.284    23953668.666
  21161297.228    -1974804.51849  -1532822.39747  21161296.749    21161303.473
  22134233.185     6074309.45349   4742756.85946  22134233.019    22134240.795
  21147285.579   -23146533.51249 -18011386.80847  21147284.999    21147291.452
  21711816.001   -16622716.79249 -12929239.92047  21711815.523    21711822.749
  20530956.825   -10257043.67149  -7803290.62347  20530956.355    20530960.662
  20464241.764   -26215836.05049 -20404965.59848  20464241.440    20464246.369
  23685232.412    -7742434.90549  -5697863.70745  23685232.035    23685240.091
 03  6 10 18 13  0.0000000  0 11G 2G 3G26G29G17G 6G15G23G21G18G16
  24866976.277    -6523748.90849  -5061310.89544  24866975.651    24866984.917
  24113582.835    -6947491.85149  -5394365.59745  24113582.664    24113590.770
  21866446.641   -14385143.01449 -11185044.99346  21866446.694    21866452.882
  23968536.669    -1076853.56249   -823817.00245  23968536.557    23968542.948
  21167228.514    -1943635.53749  -1508534.94047  21167228.043    21167234.772
  22151603.881     6165592.60849   4813886.45346  22151603.724    22151611.555
  21137237.774   -23199335.21349 -18052531.00647  21137237.205    21137243.602
  21702490.683   -16671721.47349 -12967425.38247  21702490.199    21702497.424
  20532706.744   -10247847.99449  -7796125.21147  20532706.273    20532710.597
  20460850.313   -26233658.47349 -20418853.21448  20460849.988    20460854.905
  23693777.133    -7697532.92149  -5662875.33245  23693776.759    23693784.932
 03  6 10 18 13 30.0000000  0 11G 2G 3G26G29G17G 6G15G23G21G18G16
  24867859.075    -6519110.36949  -5057696.63744  24867858.628    24867867.709
  24095650.198    -7041728.83949  -5467797.05745  24095650.048    24095658.016
  21876566.438   -14331962.72349 -11143605.86746  21876566.578    21876572.741
  23983478.476     -998334.18749   -762633.16745  23983478.283    23983484.722
  21173205.910    -1912224.59849  -1484058.94947  21173205.405    21173212.159
  22169034.337     6257190.14949   4885261.00646  22169034.207    22169042.101
  21127223.817   -23251958.93949 -18093536.52047  21127223.248    21127229.617
  21693229.420   -16720389.64949 -13005348.63547  21693228.970    21693236.152
  20534508.664   -10238378.98949  -7788746.81447  20534508.196    20534512.539
  20457534.588   -26251082.87249 -20432430.68448  20457534.254    20457539.141
  23702395.728    -7652243.08949  -5627584.74645  23702395.372    23702403.496
 03  6 10 18 14  0.0000000  0 11G 2G 3G26G29G17G 6G15G23G21G18G16
  24868818.397    -6514070.90049  -5053769.96144  24868817.968    24868826.882
  24077761.030    -7135736.83549  -5541050.11245  24077760.883    24077768.845
  21886799.338   -14278188.59649 -11101704.03446  21886799.484    21886805.627
  23998487.364     -919462.07849   -701174.49445  23998487.253    23998493.768
  21179229.485    -1880570.71649  -1459393.67247  21179228.985    21179235.744
  22186524.350     6349100.41449   4956879.21946  22186524.229    22186532.162
  21117244.058   -23304403.03149 -18134402.07347  21117243.487    21117249.872
  21684032.272   -16768720.80349 -13043009.28947  21684031.797    21684039.004
  20536362.818   -10228635.39849  -7781154.47247  20536362.362    20536366.742
  20454294.550   -26268109.54749 -20445698.25348  20454294.207    20454299.080
  23711087.661    -7606567.70949  -5591993.75545  23711087.296    23711095.325
 03  6 10 18 14 30.0000000  0 11G 2G 3G26G29G17G 6G15G23G21G18G16
  24869853.060    -6508632.06049  -5049532.08644  24869852.519    24869861.275
  24059915.853    -7229513.75849  -5614123.07445  24059915.657    24059923.536
  21897144.851   -14223823.09749 -11059341.38446  21897144.892    21897151.066
  24013562.920     -840239.98549   -639443.07345  24013562.727    24013569.370
  21185299.190    -1848674.28049  -1434539.38547  21185298.703    21185305.500
  22204073.422     6441320.74749   5028739.06046  22204073.269    22204081.213
  21107298.457   -23356667.35049 -18175127.53847  21107297.882    21107304.289
  21674899.137   -16816715.78249 -13080407.97747  21674898.640    21674905.840
  20538269.253   -10218617.08249  -7773348.05747  20538268.792    20538273.194
  20451129.963   -26284739.57349 -20458656.73748  20451129.608    20451134.500
  23719852.278    -7560509.67049  -5556104.57245  23719851.868    23719860.078
 03  6 10 18 15  0.0000000  0 11G 2G 3G26G29G17G 6G15G23G21G18G16
  24870964.198    -6502794.05449  -5044983.12844  24870963.978    24870972.327
  24042115.272    -7323056.41949  -5687013.46845  24042115.030    24042122.972
  21907602.605   -14168867.49349 -11016518.87446  21907602.632    21907608.822
  24028704.709     -760669.34849   -577440.04845  24028704.513    24028711.240
  21191415.258    -1816534.12149  -1409495.16347  21191414.819    21191421.648
  22221681.259     6533849.69949   5100839.40846  22221681.070    22221689.057
  21097387.467   -23408749.87649 -18215711.32647  21097386.893    21097393.375
  21665830.131   -16864373.84549 -13117544.11147  21665829.658    21665836.821
  20540228.278   -10208322.71249  -7765326.51647  20540227.806    20540232.194
  20448040.908   -26300972.81649 -20471306.02448  20448040.556    20448045.445
  23728689.436    -7514070.58249  -5519918.42345  23728689.090    23728697.398
 03  6 10 18 15 30.0000000  0 11G 2G 3G26G29G17G 6G15G23G21G18G16
  24872151.020    -6496557.65649  -5040123.71344  24872150.570    24872159.733
  24024359.772    -7416361.83149  -5759718.96945  24024359.662    24024367.539
  21918172.219   -14113323.53649 -10973237.90246  21918172.355    21918178.507
  24043912.467     -680752.64849   -515167.34245  24043912.296    24043918.992
  21197577.927    -1784149.26649  -1384260.26347  21197577.492    21197584.355
  22239347.328     6626685.29349   5173178.69246  22239347.210    22239355.253
  21087511.322   -23460649.46749 -18256152.57047  21087510.750    21087517.230
  21656825.272   -16911694.98549 -13154417.70447  21656824.762    21656831.877
  20542239.941   -10197751.65049  -7757089.36347  20542239.453    20542243.845
  20445027.199   -26316809.98549 -20483646.67548  20445026.862    20445031.748
  23737598.655    -7467252.71049  -5483437.13045  23737598.343    23737606.758
 03  6 10 18 16  0.0000000  0 11G 2G 3G26G29G17G 6G15G23G21G18G16
  24873413.318    -6489924.52049  -5034955.14344  24873412.805    24873422.344
  24006649.798    -7509428.60649  -5832238.50845  24006649.712    24006657.465
  21928853.388   -14057194.10649 -10929500.70546  21928853.540    21928859.680
  24059185.474     -600492.95249   -452627.34645  24059185.333    24059192.056
  21203787.089    -1751520.18149  -1358835.04947  21203786.644    21203793.529
  22257071.256     6719824.59349   5245754.64446  22257071.180    22257079.196
  21077670.050   -23512365.84049 -18296451.03547  21077669.463    21077675.936
  21647884.302   -16958680.05549 -13191029.41847  21647883.792    21647890.869
  20544304.316   -10186903.53749  -7748636.31847  20544303.844    20544308.242
  20442088.674   -26332252.09649 -20495679.48548  20442088.337    20442093.231
  23746579.186    -7420059.53349  -5446663.37545  23746578.876    23746587.371
 03  6 10 18 16 30.0000000  0 11G 2G 3G26G29G17G 6G15G23G21G18G16
  24874751.287    -6482895.19749  -5029477.80844  24874750.778    24874759.762
  23988985.899    -7602253.49949  -5904569.54245  23988985.681    23988993.506
  21939645.713   -14000480.81549 -10885308.55446  21939645.779    21939651.907
  24074523.369     -519891.87149   -389821.32245  24074523.224    24074529.930
  21210042.899    -1718645.85349  -1333218.73847  21210042.453    21210049.357
  22274852.724     6813266.12649   5318566.09746  22274852.620    22274860.644
  21067863.877   -23563897.63049 -18336605.67347  21067863.292    21067869.752
  21639007.352   -17005328.61949 -13227378.93047  21639006.827    21639013.943
  20546421.624   -10175777.39049  -7739966.62947  20546421.149    20546425.531
  20439225.271   -26347299.33449 -20507404.60248  20439224.919    20439229.799
  23755630.874    -7372492.77549  -5409598.49945  23755630.669    23755639.106
 03  6 10 18 17  0.0000000  0 11G 2G 3G26G29G17G 6G15G23G21G18G16
  24876163.838    -6475471.52549  -5023693.20644  24876163.481    24876172.917
  23971368.367    -7694834.68049  -5976710.68045  23971368.097    23971375.875
  21950548.511   -13943186.42749 -10840663.58746  21950548.581    21950554.721
  24089925.538     -438952.82249   -326751.94945  24089925.362    24089932.260
  21216345.411    -1685526.05949  -1307411.15047  21216344.950    21216351.884
  22292691.082     6907006.85949   5391610.71446  22292690.971    22292699.024
  21058092.892   -23615244.47249 -18376616.18547  21058092.306    21058098.771
  21630194.255   -17051641.51049 -13263466.86347  21630193.769    21630200.885
  20548591.870   -10164373.07649  -7731080.17347  20548591.386    20548595.752
  20436436.736   -26361953.05349 -20518823.07048  20436436.400    20436441.308
  23764753.140    -7324555.69949  -5372245.07645  23764752.933    23764761.336
 03  6 10 18 17 30.0000000  0 11G 2G 3G26G29G17G 6G15G23G21G18G16
  24877651.419    -6467653.80549  -5017601.57844  24877650.880    24877660.933
  23953797.815    -7787168.88049  -6048659.33045  23953797.592    23953805.323
  21961561.533   -13885312.39049 -10795566.94946  21961561.667    21961567.839
  24105391.793     -357677.19049   -263420.29845  24105391.655    24105398.497
  21222694.942    -1652159.52349  -1281411.29947  21222694.464    21222701.384
  22310586.107     7001045.37149   5464887.36546  22310586.003    22310594.078
  21048357.464   -23666404.37949 -18416481.03047  21048356.886    21048363.360
  21621445.187   -17097618.18949 -13299292.82147  21621444.675    21621451.759
  20550815.169   -10152689.51949  -7721976.12547  20550814.697    20550819.091
  20433723.068   -26376213.26749 -20529934.90948  20433722.748    20433727.690
  23773945.496    -7276250.11849  -5334604.50645  23773945.219    23773953.630
